<?xml version='1.0' encoding='UTF-8'?><gpx version="1.1" creator="JPX - https://github.com/jenetics/jpx" xmlns="http://www.topografix.com/GPX/1/1"><trk><trkseg><trkpt lat="47.37469514276945" lon="6.874051699339988"><ele>611.2857142857142</ele><time>2026-04-06T08:42:48Z</time></trkpt><trkpt lat="47.37462841425268" lon="6.874035220804579"><ele>610.5714285714286</ele><time>2026-04-06T08:43:03Z</time></trkpt><trkpt lat="47.37456376132193" lon="6.874036492274747"><ele>609.8571428571429</ele><time>2026-04-06T08:43:10Z</time></trkpt><trkpt lat="47.374493958287125" lon="6.8740361942501735"><ele>609.1428571428571</ele><time>2026-04-06T08:43:16Z</time></trkpt><trkpt lat="47.374423168000604" lon="6.874045625339471"><ele>608.4285714285714</ele><time>2026-04-06T08:43:21.001Z</time></trkpt><trkpt lat="47.37435753453691" lon="6.874045377589929"><ele>607.7142857142857</ele><time>2026-04-06T08:43:27.001Z</time></trkpt><trkpt lat="47.37429054488189" lon="6.874021444588993"><ele>607.0</ele><time>2026-04-06T08:43:34.001Z</time></trkpt><trkpt lat="47.37422984716973" lon="6.873996340724169"><ele>606.9999999999999</ele><time>2026-04-06T08:43:40.001Z</time></trkpt><trkpt lat="47.37416636804272" lon="6.8739729713723605"><ele>607.0</ele><time>2026-04-06T08:43:46.001Z</time></trkpt><trkpt lat="47.374102734082655" lon="6.873946241643895"><ele>607.0</ele><time>2026-04-06T08:43:52.001Z</time></trkpt><trkpt lat="47.37403795605016" lon="6.873937181427447"><ele>607.0</ele><time>2026-04-06T08:43:58.001Z</time></trkpt><trkpt lat="47.37396373314892" lon="6.873901399768292"><ele>607.0</ele><time>2026-04-06T08:44:04.001Z</time></trkpt><trkpt lat="47.37389302754784" lon="6.873897631219154"><ele>606.9999999999999</ele><time>2026-04-06T08:44:10.002Z</time></trkpt><trkpt lat="47.37382113918566" lon="6.873895701596521"><ele>607.0</ele><time>2026-04-06T08:44:16.002Z</time></trkpt><trkpt lat="47.373787429561894" lon="6.873992317886951"><ele>607.4285714285713</ele><time>2026-04-06T08:44:23.002Z</time></trkpt><trkpt lat="47.373771205506706" lon="6.874102509424265"><ele>607.8571428571429</ele><time>2026-04-06T08:44:28.002Z</time></trkpt><trkpt lat="47.37377932004927" lon="6.874210026424198"><ele>608.2857142857142</ele><time>2026-04-06T08:44:32.002Z</time></trkpt><trkpt lat="47.373796425461485" lon="6.874305140044096"><ele>608.7142857142857</ele><time>2026-04-06T08:44:36.002Z</time></trkpt><trkpt lat="47.37382057084895" lon="6.874394321525276"><ele>609.1428571428571</ele><time>2026-04-06T08:44:41.002Z</time></trkpt><trkpt lat="47.37382935184807" lon="6.874491144472613"><ele>609.5714285714286</ele><time>2026-04-06T08:44:47.002Z</time></trkpt><trkpt lat="47.373845117930884" lon="6.874592679837648"><ele>610.0</ele><time>2026-04-06T08:44:52.002Z</time></trkpt><trkpt lat="47.3738693675969" lon="6.874699505718118"><ele>610.0</ele><time>2026-04-06T08:44:57.003Z</time></trkpt><trkpt lat="47.37388324319888" lon="6.874803955321344"><ele>610.0</ele><time>2026-04-06T08:45:03.003Z</time></trkpt><trkpt lat="47.37393536551729" lon="6.874874396731232"><ele>610.0</ele><time>2026-04-06T08:45:10.003Z</time></trkpt><trkpt lat="47.373997366380216" lon="6.874905362923155"><ele>610.0</ele><time>2026-04-06T08:45:17.003Z</time></trkpt><trkpt lat="47.374060733869214" lon="6.874927118951708"><ele>610.0</ele><time>2026-04-06T08:45:23.003Z</time></trkpt><trkpt lat="47.37412376309723" lon="6.874955762245663"><ele>610.0</ele><time>2026-04-06T08:45:29.003Z</time></trkpt><trkpt lat="47.374182476331974" lon="6.875002243247139"><ele>610.0</ele><time>2026-04-06T08:45:34.003Z</time></trkpt><trkpt lat="47.37424621971424" lon="6.875049121242033"><ele>610.0</ele><time>2026-04-06T08:45:40.003Z</time></trkpt><trkpt lat="47.37430594273968" lon="6.8750976672314295"><ele>610.0</ele><time>2026-04-06T08:45:46.003Z</time></trkpt><trkpt lat="47.37436759140896" lon="6.875155443410246"><ele>610.0</ele><time>2026-04-06T08:45:52.004Z</time></trkpt><trkpt lat="47.374420844079104" lon="6.875208008393038"><ele>610.0</ele><time>2026-04-06T08:45:57.004Z</time></trkpt><trkpt lat="47.37447768208677" lon="6.8752643595560805"><ele>610.0</ele><time>2026-04-06T08:46:02.004Z</time></trkpt><trkpt lat="47.374523576935765" lon="6.875333375981433"><ele>610.0</ele><time>2026-04-06T08:46:07.004Z</time></trkpt><trkpt lat="47.37456973942964" lon="6.875401995116397"><ele>610.0</ele><time>2026-04-06T08:46:13.004Z</time></trkpt><trkpt lat="47.37462898788653" lon="6.875470760303662"><ele>610.4285714285714</ele><time>2026-04-06T08:46:19.004Z</time></trkpt><trkpt lat="47.37468662343995" lon="6.875527460587404"><ele>610.8571428571428</ele><time>2026-04-06T08:46:26.004Z</time></trkpt><trkpt lat="47.37473402746345" lon="6.87560832613823"><ele>611.2857142857142</ele><time>2026-04-06T08:46:33.004Z</time></trkpt><trkpt lat="47.37477909983684" lon="6.875675944396065"><ele>611.7142857142858</ele><time>2026-04-06T08:46:37.004Z</time></trkpt><trkpt lat="47.374816442267765" lon="6.875761012176204"><ele>612.1428571428571</ele><time>2026-04-06T08:46:46.005Z</time></trkpt><trkpt lat="47.374866461463974" lon="6.875842349431052"><ele>612.5714285714286</ele><time>2026-04-06T08:46:53.005Z</time></trkpt><trkpt lat="47.37489402947823" lon="6.875930730319601"><ele>613.0</ele><time>2026-04-06T08:46:59.005Z</time></trkpt><trkpt lat="47.37492476317156" lon="6.876034023794493"><ele>614.2857142857143</ele><time>2026-04-06T08:47:05.005Z</time></trkpt><trkpt lat="47.3749304900559" lon="6.876130462959382"><ele>615.5714285714286</ele><time>2026-04-06T08:47:12.005Z</time></trkpt><trkpt lat="47.37495583356669" lon="6.876227619820624"><ele>616.8571428571429</ele><time>2026-04-06T08:47:21.005Z</time></trkpt><trkpt lat="47.37498089736749" lon="6.876325917764957"><ele>618.1428571428571</ele><time>2026-04-06T08:47:27.005Z</time></trkpt><trkpt lat="47.37500654392281" lon="6.8764144211459"><ele>619.4285714285714</ele><time>2026-04-06T08:47:36.006Z</time></trkpt><trkpt lat="47.375042050771704" lon="6.876491238860925"><ele>620.7142857142857</ele><time>2026-04-06T08:47:42.006Z</time></trkpt><trkpt lat="47.37509776097799" lon="6.8765607603278935"><ele>622.0</ele><time>2026-04-06T08:47:48.006Z</time></trkpt><trkpt lat="47.37514124899719" lon="6.876629669421111"><ele>622.0</ele><time>2026-04-06T08:47:53.006Z</time></trkpt><trkpt lat="47.37519870499454" lon="6.8766838566926225"><ele>622.0</ele><time>2026-04-06T08:48:01.006Z</time></trkpt><trkpt lat="47.375258882048556" lon="6.87673172259951"><ele>622.0</ele><time>2026-04-06T08:48:08.006Z</time></trkpt><trkpt lat="47.37529717410004" lon="6.8768083045574"><ele>622.0</ele><time>2026-04-06T08:48:15.006Z</time></trkpt><trkpt lat="47.375334425878115" lon="6.876887654699384"><ele>622.0</ele><time>2026-04-06T08:48:21.006Z</time></trkpt><trkpt lat="47.375325379509015" lon="6.876981998168433"><ele>622.0</ele><time>2026-04-06T08:48:29.007Z</time></trkpt><trkpt lat="47.37532316471774" lon="6.877092958475331"><ele>622.0</ele><time>2026-04-06T08:48:35.007Z</time></trkpt><trkpt lat="47.37530776450141" lon="6.8771874476851425"><ele>622.7142857142857</ele><time>2026-04-06T08:48:41.007Z</time></trkpt><trkpt lat="47.37527239749111" lon="6.87726793893559"><ele>623.4285714285714</ele><time>2026-04-06T08:48:48.007Z</time></trkpt><trkpt lat="47.37526581531423" lon="6.877360760446128"><ele>624.1428571428571</ele><time>2026-04-06T08:48:54.007Z</time></trkpt><trkpt lat="47.37526056241717" lon="6.8774620375617435"><ele>624.8571428571429</ele><time>2026-04-06T08:49:00.007Z</time></trkpt><trkpt lat="47.37525843979074" lon="6.877568224397892"><ele>625.5714285714286</ele><time>2026-04-06T08:49:05.007Z</time></trkpt><trkpt lat="47.3752795674023" lon="6.877662318931642"><ele>626.2857142857143</ele><time>2026-04-06T08:49:10.007Z</time></trkpt><trkpt lat="47.37529519122978" lon="6.8777568584194295"><ele>627.0</ele><time>2026-04-06T08:49:15.008Z</time></trkpt><trkpt lat="47.375305673556184" lon="6.877871211803125"><ele>627.1428571428571</ele><time>2026-04-06T08:49:21.008Z</time></trkpt><trkpt lat="47.37532927624016" lon="6.877967404308831"><ele>627.2857142857142</ele><time>2026-04-06T08:49:27.008Z</time></trkpt><trkpt lat="47.375339338624464" lon="6.878062089914801"><ele>627.4285714285713</ele><time>2026-04-06T08:49:33.008Z</time></trkpt><trkpt lat="47.37536314780553" lon="6.878157827021751"><ele>627.5714285714286</ele><time>2026-04-06T08:49:38.007Z</time></trkpt><trkpt lat="47.37538050944234" lon="6.878249267712321"><ele>627.7142857142857</ele><time>2026-04-06T08:49:43.005Z</time></trkpt><trkpt lat="47.37539638748702" lon="6.8783513264798"><ele>627.8571428571428</ele><time>2026-04-06T08:49:50.004Z</time></trkpt><trkpt lat="47.37542983419813" lon="6.878430542303789"><ele>628.0</ele><time>2026-04-06T08:49:55.003Z</time></trkpt><trkpt lat="47.375448244123085" lon="6.878529678418687"><ele>627.9999999999999</ele><time>2026-04-06T08:50:01.002Z</time></trkpt><trkpt lat="47.375463154631994" lon="6.878624238426688"><ele>628.0</ele><time>2026-04-06T08:50:07.002Z</time></trkpt><trkpt lat="47.375485363788556" lon="6.878720609490365"><ele>628.0</ele><time>2026-04-06T08:50:15.001Z</time></trkpt><trkpt lat="47.37550181565866" lon="6.8788282236365035"><ele>628.0</ele><time>2026-04-06T08:50:24.001Z</time></trkpt><trkpt lat="47.37552545146964" lon="6.878920915068307"><ele>628.0</ele><time>2026-04-06T08:50:29.001Z</time></trkpt><trkpt lat="47.37555572816126" lon="6.879018539262895"><ele>627.9999999999999</ele><time>2026-04-06T08:50:38.001Z</time></trkpt><trkpt lat="47.37558517211478" lon="6.879104397092623"><ele>628.0</ele><time>2026-04-06T08:50:45.001Z</time></trkpt><trkpt lat="47.375614834957126" lon="6.879188169048265"><ele>629.4285714285713</ele><time>2026-04-06T08:50:53.001Z</time></trkpt><trkpt lat="47.37565478932157" lon="6.87926280673662"><ele>630.8571428571429</ele><time>2026-04-06T08:51:00.001Z</time></trkpt><trkpt lat="47.37568796582957" lon="6.879354426151627"><ele>632.2857142857142</ele><time>2026-04-06T08:51:08.001Z</time></trkpt><trkpt lat="47.37571461263985" lon="6.879442831213209"><ele>633.7142857142857</ele><time>2026-04-06T08:51:14.001Z</time></trkpt><trkpt lat="47.375734715677844" lon="6.879534280325157"><ele>635.1428571428571</ele><time>2026-04-06T08:51:20.001Z</time></trkpt><trkpt lat="47.37576014082459" lon="6.879622087855595"><ele>636.5714285714286</ele><time>2026-04-06T08:51:50.002Z</time></trkpt><trkpt lat="47.37578657722283" lon="6.879725540221405"><ele>638.0</ele><time>2026-04-06T08:51:56.002Z</time></trkpt><trkpt lat="47.3758248508384" lon="6.87980577267519"><ele>638.7142857142858</ele><time>2026-04-06T08:52:02.002Z</time></trkpt><trkpt lat="47.37584908389933" lon="6.879895920084058"><ele>639.4285714285713</ele><time>2026-04-06T08:52:10.002Z</time></trkpt><trkpt lat="47.37586803263167" lon="6.879987790670948"><ele>640.1428571428571</ele><time>2026-04-06T08:52:17.002Z</time></trkpt><trkpt lat="47.375901529349555" lon="6.880078624690242"><ele>640.8571428571429</ele><time>2026-04-06T08:52:26.002Z</time></trkpt><trkpt lat="47.37591513723331" lon="6.880173528672071"><ele>641.5714285714287</ele><time>2026-04-06T08:52:33.002Z</time></trkpt><trkpt lat="47.37593051891099" lon="6.8802701088824145"><ele>642.2857142857142</ele><time>2026-04-06T08:53:11.002Z</time></trkpt><trkpt lat="47.37593798300004" lon="6.880369701128292"><ele>643.0</ele><time>2026-04-06T08:53:16.002Z</time></trkpt><trkpt lat="47.37593325004357" lon="6.880466771167264"><ele>643.2857142857142</ele><time>2026-04-06T08:53:22.002Z</time></trkpt><trkpt lat="47.37593434074221" lon="6.8805666099227185"><ele>643.5714285714287</ele><time>2026-04-06T08:53:30.002Z</time></trkpt><trkpt lat="47.37594610146873" lon="6.88066006734232"><ele>643.8571428571429</ele><time>2026-04-06T08:53:37.002Z</time></trkpt><trkpt lat="47.37598636607016" lon="6.880748430118159"><ele>644.1428571428571</ele><time>2026-04-06T08:53:42.002Z</time></trkpt><trkpt lat="47.37601294773596" lon="6.8808510229793995"><ele>644.4285714285713</ele><time>2026-04-06T08:53:47.002Z</time></trkpt><trkpt lat="47.37604470972601" lon="6.880945784265445"><ele>644.7142857142858</ele><time>2026-04-06T08:53:52.002Z</time></trkpt><trkpt lat="47.376072448459965" lon="6.881047179939"><ele>645.0</ele><time>2026-04-06T08:53:58.002Z</time></trkpt><trkpt lat="47.37609614290524" lon="6.881138950737651"><ele>645.1428571428572</ele><time>2026-04-06T08:54:06.002Z</time></trkpt><trkpt lat="47.37610985935627" lon="6.881236142957363"><ele>645.2857142857142</ele><time>2026-04-06T08:54:12.002Z</time></trkpt><trkpt lat="47.37612640908788" lon="6.881331862447766"><ele>645.4285714285714</ele><time>2026-04-06T08:54:19.002Z</time></trkpt><trkpt lat="47.376143097261135" lon="6.881431529737113"><ele>645.5714285714287</ele><time>2026-04-06T08:54:26.002Z</time></trkpt><trkpt lat="47.376166018648945" lon="6.881522842783296"><ele>645.7142857142858</ele><time>2026-04-06T08:54:32.003Z</time></trkpt><trkpt lat="47.37619240359171" lon="6.8816151964396886"><ele>645.8571428571429</ele><time>2026-04-06T08:54:37.003Z</time></trkpt><trkpt lat="47.37621579085" lon="6.881708431228508"><ele>646.0</ele><time>2026-04-06T08:54:44.003Z</time></trkpt><trkpt lat="47.3762583339786" lon="6.881783755370257"><ele>646.0000000000001</ele><time>2026-04-06T08:54:50.003Z</time></trkpt><trkpt lat="47.376285355450776" lon="6.881868870160759"><ele>646.0</ele><time>2026-04-06T08:54:55.003Z</time></trkpt><trkpt lat="47.376309115394584" lon="6.881965047486144"><ele>646.0</ele><time>2026-04-06T08:55:01.003Z</time></trkpt><trkpt lat="47.37634484585664" lon="6.882045130162681"><ele>646.0</ele><time>2026-04-06T08:55:06.003Z</time></trkpt><trkpt lat="47.37636894717012" lon="6.8821356471680035"><ele>646.0</ele><time>2026-04-06T08:55:12.003Z</time></trkpt><trkpt lat="47.37639079954478" lon="6.882224119188529"><ele>646.0000000000001</ele><time>2026-04-06T08:55:17.003Z</time></trkpt><trkpt lat="47.37641362545672" lon="6.882326282391403"><ele>646.0</ele><time>2026-04-06T08:55:24.003Z</time></trkpt><trkpt lat="47.376453507313336" lon="6.882400011125687"><ele>647.8571428571429</ele><time>2026-04-06T08:55:31.003Z</time></trkpt><trkpt lat="47.376493957512096" lon="6.882481727256097"><ele>649.7142857142858</ele><time>2026-04-06T08:55:38.003Z</time></trkpt><trkpt lat="47.37653148196254" lon="6.8825649541108245"><ele>651.5714285714287</ele><time>2026-04-06T08:55:43.003Z</time></trkpt><trkpt lat="47.37656911152314" lon="6.882652233329207"><ele>653.4285714285714</ele><time>2026-04-06T08:55:50.003Z</time></trkpt><trkpt lat="47.37659732207588" lon="6.8827366072835705"><ele>655.2857142857142</ele><time>2026-04-06T08:56:14.004Z</time></trkpt><trkpt lat="47.3766113299419" lon="6.8828354088534285"><ele>657.1428571428572</ele><time>2026-04-06T08:56:20.004Z</time></trkpt><trkpt lat="47.37662975851954" lon="6.882932477607508"><ele>659.0</ele><time>2026-04-06T08:56:26.004Z</time></trkpt><trkpt lat="47.37665348280113" lon="6.883021237996058"><ele>659.2857142857143</ele><time>2026-04-06T08:56:31.004Z</time></trkpt><trkpt lat="47.37668955057368" lon="6.883115295523793"><ele>659.5714285714286</ele><time>2026-04-06T08:56:39.004Z</time></trkpt><trkpt lat="47.3767190759492" lon="6.883205466616179"><ele>659.8571428571429</ele><time>2026-04-06T08:56:45.003Z</time></trkpt><trkpt lat="47.37676161352865" lon="6.883293480125536"><ele>660.1428571428571</ele><time>2026-04-06T08:56:51.002Z</time></trkpt><trkpt lat="47.376787624211346" lon="6.883379859159184"><ele>660.4285714285714</ele><time>2026-04-06T08:56:57.001Z</time></trkpt><trkpt lat="47.37680352693749" lon="6.88347152724434"><ele>660.7142857142857</ele><time>2026-04-06T08:57:03.001Z</time></trkpt><trkpt lat="47.37685131331421" lon="6.883547487610594"><ele>661.0</ele><time>2026-04-06T08:57:09.001Z</time></trkpt><trkpt lat="47.37690651317993" lon="6.8836197611812295"><ele>661.4285714285714</ele><time>2026-04-06T08:57:14Z</time></trkpt><trkpt lat="47.376948571999115" lon="6.8837074147478985"><ele>661.8571428571429</ele><time>2026-04-06T08:57:21Z</time></trkpt><trkpt lat="47.37699299974673" lon="6.88378053045047"><ele>662.2857142857142</ele><time>2026-04-06T08:57:27Z</time></trkpt><trkpt lat="47.37704509397982" lon="6.883848187736949"><ele>662.7142857142858</ele><time>2026-04-06T08:57:33Z</time></trkpt><trkpt lat="47.377079414574006" lon="6.88393994637076"><ele>663.1428571428572</ele><time>2026-04-06T08:57:39Z</time></trkpt><trkpt lat="47.37713712084921" lon="6.884008181192923"><ele>663.5714285714286</ele><time>2026-04-06T08:57:47Z</time></trkpt><trkpt lat="47.377192224503275" lon="6.884071486316121"><ele>664.0</ele><time>2026-04-06T08:57:53Z</time></trkpt><trkpt lat="47.37724890812883" lon="6.884137429921864"><ele>665.0</ele><time>2026-04-06T08:57:59Z</time></trkpt><trkpt lat="47.377300361349896" lon="6.884209521905342"><ele>666.0</ele><time>2026-04-06T08:58:05Z</time></trkpt><trkpt lat="47.37735404466494" lon="6.884280975864043"><ele>667.0</ele><time>2026-04-06T08:58:10Z</time></trkpt><trkpt lat="47.37740998278356" lon="6.88434754968027"><ele>668.0</ele><time>2026-04-06T08:58:18.001Z</time></trkpt><trkpt lat="47.37746060654887" lon="6.88441821027699"><ele>669.0</ele><time>2026-04-06T08:58:25.001Z</time></trkpt><trkpt lat="47.37751940783567" lon="6.884460671830016"><ele>670.0</ele><time>2026-04-06T08:58:30.001Z</time></trkpt><trkpt lat="47.37757943349427" lon="6.884509734313644"><ele>671.0</ele><time>2026-04-06T08:58:38.001Z</time></trkpt><trkpt lat="47.37762463044243" lon="6.884585835683447"><ele>671.5714285714286</ele><time>2026-04-06T08:58:45.001Z</time></trkpt><trkpt lat="47.37766417882255" lon="6.884661018214867"><ele>672.1428571428572</ele><time>2026-04-06T08:58:52.001Z</time></trkpt><trkpt lat="47.37771650709125" lon="6.884727524080252"><ele>672.7142857142858</ele><time>2026-04-06T08:58:58.001Z</time></trkpt><trkpt lat="47.37777292991017" lon="6.88478232713002"><ele>673.2857142857142</ele><time>2026-04-06T08:59:04.001Z</time></trkpt><trkpt lat="47.37782190099405" lon="6.884850642737142"><ele>673.8571428571429</ele><time>2026-04-06T08:59:11.001Z</time></trkpt><trkpt lat="47.377874317616396" lon="6.884909384017053"><ele>674.4285714285714</ele><time>2026-04-06T08:59:18.001Z</time></trkpt><trkpt lat="47.37792349521057" lon="6.88497132951046"><ele>675.0</ele><time>2026-04-06T08:59:24.001Z</time></trkpt><trkpt lat="47.3779639100965" lon="6.885047785640596"><ele>675.2857142857142</ele><time>2026-04-06T08:59:30.001Z</time></trkpt><trkpt lat="47.37798892439549" lon="6.885140748470637"><ele>675.5714285714286</ele><time>2026-04-06T08:59:36.001Z</time></trkpt><trkpt lat="47.37805302899408" lon="6.885192449795817"><ele>675.8571428571429</ele><time>2026-04-06T08:59:43.001Z</time></trkpt><trkpt lat="47.37810046203118" lon="6.88526224485128"><ele>676.1428571428571</ele><time>2026-04-06T08:59:48.001Z</time></trkpt><trkpt lat="47.378144739922085" lon="6.885337559155556"><ele>676.4285714285714</ele><time>2026-04-06T08:59:54.001Z</time></trkpt><trkpt lat="47.3781860828979" lon="6.885428975572597"><ele>676.7142857142857</ele><time>2026-04-06T09:00:00.002Z</time></trkpt><trkpt lat="47.37823903893923" lon="6.885493902374829"><ele>677.0</ele><time>2026-04-06T09:00:07.002Z</time></trkpt><trkpt lat="47.37828075008862" lon="6.885565363104126"><ele>677.1428571428571</ele><time>2026-04-06T09:00:14.002Z</time></trkpt><trkpt lat="47.37833278037823" lon="6.885625276203428"><ele>677.2857142857142</ele><time>2026-04-06T09:00:20.002Z</time></trkpt><trkpt lat="47.378389286996814" lon="6.8856930769988285"><ele>677.4285714285713</ele><time>2026-04-06T09:00:26.002Z</time></trkpt><trkpt lat="47.3784334078816" lon="6.885778794976535"><ele>677.5714285714286</ele><time>2026-04-06T09:00:32.002Z</time></trkpt><trkpt lat="47.378472093560376" lon="6.885861374421059"><ele>677.7142857142858</ele><time>2026-04-06T09:00:38.002Z</time></trkpt><trkpt lat="47.3785061924778" lon="6.885952170854327"><ele>677.8571428571428</ele><time>2026-04-06T09:00:45.002Z</time></trkpt><trkpt lat="47.378541398448135" lon="6.88603267769563"><ele>678.0</ele><time>2026-04-06T09:00:57.002Z</time></trkpt><trkpt lat="47.37856222173751" lon="6.886127163993803"><ele>678.2857142857142</ele><time>2026-04-06T09:01:02.002Z</time></trkpt><trkpt lat="47.37860680490616" lon="6.886193780869667"><ele>678.5714285714287</ele><time>2026-04-06T09:01:07.002Z</time></trkpt><trkpt lat="47.37864866264163" lon="6.886273179282041"><ele>678.8571428571429</ele><time>2026-04-06T09:01:12.002Z</time></trkpt><trkpt lat="47.37868747944869" lon="6.886362515371992"><ele>679.1428571428571</ele><time>2026-04-06T09:01:19.002Z</time></trkpt><trkpt lat="47.37871150487955" lon="6.886451878215243"><ele>679.4285714285713</ele><time>2026-04-06T09:01:25.002Z</time></trkpt><trkpt lat="47.37874250056071" lon="6.8865334624650885"><ele>679.7142857142858</ele><time>2026-04-06T09:01:31.002Z</time></trkpt><trkpt lat="47.378771634663885" lon="6.886616359115676"><ele>680.0</ele><time>2026-04-06T09:01:36.003Z</time></trkpt><trkpt lat="47.37879378449175" lon="6.886707061862226"><ele>680.4285714285714</ele><time>2026-04-06T09:01:42.003Z</time></trkpt><trkpt lat="47.378810543610385" lon="6.886797088184481"><ele>680.8571428571428</ele><time>2026-04-06T09:01:48.003Z</time></trkpt><trkpt lat="47.378822591611524" lon="6.88689570060509"><ele>681.2857142857142</ele><time>2026-04-06T09:01:54.003Z</time></trkpt><trkpt lat="47.37886127787369" lon="6.886979841261773"><ele>681.7142857142858</ele><time>2026-04-06T09:02:00.003Z</time></trkpt><trkpt lat="47.37889296459" lon="6.887064614077652"><ele>682.1428571428571</ele><time>2026-04-06T09:02:06.003Z</time></trkpt><trkpt lat="47.3789115537452" lon="6.887156316505457"><ele>682.5714285714286</ele><time>2026-04-06T09:02:12.003Z</time></trkpt><trkpt lat="47.37894460747724" lon="6.887248088685242"><ele>683.0</ele><time>2026-04-06T09:02:18.003Z</time></trkpt><trkpt lat="47.378981966412475" lon="6.887336101394292"><ele>683.0</ele><time>2026-04-06T09:02:24.003Z</time></trkpt><trkpt lat="47.37899706854778" lon="6.887429831941693"><ele>683.0</ele><time>2026-04-06T09:02:31.003Z</time></trkpt><trkpt lat="47.379001234238245" lon="6.887534508232154"><ele>683.0</ele><time>2026-04-06T09:02:37.003Z</time></trkpt><trkpt lat="47.37900686177158" lon="6.887629438395319"><ele>683.0</ele><time>2026-04-06T09:02:42.003Z</time></trkpt><trkpt lat="47.37902360037916" lon="6.887726060496206"><ele>683.0</ele><time>2026-04-06T09:02:48.003Z</time></trkpt><trkpt lat="47.37906364854997" lon="6.887811667327947"><ele>683.0</ele><time>2026-04-06T09:02:54.003Z</time></trkpt><trkpt lat="47.379074728897834" lon="6.887904862359467"><ele>683.0</ele><time>2026-04-06T09:03:00.003Z</time></trkpt><trkpt lat="47.37908289272214" lon="6.88800103267581"><ele>683.2857142857143</ele><time>2026-04-06T09:03:06.003Z</time></trkpt><trkpt lat="47.379089885263326" lon="6.8880960450663276"><ele>683.5714285714286</ele><time>2026-04-06T09:03:11.003Z</time></trkpt><trkpt lat="47.379102934221216" lon="6.888204432077851"><ele>683.8571428571429</ele><time>2026-04-06T09:03:17.004Z</time></trkpt><trkpt lat="47.37913253706362" lon="6.888289754389844"><ele>684.1428571428571</ele><time>2026-04-06T09:03:22.004Z</time></trkpt><trkpt lat="47.379147423175425" lon="6.888392228994081"><ele>684.4285714285714</ele><time>2026-04-06T09:03:28.004Z</time></trkpt><trkpt lat="47.37916964700879" lon="6.888484515308559"><ele>684.7142857142857</ele><time>2026-04-06T09:03:34.004Z</time></trkpt><trkpt lat="47.379192181716924" lon="6.888595715659229"><ele>685.0</ele><time>2026-04-06T09:03:41.004Z</time></trkpt><trkpt lat="47.37921083682251" lon="6.888693705755051"><ele>685.2857142857142</ele><time>2026-04-06T09:03:47.004Z</time></trkpt><trkpt lat="47.379236661550095" lon="6.888797553793965"><ele>685.5714285714287</ele><time>2026-04-06T09:03:53.003Z</time></trkpt><trkpt lat="47.37926288147995" lon="6.888893565117754"><ele>685.8571428571429</ele><time>2026-04-06T09:04:01.002Z</time></trkpt><trkpt lat="47.37929246258198" lon="6.888979008395046"><ele>686.1428571428571</ele><time>2026-04-06T09:04:07.001Z</time></trkpt><trkpt lat="47.37931887583965" lon="6.889076630158778"><ele>686.4285714285713</ele><time>2026-04-06T09:04:12.001Z</time></trkpt><trkpt lat="47.379353211437106" lon="6.88916753559844"><ele>686.7142857142858</ele><time>2026-04-06T09:04:17.001Z</time></trkpt><trkpt lat="47.3793769086346" lon="6.889258190622815"><ele>687.0</ele><time>2026-04-06T09:04:23.001Z</time></trkpt><trkpt lat="47.37941232510538" lon="6.889339756160317"><ele>687.2857142857143</ele><time>2026-04-06T09:04:29.001Z</time></trkpt><trkpt lat="47.37946227993661" lon="6.889409899883144"><ele>687.5714285714286</ele><time>2026-04-06T09:04:34.001Z</time></trkpt><trkpt lat="47.37949862409492" lon="6.889499404680284"><ele>687.8571428571429</ele><time>2026-04-06T09:04:39.001Z</time></trkpt><trkpt lat="47.37953162703006" lon="6.8895850689423535"><ele>688.1428571428571</ele><time>2026-04-06T09:04:45.001Z</time></trkpt><trkpt lat="47.379574634513084" lon="6.889669947023213"><ele>688.4285714285714</ele><time>2026-04-06T09:04:52.001Z</time></trkpt><trkpt lat="47.379609625166836" lon="6.889752905167157"><ele>688.7142857142857</ele><time>2026-04-06T09:04:57.001Z</time></trkpt><trkpt lat="47.37965123787602" lon="6.889834246579559"><ele>689.0</ele><time>2026-04-06T09:05:03.001Z</time></trkpt><trkpt lat="47.37969872966525" lon="6.889911760015527"><ele>688.4285714285714</ele><time>2026-04-06T09:05:09.001Z</time></trkpt><trkpt lat="47.37973806256673" lon="6.889993048438819"><ele>687.8571428571429</ele><time>2026-04-06T09:05:15.001Z</time></trkpt><trkpt lat="47.379776425129286" lon="6.890094285463604"><ele>687.2857142857142</ele><time>2026-04-06T09:05:21.001Z</time></trkpt><trkpt lat="47.37983279343857" lon="6.890171014588114"><ele>686.7142857142858</ele><time>2026-04-06T09:05:27.001Z</time></trkpt><trkpt lat="47.37987342498776" lon="6.890248481210091"><ele>686.1428571428572</ele><time>2026-04-06T09:05:32.001Z</time></trkpt><trkpt lat="47.37989467981623" lon="6.8903426080056525"><ele>685.5714285714286</ele><time>2026-04-06T09:05:38.001Z</time></trkpt><trkpt lat="47.37993506363351" lon="6.890429730322656"><ele>685.0</ele><time>2026-04-06T09:05:44.001Z</time></trkpt><trkpt lat="47.37998825191463" lon="6.890499922282751"><ele>685.0</ele><time>2026-04-06T09:05:50.001Z</time></trkpt><trkpt lat="47.380054002618905" lon="6.8905425591766285"><ele>685.0</ele><time>2026-04-06T09:05:59.001Z</time></trkpt><trkpt lat="47.380119609715635" lon="6.890572048540889"><ele>685.0</ele><time>2026-04-06T09:06:05.001Z</time></trkpt><trkpt lat="47.3801839744847" lon="6.890619199861537"><ele>685.0</ele><time>2026-04-06T09:06:11.001Z</time></trkpt><trkpt lat="47.38023302973165" lon="6.890703314195856"><ele>685.0</ele><time>2026-04-06T09:06:18.001Z</time></trkpt><trkpt lat="47.38026177827768" lon="6.890787280355423"><ele>685.0</ele><time>2026-04-06T09:06:23.001Z</time></trkpt><trkpt lat="47.380301355840515" lon="6.890866216002992"><ele>685.0</ele><time>2026-04-06T09:06:29.001Z</time></trkpt><trkpt lat="47.38034634461744" lon="6.890935450837817"><ele>685.2857142857142</ele><time>2026-04-06T09:06:35.001Z</time></trkpt><trkpt lat="47.38037562421764" lon="6.891039279050163"><ele>685.5714285714287</ele><time>2026-04-06T09:06:41.002Z</time></trkpt><trkpt lat="47.380418752864756" lon="6.891113312370167"><ele>685.8571428571429</ele><time>2026-04-06T09:06:46.002Z</time></trkpt><trkpt lat="47.38046685719596" lon="6.891196463878801"><ele>686.1428571428571</ele><time>2026-04-06T09:06:52.002Z</time></trkpt><trkpt lat="47.38050381166489" lon="6.891286006529457"><ele>686.4285714285713</ele><time>2026-04-06T09:06:58.002Z</time></trkpt><trkpt lat="47.38053021863614" lon="6.891377576570098"><ele>686.7142857142858</ele><time>2026-04-06T09:07:04.002Z</time></trkpt><trkpt lat="47.38056093417871" lon="6.891465507124133"><ele>687.0</ele><time>2026-04-06T09:07:10.002Z</time></trkpt><trkpt lat="47.380588539708896" lon="6.8915591499574305"><ele>686.4285714285714</ele><time>2026-04-06T09:07:16.002Z</time></trkpt><trkpt lat="47.380614392161576" lon="6.891655675034769"><ele>685.8571428571428</ele><time>2026-04-06T09:07:22.002Z</time></trkpt><trkpt lat="47.380647814228574" lon="6.891737709493301"><ele>685.2857142857142</ele><time>2026-04-06T09:07:27.002Z</time></trkpt><trkpt lat="47.38068880651968" lon="6.891816872794296"><ele>684.7142857142858</ele><time>2026-04-06T09:07:32.002Z</time></trkpt><trkpt lat="47.38069703879507" lon="6.891917999327756"><ele>684.1428571428571</ele><time>2026-04-06T09:07:38.002Z</time></trkpt><trkpt lat="47.38072541208268" lon="6.892008290411689"><ele>683.5714285714286</ele><time>2026-04-06T09:07:44.002Z</time></trkpt><trkpt lat="47.380771624711095" lon="6.892076536228245"><ele>683.0</ele><time>2026-04-06T09:07:49.002Z</time></trkpt><trkpt lat="47.38081323357501" lon="6.892146599550559"><ele>683.0</ele><time>2026-04-06T09:07:55.002Z</time></trkpt><trkpt lat="47.38085171475704" lon="6.892231827231805"><ele>683.0</ele><time>2026-04-06T09:08:01.002Z</time></trkpt><trkpt lat="47.38088325663157" lon="6.8923204782069964"><ele>683.0</ele><time>2026-04-06T09:08:07.002Z</time></trkpt><trkpt lat="47.38091197827832" lon="6.892414979254986"><ele>683.0</ele><time>2026-04-06T09:08:13.002Z</time></trkpt><trkpt lat="47.38094585632056" lon="6.892505163548359"><ele>683.0</ele><time>2026-04-06T09:08:21.003Z</time></trkpt><trkpt lat="47.38097005280618" lon="6.892600462624804"><ele>683.0</ele><time>2026-04-06T09:08:27.003Z</time></trkpt><trkpt lat="47.38099794606826" lon="6.892686566940393"><ele>683.0</ele><time>2026-04-06T09:08:35.003Z</time></trkpt><trkpt lat="47.38107041432605" lon="6.892681624699829"><ele>683.1428571428571</ele><time>2026-04-06T09:08:43.003Z</time></trkpt><trkpt lat="47.38113727832817" lon="6.892713132898462"><ele>683.2857142857142</ele><time>2026-04-06T09:08:49.003Z</time></trkpt><trkpt lat="47.38120572593575" lon="6.89267640554777"><ele>683.4285714285713</ele><time>2026-04-06T09:09:43.003Z</time></trkpt><trkpt lat="47.381272444893874" lon="6.8926708287069625"><ele>683.5714285714286</ele><time>2026-04-06T09:09:50.003Z</time></trkpt><trkpt lat="47.3812445924591" lon="6.892765420549679"><ele>683.7142857142857</ele><time>2026-04-06T09:13:15Z</time></trkpt><trkpt lat="47.381189536249494" lon="6.89283531045199"><ele>683.8571428571428</ele><time>2026-04-06T09:13:25.001Z</time></trkpt><trkpt lat="47.381131867164136" lon="6.892885903860833"><ele>684.0</ele><time>2026-04-06T09:13:31.001Z</time></trkpt><trkpt lat="47.38111947853319" lon="6.892980085109365"><ele>683.9999999999999</ele><time>2026-04-06T09:13:39.001Z</time></trkpt><trkpt lat="47.38113616315764" lon="6.893074562591288"><ele>684.0</ele><time>2026-04-06T09:13:45.001Z</time></trkpt><trkpt lat="47.3811461151616" lon="6.893168884364137"><ele>684.0</ele><time>2026-04-06T09:13:51.001Z</time></trkpt><trkpt lat="47.38117753428731" lon="6.893269046906159"><ele>684.0</ele><time>2026-04-06T09:13:56.001Z</time></trkpt><trkpt lat="47.38120861370736" lon="6.8933688107331665"><ele>684.0</ele><time>2026-04-06T09:14:03.001Z</time></trkpt><trkpt lat="47.38124067568326" lon="6.893457309583062"><ele>683.9999999999999</ele><time>2026-04-06T09:14:09.001Z</time></trkpt><trkpt lat="47.38129247622201" lon="6.89353510436315"><ele>684.0</ele><time>2026-04-06T09:14:16.001Z</time></trkpt><trkpt lat="47.38134649265522" lon="6.893600464527496"><ele>683.1428571428571</ele><time>2026-04-06T09:14:21.001Z</time></trkpt><trkpt lat="47.38140160367837" lon="6.893669584242913"><ele>682.2857142857142</ele><time>2026-04-06T09:14:26.001Z</time></trkpt><trkpt lat="47.38143265617248" lon="6.893755791545405"><ele>681.4285714285713</ele><time>2026-04-06T09:14:33.001Z</time></trkpt><trkpt lat="47.38146028699127" lon="6.893854415551033"><ele>680.5714285714286</ele><time>2026-04-06T09:14:40.001Z</time></trkpt><trkpt lat="47.38147757105375" lon="6.893947158027421"><ele>679.7142857142858</ele><time>2026-04-06T09:14:46.001Z</time></trkpt><trkpt lat="47.38147475881017" lon="6.8940426023157215"><ele>678.8571428571428</ele><time>2026-04-06T09:14:51.001Z</time></trkpt><trkpt lat="47.38149043540343" lon="6.894147737873616"><ele>678.0</ele><time>2026-04-06T09:14:57.001Z</time></trkpt><trkpt lat="47.381510440589395" lon="6.894244760656356"><ele>678.4285714285714</ele><time>2026-04-06T09:15:02.001Z</time></trkpt><trkpt lat="47.381539220088" lon="6.894334830122545"><ele>678.8571428571429</ele><time>2026-04-06T09:15:08.001Z</time></trkpt><trkpt lat="47.38156717603148" lon="6.894430089027143"><ele>679.2857142857143</ele><time>2026-04-06T09:15:14.001Z</time></trkpt><trkpt lat="47.38157894516299" lon="6.894526371287113"><ele>679.7142857142858</ele><time>2026-04-06T09:15:19.002Z</time></trkpt><trkpt lat="47.38159793245237" lon="6.894621908781265"><ele>680.1428571428571</ele><time>2026-04-06T09:15:25.002Z</time></trkpt><trkpt lat="47.38160363375923" lon="6.894720874444368"><ele>680.5714285714287</ele><time>2026-04-06T09:15:31.002Z</time></trkpt><trkpt lat="47.38162320029398" lon="6.89482047128536"><ele>681.0</ele><time>2026-04-06T09:15:36.002Z</time></trkpt><trkpt lat="47.38165564096435" lon="6.894904994060268"><ele>681.0000000000001</ele><time>2026-04-06T09:15:42.002Z</time></trkpt><trkpt lat="47.38167381539577" lon="6.895017526377375"><ele>681.0</ele><time>2026-04-06T09:15:57.002Z</time></trkpt><trkpt lat="47.38169757322638" lon="6.895122207472263"><ele>681.0</ele><time>2026-04-06T09:16:28.002Z</time></trkpt><trkpt lat="47.38174727408057" lon="6.895189438950222"><ele>681.0</ele><time>2026-04-06T09:17:44.003Z</time></trkpt><trkpt lat="47.38177493755981" lon="6.895281309827701"><ele>681.0</ele><time>2026-04-06T09:17:50.003Z</time></trkpt><trkpt lat="47.381791346523215" lon="6.8953819060760315"><ele>681.0000000000001</ele><time>2026-04-06T09:17:55.003Z</time></trkpt><trkpt lat="47.381817077767536" lon="6.89546969720865"><ele>681.0</ele><time>2026-04-06T09:18:01.003Z</time></trkpt><trkpt lat="47.38184033278422" lon="6.895558048785284"><ele>681.1666666666666</ele><time>2026-04-06T09:18:09.002Z</time></trkpt><trkpt lat="47.38185898478363" lon="6.89565419976261"><ele>681.3333333333334</ele><time>2026-04-06T09:18:15.001Z</time></trkpt><trkpt lat="47.38187237050878" lon="6.895747047974371"><ele>681.5</ele><time>2026-04-06T09:18:24Z</time></trkpt><trkpt lat="47.381909342161194" lon="6.895830859626634"><ele>681.6666666666667</ele><time>2026-04-06T09:18:48Z</time></trkpt><trkpt lat="47.3819532632435" lon="6.895905687688025"><ele>681.8333333333334</ele><time>2026-04-06T09:18:53Z</time></trkpt><trkpt lat="47.38202322249417" lon="6.896067084215241"><ele>682.0</ele><time>2026-04-06T09:19:14Z</time></trkpt><trkpt lat="47.38206977834016" lon="6.896147093843855"><ele>682.0</ele><time>2026-04-06T09:19:19Z</time></trkpt><trkpt lat="47.38210856066435" lon="6.8962288880396665"><ele>682.0</ele><time>2026-04-06T09:19:23Z</time></trkpt><trkpt lat="47.38214176338101" lon="6.896328090744648"><ele>682.0</ele><time>2026-04-06T09:19:29Z</time></trkpt><trkpt lat="47.38216687462586" lon="6.896423938468186"><ele>682.0</ele><time>2026-04-06T09:19:35Z</time></trkpt><trkpt lat="47.38220426133121" lon="6.896512955725774"><ele>682.0</ele><time>2026-04-06T09:19:42Z</time></trkpt><trkpt lat="47.38221479163382" lon="6.896617945725818"><ele>682.0</ele><time>2026-04-06T09:19:49Z</time></trkpt><trkpt lat="47.38223565756574" lon="6.896710158873971"><ele>682.0</ele><time>2026-04-06T09:19:56Z</time></trkpt><trkpt lat="47.38225107935437" lon="6.896803035994487"><ele>680.7142857142857</ele><time>2026-04-06T09:20:03.001Z</time></trkpt><trkpt lat="47.382267839000534" lon="6.896895801007727"><ele>679.4285714285714</ele><time>2026-04-06T09:20:14.001Z</time></trkpt><trkpt lat="47.38226962517424" lon="6.896990738984901"><ele>678.1428571428571</ele><time>2026-04-06T09:20:20.001Z</time></trkpt><trkpt lat="47.38228348332304" lon="6.897091771531876"><ele>676.8571428571429</ele><time>2026-04-06T09:20:28.001Z</time></trkpt><trkpt lat="47.382303434402274" lon="6.897186061671547"><ele>675.5714285714286</ele><time>2026-04-06T09:20:35.001Z</time></trkpt><trkpt lat="47.38229477688237" lon="6.8972849615257905"><ele>674.2857142857143</ele><time>2026-04-06T09:20:40.001Z</time></trkpt><trkpt lat="47.382310554489194" lon="6.897382258109412"><ele>673.0</ele><time>2026-04-06T09:20:53.001Z</time></trkpt><trkpt lat="47.38229552057351" lon="6.897489370244603"><ele>673.0</ele><time>2026-04-06T09:21:00.001Z</time></trkpt><trkpt lat="47.382337145622415" lon="6.897561295314106"><ele>673.0</ele><time>2026-04-06T09:21:14.001Z</time></trkpt><trkpt lat="47.38235600143461" lon="6.89765232905191"><ele>673.0</ele><time>2026-04-06T09:21:35.001Z</time></trkpt><trkpt lat="47.38235980079739" lon="6.897746323822341"><ele>673.0</ele><time>2026-04-06T09:21:42.001Z</time></trkpt><trkpt lat="47.382369384468795" lon="6.89783972237645"><ele>673.0</ele><time>2026-04-06T09:21:46.001Z</time></trkpt><trkpt lat="47.382344095244115" lon="6.897943937853081"><ele>673.0</ele><time>2026-04-06T09:21:51.001Z</time></trkpt><trkpt lat="47.38233465060771" lon="6.898040089177848"><ele>673.0</ele><time>2026-04-06T09:21:59.002Z</time></trkpt><trkpt lat="47.382332169301414" lon="6.898144704232492"><ele>672.8571428571429</ele><time>2026-04-06T09:22:08.002Z</time></trkpt><trkpt lat="47.382355586416395" lon="6.898236416059721"><ele>672.7142857142857</ele><time>2026-04-06T09:22:14.002Z</time></trkpt><trkpt lat="47.38235519767632" lon="6.898336628036385"><ele>672.5714285714286</ele><time>2026-04-06T09:22:18.002Z</time></trkpt><trkpt lat="47.382352488241494" lon="6.898442543835438"><ele>672.4285714285714</ele><time>2026-04-06T09:22:23.002Z</time></trkpt><trkpt lat="47.382334596336285" lon="6.898542934949289"><ele>672.2857142857142</ele><time>2026-04-06T09:22:28.002Z</time></trkpt><trkpt lat="47.38233006803547" lon="6.89863813098957"><ele>672.1428571428571</ele><time>2026-04-06T09:22:31.002Z</time></trkpt><trkpt lat="47.38233408071527" lon="6.898741004734712"><ele>672.0</ele><time>2026-04-06T09:22:36.002Z</time></trkpt><trkpt lat="47.3823157529082" lon="6.8988450661073415"><ele>671.7142857142857</ele><time>2026-04-06T09:22:43.002Z</time></trkpt><trkpt lat="47.382302232692425" lon="6.89893816915307"><ele>671.4285714285714</ele><time>2026-04-06T09:22:48.002Z</time></trkpt><trkpt lat="47.38229215061988" lon="6.899051530146656"><ele>671.1428571428571</ele><time>2026-04-06T09:23:12.002Z</time></trkpt><trkpt lat="47.3823009312163" lon="6.899146338650207"><ele>670.8571428571429</ele><time>2026-04-06T09:23:17.002Z</time></trkpt><trkpt lat="47.38230243297378" lon="6.899243588419308"><ele>670.5714285714286</ele><time>2026-04-06T09:23:22.002Z</time></trkpt><trkpt lat="47.382295327472846" lon="6.899350539310794"><ele>670.2857142857142</ele><time>2026-04-06T09:23:29.002Z</time></trkpt><trkpt lat="47.38227634154846" lon="6.899453297553763"><ele>670.0</ele><time>2026-04-06T09:23:36.002Z</time></trkpt><trkpt lat="47.38228004654897" lon="6.899548881941706"><ele>669.9999999999999</ele><time>2026-04-06T09:23:41.002Z</time></trkpt><trkpt lat="47.38229166315642" lon="6.899645471047343"><ele>670.0</ele><time>2026-04-06T09:23:47.002Z</time></trkpt><trkpt lat="47.38230570518201" lon="6.899741732911761"><ele>670.0</ele><time>2026-04-06T09:23:53.003Z</time></trkpt><trkpt lat="47.38232740509149" lon="6.899841061311484"><ele>670.0</ele><time>2026-04-06T09:23:59.003Z</time></trkpt><trkpt lat="47.3823440921828" lon="6.899936010086593"><ele>670.0</ele><time>2026-04-06T09:24:05.003Z</time></trkpt><trkpt lat="47.38235809322504" lon="6.900031896708038"><ele>669.9999999999999</ele><time>2026-04-06T09:24:14.003Z</time></trkpt><trkpt lat="47.38234366390608" lon="6.900126397870259"><ele>670.0</ele><time>2026-04-06T09:24:20.003Z</time></trkpt><trkpt lat="47.382355722751434" lon="6.900219554442664"><ele>669.8571428571428</ele><time>2026-04-06T09:24:25.003Z</time></trkpt><trkpt lat="47.38236293034178" lon="6.900313265417463"><ele>669.7142857142857</ele><time>2026-04-06T09:24:31.003Z</time></trkpt><trkpt lat="47.382348344986326" lon="6.900413403446709"><ele>669.5714285714286</ele><time>2026-04-06T09:24:38.003Z</time></trkpt><trkpt lat="47.38234155558151" lon="6.900514356417466"><ele>669.4285714285713</ele><time>2026-04-06T09:24:44.003Z</time></trkpt><trkpt lat="47.38234719722896" lon="6.900608689398941"><ele>669.2857142857142</ele><time>2026-04-06T09:25:00.003Z</time></trkpt><trkpt lat="47.38233985194784" lon="6.900714719594606"><ele>669.1428571428571</ele><time>2026-04-06T09:25:10.003Z</time></trkpt><trkpt lat="47.38238324417117" lon="6.900792168649524"><ele>669.0</ele><time>2026-04-06T09:25:16.002Z</time></trkpt><trkpt lat="47.3823979277063" lon="6.900897393154998"><ele>669.2857142857143</ele><time>2026-04-06T09:25:21.001Z</time></trkpt><trkpt lat="47.38240518159795" lon="6.900991928533281"><ele>669.5714285714286</ele><time>2026-04-06T09:25:26.001Z</time></trkpt><trkpt lat="47.382385846560275" lon="6.901088354947957"><ele>669.8571428571429</ele><time>2026-04-06T09:25:32.001Z</time></trkpt><trkpt lat="47.38241120583743" lon="6.901183393784537"><ele>670.1428571428571</ele><time>2026-04-06T09:25:38.001Z</time></trkpt><trkpt lat="47.38243120439092" lon="6.901277798280295"><ele>670.4285714285714</ele><time>2026-04-06T09:25:51Z</time></trkpt><trkpt lat="47.38243288027319" lon="6.9013766541769686"><ele>670.7142857142857</ele><time>2026-04-06T09:25:59Z</time></trkpt><trkpt lat="47.382444440330765" lon="6.901479392721567"><ele>671.0</ele><time>2026-04-06T09:26:06Z</time></trkpt><trkpt lat="47.382442233348534" lon="6.901590848038963"><ele>671.0</ele><time>2026-04-06T09:26:12Z</time></trkpt><trkpt lat="47.382455204928" lon="6.901685368625415"><ele>671.0</ele><time>2026-04-06T09:26:18.001Z</time></trkpt><trkpt lat="47.38248515921175" lon="6.901788095937009"><ele>671.0</ele><time>2026-04-06T09:26:24.001Z</time></trkpt><trkpt lat="47.38249900627124" lon="6.901885343575447"><ele>671.0</ele><time>2026-04-06T09:26:31.001Z</time></trkpt><trkpt lat="47.38249481477491" lon="6.901978702818578"><ele>671.0</ele><time>2026-04-06T09:26:37.001Z</time></trkpt><trkpt lat="47.38250734062543" lon="6.902069965680137"><ele>671.0</ele><time>2026-04-06T09:26:43.001Z</time></trkpt><trkpt lat="47.38256138000812" lon="6.902177030901777"><ele>671.0</ele><time>2026-04-06T09:27:10.001Z</time></trkpt><trkpt lat="47.382517249571336" lon="6.902243990157915"><ele>670.7142857142857</ele><time>2026-04-06T09:27:27.001Z</time></trkpt><trkpt lat="47.382526547585925" lon="6.902350785620184"><ele>670.4285714285714</ele><time>2026-04-06T09:27:34.001Z</time></trkpt><trkpt lat="47.38253507281509" lon="6.902449011376823"><ele>670.1428571428571</ele><time>2026-04-06T09:27:42.001Z</time></trkpt><trkpt lat="47.38256043678905" lon="6.902545907197576"><ele>669.8571428571429</ele><time>2026-04-06T09:27:50.001Z</time></trkpt><trkpt lat="47.38257857613967" lon="6.902650459518382"><ele>669.5714285714286</ele><time>2026-04-06T09:27:59.001Z</time></trkpt><trkpt lat="47.3825765397847" lon="6.90274747716237"><ele>669.2857142857143</ele><time>2026-04-06T09:28:04.001Z</time></trkpt><trkpt lat="47.38255625551271" lon="6.902850262964747"><ele>669.0</ele><time>2026-04-06T09:28:10.001Z</time></trkpt><trkpt lat="47.38257542273113" lon="6.902940151345151"><ele>668.7142857142858</ele><time>2026-04-06T09:28:24.002Z</time></trkpt><trkpt lat="47.382612460850936" lon="6.903018506692426"><ele>668.4285714285714</ele><time>2026-04-06T09:28:31.002Z</time></trkpt><trkpt lat="47.382611606672576" lon="6.903123413231835"><ele>668.1428571428571</ele><time>2026-04-06T09:28:44.002Z</time></trkpt><trkpt lat="47.3826239595504" lon="6.903233924209429"><ele>667.8571428571429</ele><time>2026-04-06T09:28:54.002Z</time></trkpt><trkpt lat="47.382624680153825" lon="6.903331407384601"><ele>667.5714285714286</ele><time>2026-04-06T09:29:00.002Z</time></trkpt><trkpt lat="47.38262681579764" lon="6.903426995791591"><ele>667.2857142857143</ele><time>2026-04-06T09:29:06.002Z</time></trkpt><trkpt lat="47.38261833101006" lon="6.9035262623300735"><ele>667.0</ele><time>2026-04-06T09:29:13.002Z</time></trkpt><trkpt lat="47.38266527559432" lon="6.903656979685734"><ele>667.0000000000001</ele><time>2026-04-06T09:29:39.002Z</time></trkpt><trkpt lat="47.38265491253556" lon="6.9037585853758054"><ele>667.0</ele><time>2026-04-06T09:29:44.002Z</time></trkpt><trkpt lat="47.382610646553715" lon="6.903857523578301"><ele>667.0</ele><time>2026-04-06T09:30:14.003Z</time></trkpt><trkpt lat="47.38262267474371" lon="6.903964862210461"><ele>667.0</ele><time>2026-04-06T09:30:23.003Z</time></trkpt><trkpt lat="47.38262889975585" lon="6.9040585964605565"><ele>667.0</ele><time>2026-04-06T09:30:29.003Z</time></trkpt><trkpt lat="47.38262226853547" lon="6.904160041947045"><ele>667.0000000000001</ele><time>2026-04-06T09:30:35.003Z</time></trkpt><trkpt lat="47.38263725761601" lon="6.904253663391739"><ele>667.0</ele><time>2026-04-06T09:30:41.003Z</time></trkpt><trkpt lat="47.38262746933325" lon="6.904428581028617"><ele>667.0000000000001</ele><time>2026-04-06T09:31:13.003Z</time></trkpt><trkpt lat="47.382629240173" lon="6.904521653735012"><ele>667.0</ele><time>2026-04-06T09:31:21.003Z</time></trkpt><trkpt lat="47.38262833311547" lon="6.904618730804139"><ele>667.0</ele><time>2026-04-06T09:31:32.003Z</time></trkpt><trkpt lat="47.38262510000067" lon="6.904717620981022"><ele>667.0</ele><time>2026-04-06T09:31:48.003Z</time></trkpt><trkpt lat="47.38260179684499" lon="6.904805146611217"><ele>667.0</ele><time>2026-04-06T09:31:52.003Z</time></trkpt><trkpt lat="47.38258146391459" lon="6.904896891290086"><ele>667.0000000000001</ele><time>2026-04-06T09:32:15.003Z</time></trkpt><trkpt lat="47.38257218674603" lon="6.905016363302604"><ele>667.0</ele><time>2026-04-06T09:32:24.002Z</time></trkpt><trkpt lat="47.38255060388758" lon="6.905117528033894"><ele>667.6666666666667</ele><time>2026-04-06T09:33:05.001Z</time></trkpt><trkpt lat="47.382577886852616" lon="6.905220593998562"><ele>668.3333333333334</ele><time>2026-04-06T09:33:18.001Z</time></trkpt><trkpt lat="47.38259421186368" lon="6.905351828589185"><ele>669.0</ele><time>2026-04-06T09:34:34.001Z</time></trkpt><trkpt lat="47.38265228757611" lon="6.905419007284945"><ele>669.6666666666666</ele><time>2026-04-06T09:35:13.001Z</time></trkpt><trkpt lat="47.38267791790696" lon="6.905504637068814"><ele>670.3333333333333</ele><time>2026-04-06T09:36:00.001Z</time></trkpt><trkpt lat="47.382716354230354" lon="6.9056105081417005"><ele>671.0</ele><time>2026-04-06T09:36:31.002Z</time></trkpt><trkpt lat="47.382777561211505" lon="6.905675088000467"><ele>671.0</ele><time>2026-04-06T09:37:03.002Z</time></trkpt><trkpt lat="47.382853711640806" lon="6.905708554395448"><ele>671.0</ele><time>2026-04-06T09:37:12.002Z</time></trkpt><trkpt lat="47.38291837014673" lon="6.905666010700315"><ele>671.0</ele><time>2026-04-06T09:37:20.002Z</time></trkpt><trkpt lat="47.38297311080718" lon="6.905595474244664"><ele>671.0</ele><time>2026-04-06T09:37:26.002Z</time></trkpt><trkpt lat="47.38302008233987" lon="6.905527685348782"><ele>671.0</ele><time>2026-04-06T09:37:31.002Z</time></trkpt><trkpt lat="47.38305676153691" lon="6.90543765640364"><ele>671.0</ele><time>2026-04-06T09:37:39.002Z</time></trkpt><trkpt lat="47.38311853773393" lon="6.9053860070252755"><ele>671.0</ele><time>2026-04-06T09:37:45.002Z</time></trkpt><trkpt lat="47.383132590882056" lon="6.905286737171119"><ele>668.7142857142857</ele><time>2026-04-06T09:37:58.002Z</time></trkpt><trkpt lat="47.38316413724421" lon="6.9051943099679525"><ele>666.4285714285714</ele><time>2026-04-06T09:38:06.002Z</time></trkpt><trkpt lat="47.38325451044483" lon="6.905229676102576"><ele>664.1428571428571</ele><time>2026-04-06T09:38:18.003Z</time></trkpt><trkpt lat="47.38331690915171" lon="6.905265136078853"><ele>661.8571428571429</ele><time>2026-04-06T09:38:25.003Z</time></trkpt><trkpt lat="47.38337384992625" lon="6.905310492772769"><ele>659.5714285714286</ele><time>2026-04-06T09:38:35.003Z</time></trkpt><trkpt lat="47.38341021635026" lon="6.90539045118479"><ele>657.2857142857143</ele><time>2026-04-06T09:38:40.003Z</time></trkpt><trkpt lat="47.38344667226487" lon="6.90547777249987"><ele>655.0</ele><time>2026-04-06T09:38:47.003Z</time></trkpt><trkpt lat="47.383476828963936" lon="6.905564402305619"><ele>655.0</ele><time>2026-04-06T09:38:53.003Z</time></trkpt><trkpt lat="47.38349679951858" lon="6.9056701112975105"><ele>655.0</ele><time>2026-04-06T09:39:00.003Z</time></trkpt><trkpt lat="47.38352946634255" lon="6.905757200384222"><ele>655.0</ele><time>2026-04-06T09:39:04.003Z</time></trkpt><trkpt lat="47.383566247429705" lon="6.90584253087143"><ele>655.0</ele><time>2026-04-06T09:39:09.003Z</time></trkpt><trkpt lat="47.383583284762615" lon="6.905933905002869"><ele>655.0</ele><time>2026-04-06T09:39:15.004Z</time></trkpt><trkpt lat="47.38358556896651" lon="6.906034903212904"><ele>655.0</ele><time>2026-04-06T09:39:22.002Z</time></trkpt><trkpt lat="47.38364479723093" lon="6.906107443030343"><ele>655.0</ele><time>2026-04-06T09:39:30.001Z</time></trkpt><trkpt lat="47.3836681350317" lon="6.906195624726602"><ele>655.1428571428571</ele><time>2026-04-06T09:39:36.001Z</time></trkpt><trkpt lat="47.38371426734897" lon="6.906271208327604"><ele>655.2857142857142</ele><time>2026-04-06T09:39:44Z</time></trkpt><trkpt lat="47.38375982581533" lon="6.906339750710633"><ele>655.4285714285713</ele><time>2026-04-06T09:39:50Z</time></trkpt><trkpt lat="47.38380160479706" lon="6.90642786929294"><ele>655.5714285714286</ele><time>2026-04-06T09:39:54Z</time></trkpt><trkpt lat="47.38382846519695" lon="6.906513283537735"><ele>655.7142857142857</ele><time>2026-04-06T09:39:59Z</time></trkpt><trkpt lat="47.38389712166416" lon="6.906555770538163"><ele>655.8571428571428</ele><time>2026-04-06T09:41:13.001Z</time></trkpt><trkpt lat="47.38392217227084" lon="6.9066772961928535"><ele>656.0</ele><time>2026-04-06T09:41:23.001Z</time></trkpt><trkpt lat="47.383957872962554" lon="6.906781564470201"><ele>652.9999999999999</ele><time>2026-04-06T09:41:28.001Z</time></trkpt><trkpt lat="47.383985760228875" lon="6.906870201996998"><ele>650.0</ele><time>2026-04-06T09:41:34.001Z</time></trkpt><trkpt lat="47.384000487061186" lon="6.906975994087397"><ele>647.0</ele><time>2026-04-06T09:41:40.001Z</time></trkpt><trkpt lat="47.38402693493595" lon="6.907098495804202"><ele>644.0</ele><time>2026-04-06T09:41:52.001Z</time></trkpt><trkpt lat="47.38404884211573" lon="6.907194119835761"><ele>641.0</ele><time>2026-04-06T09:41:58.001Z</time></trkpt><trkpt lat="47.384075655336034" lon="6.907290717511116"><ele>637.9999999999999</ele><time>2026-04-06T09:42:04.001Z</time></trkpt><trkpt lat="47.384093907216084" lon="6.907385716104445"><ele>635.0</ele><time>2026-04-06T09:42:11.001Z</time></trkpt><trkpt lat="47.38410390380579" lon="6.907478266981397"><ele>635.1428571428571</ele><time>2026-04-06T09:42:22.001Z</time></trkpt><trkpt lat="47.38411859076297" lon="6.9075859070509615"><ele>635.2857142857142</ele><time>2026-04-06T09:42:29.001Z</time></trkpt><trkpt lat="47.38416427232265" lon="6.907661374793489"><ele>635.4285714285713</ele><time>2026-04-06T09:42:38.001Z</time></trkpt><trkpt lat="47.38420877472479" lon="6.907747945411202"><ele>635.5714285714286</ele><time>2026-04-06T09:42:47.001Z</time></trkpt><trkpt lat="47.38423760159886" lon="6.907835700741979"><ele>635.7142857142858</ele><time>2026-04-06T09:42:55.002Z</time></trkpt><trkpt lat="47.384263873393095" lon="6.907933218292291"><ele>635.8571428571428</ele><time>2026-04-06T09:43:00.002Z</time></trkpt><trkpt lat="47.38428298165643" lon="6.908022061952261"><ele>636.0</ele><time>2026-04-06T09:43:07.002Z</time></trkpt><trkpt lat="47.384325903877766" lon="6.90809179844009"><ele>636.0</ele><time>2026-04-06T09:43:15.002Z</time></trkpt><trkpt lat="47.3843773968911" lon="6.908150092972135"><ele>636.0</ele><time>2026-04-06T09:43:58.002Z</time></trkpt><trkpt lat="47.38440269498909" lon="6.908236002795565"><ele>636.0</ele><time>2026-04-06T09:44:03.002Z</time></trkpt><trkpt lat="47.38443404857639" lon="6.908317633498382"><ele>636.0</ele><time>2026-04-06T09:44:07.002Z</time></trkpt><trkpt lat="47.38446977263453" lon="6.908395113894577"><ele>636.0</ele><time>2026-04-06T09:44:12.002Z</time></trkpt><trkpt lat="47.38450097079798" lon="6.9084770333763155"><ele>636.0</ele><time>2026-04-06T09:44:18.002Z</time></trkpt><trkpt lat="47.38452669320619" lon="6.908565060275702"><ele>636.0</ele><time>2026-04-06T09:44:47.003Z</time></trkpt><trkpt lat="47.384542834323376" lon="6.908688287819876"><ele>635.4285714285714</ele><time>2026-04-06T09:45:27.003Z</time></trkpt><trkpt lat="47.38455144033609" lon="6.908789083641091"><ele>634.8571428571429</ele><time>2026-04-06T09:45:33.003Z</time></trkpt><trkpt lat="47.38458369101209" lon="6.908893671936045"><ele>634.2857142857143</ele><time>2026-04-06T09:45:39.003Z</time></trkpt><trkpt lat="47.38462039215764" lon="6.908980495390081"><ele>633.7142857142858</ele><time>2026-04-06T09:45:46.003Z</time></trkpt><trkpt lat="47.384648877020815" lon="6.909065295647366"><ele>633.1428571428571</ele><time>2026-04-06T09:45:52.003Z</time></trkpt><trkpt lat="47.384656914837834" lon="6.909171529017471"><ele>632.5714285714287</ele><time>2026-04-06T09:46:06.003Z</time></trkpt><trkpt lat="47.38467242632951" lon="6.909271631652635"><ele>632.0</ele><time>2026-04-06T09:46:12.003Z</time></trkpt><trkpt lat="47.384692876723115" lon="6.909369577407004"><ele>630.0000000000001</ele><time>2026-04-06T09:46:20.003Z</time></trkpt><trkpt lat="47.384737286593726" lon="6.909455722546647"><ele>628.0</ele><time>2026-04-06T09:46:27.003Z</time></trkpt><trkpt lat="47.38475639763844" lon="6.909544760924474"><ele>626.0</ele><time>2026-04-06T09:46:32.002Z</time></trkpt><trkpt lat="47.384793695282916" lon="6.909636686613153"><ele>624.0</ele><time>2026-04-06T09:46:37.001Z</time></trkpt><trkpt lat="47.384809542280195" lon="6.9097399558276775"><ele>622.0</ele><time>2026-04-06T09:46:44.001Z</time></trkpt><trkpt lat="47.384840248688434" lon="6.909830889140416"><ele>620.0000000000001</ele><time>2026-04-06T09:46:51.001Z</time></trkpt><trkpt lat="47.384874201953316" lon="6.909932647823808"><ele>618.0</ele><time>2026-04-06T09:46:59Z</time></trkpt><trkpt lat="47.38492102111259" lon="6.910008391924102"><ele>618.5714285714287</ele><time>2026-04-06T09:47:05Z</time></trkpt><trkpt lat="47.38495481881277" lon="6.910090964719282"><ele>619.1428571428571</ele><time>2026-04-06T09:47:11Z</time></trkpt><trkpt lat="47.38497125702768" lon="6.91018591559935"><ele>619.7142857142858</ele><time>2026-04-06T09:47:18Z</time></trkpt><trkpt lat="47.38500752472684" lon="6.910264635201026"><ele>620.2857142857143</ele><time>2026-04-06T09:47:24.001Z</time></trkpt><trkpt lat="47.3850507536615" lon="6.910352995859158"><ele>620.8571428571429</ele><time>2026-04-06T09:47:30.001Z</time></trkpt><trkpt lat="47.38509395666204" lon="6.910427200105855"><ele>621.4285714285714</ele><time>2026-04-06T09:47:36.001Z</time></trkpt><trkpt lat="47.38514408919633" lon="6.910489974596709"><ele>622.0</ele><time>2026-04-06T09:47:42.001Z</time></trkpt><trkpt lat="47.38518778275106" lon="6.910563699909774"><ele>622.0</ele><time>2026-04-06T09:47:49.001Z</time></trkpt><trkpt lat="47.3852252084369" lon="6.910653736659157"><ele>622.0</ele><time>2026-04-06T09:48:01.001Z</time></trkpt><trkpt lat="47.385274219226005" lon="6.910737370853741"><ele>622.0</ele><time>2026-04-06T09:48:07.001Z</time></trkpt><trkpt lat="47.38532380652118" lon="6.910807896869562"><ele>622.0</ele><time>2026-04-06T09:48:12.001Z</time></trkpt><trkpt lat="47.38537094648221" lon="6.910877564474203"><ele>622.0</ele><time>2026-04-06T09:48:20.001Z</time></trkpt><trkpt lat="47.38541725282208" lon="6.910962968529446"><ele>622.0</ele><time>2026-04-06T09:48:26.001Z</time></trkpt><trkpt lat="47.3854643600681" lon="6.911032018209795"><ele>622.0</ele><time>2026-04-06T09:48:32.001Z</time></trkpt><trkpt lat="47.38549292084157" lon="6.911116893046345"><ele>620.5714285714286</ele><time>2026-04-06T09:48:39.001Z</time></trkpt><trkpt lat="47.38553538710008" lon="6.911196544580498"><ele>619.1428571428572</ele><time>2026-04-06T09:48:48.001Z</time></trkpt><trkpt lat="47.38557517149775" lon="6.911276676564098"><ele>617.7142857142858</ele><time>2026-04-06T09:48:55.001Z</time></trkpt><trkpt lat="47.38561877915746" lon="6.91135240217093"><ele>616.2857142857142</ele><time>2026-04-06T09:49:04.002Z</time></trkpt><trkpt lat="47.38564885049636" lon="6.911443583670917"><ele>614.8571428571429</ele><time>2026-04-06T09:49:10.002Z</time></trkpt><trkpt lat="47.38568370785878" lon="6.911527648804354"><ele>613.4285714285714</ele><time>2026-04-06T09:49:16.002Z</time></trkpt><trkpt lat="47.3857363427578" lon="6.9115928093142065"><ele>612.0</ele><time>2026-04-06T09:49:20.002Z</time></trkpt><trkpt lat="47.385774846733945" lon="6.911672296759826"><ele>612.7142857142857</ele><time>2026-04-06T09:49:26.002Z</time></trkpt><trkpt lat="47.38580084653338" lon="6.911761559669497"><ele>613.4285714285714</ele><time>2026-04-06T09:49:34.002Z</time></trkpt><trkpt lat="47.38583180450766" lon="6.911843564932986"><ele>614.1428571428571</ele><time>2026-04-06T09:49:42.002Z</time></trkpt><trkpt lat="47.3858980342594" lon="6.911876842422762"><ele>614.8571428571429</ele><time>2026-04-06T09:49:50.002Z</time></trkpt><trkpt lat="47.385953626467305" lon="6.911928776996468"><ele>615.5714285714286</ele><time>2026-04-06T09:49:54.002Z</time></trkpt><trkpt lat="47.385995316281125" lon="6.911999841242278"><ele>616.2857142857143</ele><time>2026-04-06T09:50:00.002Z</time></trkpt><trkpt lat="47.38605074845322" lon="6.912055106375964"><ele>617.0</ele><time>2026-04-06T09:50:06.002Z</time></trkpt><trkpt lat="47.38610398186454" lon="6.91212066782243"><ele>617.0</ele><time>2026-04-06T09:50:11.002Z</time></trkpt><trkpt lat="47.38616181103831" lon="6.912164055064524"><ele>617.0</ele><time>2026-04-06T09:50:15.002Z</time></trkpt><trkpt lat="47.386232086900165" lon="6.912187510182738"><ele>617.0</ele><time>2026-04-06T09:50:20.002Z</time></trkpt><trkpt lat="47.38629835717782" lon="6.912204293287855"><ele>617.0</ele><time>2026-04-06T09:50:24.002Z</time></trkpt><trkpt lat="47.38635866347086" lon="6.912250791188158"><ele>617.0</ele><time>2026-04-06T09:50:29.003Z</time></trkpt><trkpt lat="47.38642316767898" lon="6.912291069004355"><ele>617.0</ele><time>2026-04-06T09:50:36.003Z</time></trkpt><trkpt lat="47.386481290029536" lon="6.912329772719295"><ele>617.0</ele><time>2026-04-06T09:50:40.003Z</time></trkpt><trkpt lat="47.3865439137663" lon="6.91235157314308"><ele>615.8571428571429</ele><time>2026-04-06T09:50:44.003Z</time></trkpt><trkpt lat="47.386602877941314" lon="6.912392814758573"><ele>614.7142857142857</ele><time>2026-04-06T09:50:51.003Z</time></trkpt><trkpt lat="47.38665655685334" lon="6.91244459334848"><ele>613.5714285714286</ele><time>2026-04-06T09:50:57.003Z</time></trkpt><trkpt lat="47.38672419479392" lon="6.912464335096327"><ele>612.4285714285714</ele><time>2026-04-06T09:51:52.003Z</time></trkpt><trkpt lat="47.38679155617461" lon="6.91250355714677"><ele>611.2857142857142</ele><time>2026-04-06T09:51:58.004Z</time></trkpt><trkpt lat="47.38684540376737" lon="6.912573190790103"><ele>610.1428571428571</ele><time>2026-04-06T09:52:04.004Z</time></trkpt><trkpt lat="47.38690782276924" lon="6.912592202703743"><ele>609.0</ele><time>2026-04-06T09:52:10.004Z</time></trkpt><trkpt lat="47.38697249314064" lon="6.912629950814132"><ele>609.0</ele><time>2026-04-06T09:52:18.004Z</time></trkpt><trkpt lat="47.38703647452858" lon="6.912645495220744"><ele>609.0</ele><time>2026-04-06T09:52:27.004Z</time></trkpt><trkpt lat="47.387096986802135" lon="6.912702109253028"><ele>609.0</ele><time>2026-04-06T09:52:34.004Z</time></trkpt><trkpt lat="47.38714481801418" lon="6.912771545422612"><ele>609.0</ele><time>2026-04-06T09:52:42.004Z</time></trkpt><trkpt lat="47.38720025014649" lon="6.9128304230406314"><ele>609.0</ele><time>2026-04-06T09:52:50.004Z</time></trkpt><trkpt lat="47.38725676626454" lon="6.912878407317631"><ele>609.0</ele><time>2026-04-06T09:52:56.004Z</time></trkpt><trkpt lat="47.387328645348724" lon="6.912894460618188"><ele>609.0</ele><time>2026-04-06T09:53:02.004Z</time></trkpt><trkpt lat="47.38739231193393" lon="6.912929231694439"><ele>608.4285714285714</ele><time>2026-04-06T09:53:13.004Z</time></trkpt><trkpt lat="47.387446056786516" lon="6.912979872034084"><ele>607.8571428571429</ele><time>2026-04-06T09:53:21.005Z</time></trkpt><trkpt lat="47.38750456139111" lon="6.913033260822306"><ele>607.2857142857142</ele><time>2026-04-06T09:53:30.005Z</time></trkpt><trkpt lat="47.38754582054788" lon="6.913108505633972"><ele>606.7142857142858</ele><time>2026-04-06T09:53:37.002Z</time></trkpt><trkpt lat="47.38760181099263" lon="6.913152319972273"><ele>606.1428571428571</ele><time>2026-04-06T09:53:45.001Z</time></trkpt><trkpt lat="47.38766040428076" lon="6.913194481857403"><ele>605.5714285714286</ele><time>2026-04-06T09:54:00Z</time></trkpt><trkpt lat="47.38770207768173" lon="6.913265474789415"><ele>605.0</ele><time>2026-04-06T09:54:06Z</time></trkpt><trkpt lat="47.3877629664494" lon="6.913302750913697"><ele>605.0</ele><time>2026-04-06T09:54:13Z</time></trkpt><trkpt lat="47.38781941944414" lon="6.913370588609203"><ele>605.0</ele><time>2026-04-06T09:54:19Z</time></trkpt><trkpt lat="47.387901390289954" lon="6.913443198258945"><ele>605.0</ele><time>2026-04-06T09:54:42Z</time></trkpt><trkpt lat="47.38799642478306" lon="6.913494032534323"><ele>605.0</ele><time>2026-04-06T09:54:58Z</time></trkpt><trkpt lat="47.388078525315265" lon="6.913506457418053"><ele>605.0</ele><time>2026-04-06T09:55:17Z</time></trkpt><trkpt lat="47.38814294925067" lon="6.9135492291320055"><ele>605.0</ele><time>2026-04-06T09:55:27Z</time></trkpt><trkpt lat="47.3882148121941" lon="6.913552998773769"><ele>603.1666666666666</ele><time>2026-04-06T09:55:41Z</time></trkpt><trkpt lat="47.38828325990634" lon="6.913513731719923"><ele>601.3333333333333</ele><time>2026-04-06T09:56:17.001Z</time></trkpt><trkpt lat="47.38836855004297" lon="6.913536892385804"><ele>599.5</ele><time>2026-04-06T09:56:39.001Z</time></trkpt><trkpt lat="47.3884361908846" lon="6.9135317143400385"><ele>597.6666666666666</ele><time>2026-04-06T09:56:45.001Z</time></trkpt><trkpt lat="47.38850898529448" lon="6.913476582265371"><ele>595.8333333333334</ele><time>2026-04-06T09:56:50.001Z</time></trkpt><trkpt lat="47.388560022328" lon="6.9135494873854535"><ele>594.0</ele><time>2026-04-06T09:57:10.001Z</time></trkpt><trkpt lat="47.38863281859673" lon="6.9135469279193025"><ele>594.0</ele><time>2026-04-06T09:57:18.001Z</time></trkpt><trkpt lat="47.388702718320204" lon="6.913537758400458"><ele>594.0</ele><time>2026-04-06T09:57:27.002Z</time></trkpt><trkpt lat="47.388763203554305" lon="6.913582386004901"><ele>594.0</ele><time>2026-04-06T09:57:34.002Z</time></trkpt><trkpt lat="47.38885996012353" lon="6.913656867080165"><ele>594.0</ele><time>2026-04-06T09:58:18.002Z</time></trkpt><trkpt lat="47.38892677996056" lon="6.913693227508701"><ele>594.0</ele><time>2026-04-06T09:58:24.002Z</time></trkpt><trkpt lat="47.3889977798765" lon="6.913693792796783"><ele>594.0</ele><time>2026-04-06T09:58:29.002Z</time></trkpt><trkpt lat="47.389054906414785" lon="6.913746724445158"><ele>591.8571428571429</ele><time>2026-04-06T09:58:37.002Z</time></trkpt><trkpt lat="47.38910050458817" lon="6.913821318419122"><ele>589.7142857142858</ele><time>2026-04-06T09:59:48.003Z</time></trkpt><trkpt lat="47.389180737355616" lon="6.913823913245637"><ele>587.5714285714286</ele><time>2026-04-06T09:59:54.003Z</time></trkpt><trkpt lat="47.389244788025245" lon="6.913800906731422"><ele>585.4285714285714</ele><time>2026-04-06T10:00:00.003Z</time></trkpt><trkpt lat="47.389309798205744" lon="6.913787051130867"><ele>583.2857142857142</ele><time>2026-04-06T10:00:06.003Z</time></trkpt><trkpt lat="47.38937611595975" lon="6.913745293153651"><ele>581.1428571428571</ele><time>2026-04-06T10:00:12.003Z</time></trkpt><trkpt lat="47.38943545514901" lon="6.913694802069837"><ele>579.0</ele><time>2026-04-06T10:00:18.003Z</time></trkpt><trkpt lat="47.389503362227416" lon="6.913639560160607"><ele>578.9999999999999</ele><time>2026-04-06T10:00:23.003Z</time></trkpt><trkpt lat="47.38956573944423" lon="6.91360671795904"><ele>579.0</ele><time>2026-04-06T10:00:29.003Z</time></trkpt><trkpt lat="47.38962761089662" lon="6.913554493443591"><ele>579.0</ele><time>2026-04-06T10:00:35.004Z</time></trkpt><trkpt lat="47.389680440402515" lon="6.913483960492523"><ele>579.0</ele><time>2026-04-06T10:00:43.002Z</time></trkpt><trkpt lat="47.38971959435016" lon="6.9134028876996645"><ele>579.0</ele><time>2026-04-06T10:00:50.001Z</time></trkpt><trkpt lat="47.389740593594475" lon="6.913309485220252"><ele>578.9999999999999</ele><time>2026-04-06T10:00:55.001Z</time></trkpt><trkpt lat="47.389755278154034" lon="6.9132128890642575"><ele>579.0</ele><time>2026-04-06T10:01:00.001Z</time></trkpt><trkpt lat="47.38976849306563" lon="6.913111269416066"><ele>578.4285714285713</ele><time>2026-04-06T10:01:10Z</time></trkpt><trkpt lat="47.3897845835059" lon="6.913008642696201"><ele>577.8571428571429</ele><time>2026-04-06T10:01:15Z</time></trkpt><trkpt lat="47.3897967592434" lon="6.912907973247135"><ele>577.2857142857142</ele><time>2026-04-06T10:01:21Z</time></trkpt><trkpt lat="47.38982067855119" lon="6.912800891424715"><ele>576.7142857142857</ele><time>2026-04-06T10:01:27Z</time></trkpt><trkpt lat="47.38983288112446" lon="6.912701874959376"><ele>576.1428571428571</ele><time>2026-04-06T10:01:34Z</time></trkpt><trkpt lat="47.38985940518728" lon="6.9126111771874585"><ele>575.5714285714286</ele><time>2026-04-06T10:01:39Z</time></trkpt><trkpt lat="47.389891440769496" lon="6.912514702729338"><ele>575.0</ele><time>2026-04-06T10:01:45Z</time></trkpt><trkpt lat="47.389942485081164" lon="6.912430539981214"><ele>574.4285714285714</ele><time>2026-04-06T10:01:51Z</time></trkpt><trkpt lat="47.38999415699964" lon="6.912351422907519"><ele>573.8571428571428</ele><time>2026-04-06T10:01:57.001Z</time></trkpt><trkpt lat="47.39003086385507" lon="6.912267150727811"><ele>573.2857142857142</ele><time>2026-04-06T10:02:03.001Z</time></trkpt><trkpt lat="47.390077562638375" lon="6.912183032541238"><ele>572.7142857142857</ele><time>2026-04-06T10:02:10.001Z</time></trkpt><trkpt lat="47.39012289707767" lon="6.912103431391107"><ele>572.1428571428571</ele><time>2026-04-06T10:02:17.001Z</time></trkpt><trkpt lat="47.39014486819243" lon="6.912011462173931"><ele>571.5714285714286</ele><time>2026-04-06T10:02:26.001Z</time></trkpt><trkpt lat="47.390203621159095" lon="6.9119608708323765"><ele>571.0</ele><time>2026-04-06T10:03:17.001Z</time></trkpt><trkpt lat="47.39025435281925" lon="6.911896562182186"><ele>571.0</ele><time>2026-04-06T10:03:23.001Z</time></trkpt><trkpt lat="47.39031013357077" lon="6.911830502561698"><ele>571.0</ele><time>2026-04-06T10:03:29.001Z</time></trkpt><trkpt lat="47.390380045536496" lon="6.9117835309286"><ele>571.0</ele><time>2026-04-06T10:03:34.001Z</time></trkpt><trkpt lat="47.390440707473225" lon="6.911705761546302"><ele>571.0</ele><time>2026-04-06T10:03:41.001Z</time></trkpt><trkpt lat="47.39048869169046" lon="6.911631436474646"><ele>571.0</ele><time>2026-04-06T10:03:48.002Z</time></trkpt><trkpt lat="47.390537231744" lon="6.911567527130219"><ele>571.0</ele><time>2026-04-06T10:03:55.002Z</time></trkpt><trkpt lat="47.390587579322435" lon="6.911501636889265"><ele>571.0</ele><time>2026-04-06T10:04:03.002Z</time></trkpt><trkpt lat="47.390652110270615" lon="6.911459499880711"><ele>570.7142857142858</ele><time>2026-04-06T10:04:09.002Z</time></trkpt><trkpt lat="47.39071425873819" lon="6.91142717986773"><ele>570.4285714285714</ele><time>2026-04-06T10:04:15.002Z</time></trkpt><trkpt lat="47.39077826194049" lon="6.911368493908863"><ele>570.1428571428571</ele><time>2026-04-06T10:04:34.002Z</time></trkpt><trkpt lat="47.390838843048904" lon="6.911332487710596"><ele>569.8571428571429</ele><time>2026-04-06T10:04:39.002Z</time></trkpt><trkpt lat="47.39090491728799" lon="6.911301987731166"><ele>569.5714285714286</ele><time>2026-04-06T10:04:45.002Z</time></trkpt><trkpt lat="47.390963695757655" lon="6.9112583234956775"><ele>569.2857142857143</ele><time>2026-04-06T10:04:49.002Z</time></trkpt><trkpt lat="47.39103081767625" lon="6.911243308532596"><ele>569.0</ele><time>2026-04-06T10:04:54.002Z</time></trkpt><trkpt lat="47.39109908053846" lon="6.911202369267782"><ele>569.0000000000001</ele><time>2026-04-06T10:05:00.002Z</time></trkpt><trkpt lat="47.39116577247478" lon="6.911183779959857"><ele>569.0</ele><time>2026-04-06T10:05:06.002Z</time></trkpt><trkpt lat="47.39123223023037" lon="6.91117944488956"><ele>569.0</ele><time>2026-04-06T10:05:13.002Z</time></trkpt><trkpt lat="47.391302202766106" lon="6.911162671081872"><ele>569.0</ele><time>2026-04-06T10:05:18.002Z</time></trkpt><trkpt lat="47.391360130602834" lon="6.911118038181758"><ele>569.0</ele><time>2026-04-06T10:05:24.002Z</time></trkpt><trkpt lat="47.39142144199473" lon="6.911073721909602"><ele>569.0000000000001</ele><time>2026-04-06T10:05:32.002Z</time></trkpt><trkpt lat="47.391488570151175" lon="6.911049989593817"><ele>569.0</ele><time>2026-04-06T10:05:40.003Z</time></trkpt><trkpt lat="47.39155061554419" lon="6.911028881211113"><ele>568.8333333333333</ele><time>2026-04-06T10:05:56.003Z</time></trkpt><trkpt lat="47.39161568485317" lon="6.9110185960919654"><ele>568.6666666666666</ele><time>2026-04-06T10:06:07.003Z</time></trkpt><trkpt lat="47.391734183626845" lon="6.911046407893522"><ele>568.5</ele><time>2026-04-06T10:06:59.003Z</time></trkpt><trkpt lat="47.391804669718354" lon="6.911059334759951"><ele>568.3333333333334</ele><time>2026-04-06T10:07:04.003Z</time></trkpt><trkpt lat="47.39187474349131" lon="6.911046686119551"><ele>568.1666666666667</ele><time>2026-04-06T10:07:12.003Z</time></trkpt><trkpt lat="47.39194616181668" lon="6.911074330994972"><ele>568.0</ele><time>2026-04-06T10:07:19.003Z</time></trkpt><trkpt lat="47.39204421949339" lon="6.911058759607611"><ele>568.0</ele><time>2026-04-06T10:07:41.004Z</time></trkpt><trkpt lat="47.392100251690046" lon="6.911102733780903"><ele>568.0</ele><time>2026-04-06T10:07:47.003Z</time></trkpt><trkpt lat="47.39216717992434" lon="6.91112288124033"><ele>568.0</ele><time>2026-04-06T10:07:54.002Z</time></trkpt><trkpt lat="47.39223442078391" lon="6.911112202019947"><ele>568.0</ele><time>2026-04-06T10:08:02.001Z</time></trkpt><trkpt lat="47.39229869517994" lon="6.911131459224182"><ele>568.0</ele><time>2026-04-06T10:08:07.001Z</time></trkpt><trkpt lat="47.39236118281785" lon="6.911162416026025"><ele>568.0</ele><time>2026-04-06T10:08:13.001Z</time></trkpt><trkpt lat="47.39242845963819" lon="6.911184622884461"><ele>568.0</ele><time>2026-04-06T10:08:18.001Z</time></trkpt><trkpt lat="47.39249851103323" lon="6.911205368387757"><ele>567.1666666666667</ele><time>2026-04-06T10:08:26.001Z</time></trkpt><trkpt lat="47.39256183789316" lon="6.911216538948278"><ele>566.3333333333334</ele><time>2026-04-06T10:08:32.001Z</time></trkpt><trkpt lat="47.39262016628699" lon="6.911253633768151"><ele>565.5</ele><time>2026-04-06T10:08:38.001Z</time></trkpt><trkpt lat="47.39271746293953" lon="6.911256864982691"><ele>564.6666666666666</ele><time>2026-04-06T10:09:02.001Z</time></trkpt><trkpt lat="47.39282097298863" lon="6.91128262736956"><ele>563.8333333333333</ele><time>2026-04-06T10:09:27.001Z</time></trkpt><trkpt lat="47.392886399201615" lon="6.911300397625961"><ele>563.0</ele><time>2026-04-06T10:09:32.001Z</time></trkpt><trkpt lat="47.39296053148165" lon="6.911322287479219"><ele>560.0</ele><time>2026-04-06T10:09:39.001Z</time></trkpt><trkpt lat="47.393029568075185" lon="6.911348637598092"><ele>557.0</ele><time>2026-04-06T10:09:47.001Z</time></trkpt><trkpt lat="47.3930924606556" lon="6.911371263890675"><ele>554.0</ele><time>2026-04-06T10:09:56.001Z</time></trkpt><trkpt lat="47.39316827457956" lon="6.911357742644867"><ele>551.0</ele><time>2026-04-06T10:10:02.001Z</time></trkpt><trkpt lat="47.39325858398319" lon="6.911388726017695"><ele>548.0</ele><time>2026-04-06T10:10:19.001Z</time></trkpt><trkpt lat="47.393334276689096" lon="6.911408447544249"><ele>545.0</ele><time>2026-04-06T10:10:25.002Z</time></trkpt><trkpt lat="47.393403936687584" lon="6.911439293513274"><ele>545.0</ele><time>2026-04-06T10:10:31.002Z</time></trkpt><trkpt lat="47.393464906662544" lon="6.911473196004512"><ele>545.0</ele><time>2026-04-06T10:10:36.002Z</time></trkpt><trkpt lat="47.39353381263701" lon="6.911509786120718"><ele>545.0</ele><time>2026-04-06T10:10:42.002Z</time></trkpt><trkpt lat="47.393606587185786" lon="6.911517369579089"><ele>545.0</ele><time>2026-04-06T10:10:53.002Z</time></trkpt><trkpt lat="47.393680214690704" lon="6.911531758613711"><ele>545.0</ele><time>2026-04-06T10:11:00.002Z</time></trkpt><trkpt lat="47.39374079522048" lon="6.911501999328403"><ele>545.0</ele><time>2026-04-06T10:11:15.002Z</time></trkpt><trkpt lat="47.39382564613252" lon="6.911444168537244"><ele>545.0</ele><time>2026-04-06T10:11:31.002Z</time></trkpt><trkpt lat="47.39387662730436" lon="6.911365247030969"><ele>545.2857142857143</ele><time>2026-04-06T10:11:40.002Z</time></trkpt><trkpt lat="47.393939614149424" lon="6.9113124966091135"><ele>545.5714285714287</ele><time>2026-04-06T10:11:50.002Z</time></trkpt><trkpt lat="47.39399879250898" lon="6.911261428685847"><ele>545.8571428571429</ele><time>2026-04-06T10:11:56.002Z</time></trkpt><trkpt lat="47.3940485050965" lon="6.911199665234987"><ele>546.1428571428571</ele><time>2026-04-06T10:12:04.003Z</time></trkpt><trkpt lat="47.394071287223" lon="6.9111042472377955"><ele>546.4285714285713</ele><time>2026-04-06T10:12:16.003Z</time></trkpt><trkpt lat="47.39412203364354" lon="6.911044338947079"><ele>546.7142857142857</ele><time>2026-04-06T10:12:22.003Z</time></trkpt><trkpt lat="47.3941779877334" lon="6.910983897241763"><ele>547.0</ele><time>2026-04-06T10:12:31.003Z</time></trkpt><trkpt lat="47.39421711598935" lon="6.910809877990632"><ele>547.0</ele><time>2026-04-06T10:13:23.003Z</time></trkpt><trkpt lat="47.394263983477344" lon="6.9107412638807615"><ele>547.0</ele><time>2026-04-06T10:13:31.003Z</time></trkpt><trkpt lat="47.39431809052728" lon="6.910673059407381"><ele>547.0</ele><time>2026-04-06T10:13:41.003Z</time></trkpt><trkpt lat="47.394360686569996" lon="6.910592182477373"><ele>547.0</ele><time>2026-04-06T10:13:47.004Z</time></trkpt><trkpt lat="47.39439086486077" lon="6.910503779095893"><ele>547.0</ele><time>2026-04-06T10:13:53.003Z</time></trkpt><trkpt lat="47.39443729722104" lon="6.910439429173818"><ele>547.0</ele><time>2026-04-06T10:14:00.003Z</time></trkpt><trkpt lat="47.39447990902531" lon="6.910367996236949"><ele>547.0</ele><time>2026-04-06T10:14:08.003Z</time></trkpt><trkpt lat="47.39454699500111" lon="6.91033356025681"><ele>547.0</ele><time>2026-04-06T10:14:22.003Z</time></trkpt><trkpt lat="47.394610378330334" lon="6.9102965870405075"><ele>547.0</ele><time>2026-04-06T10:14:29.003Z</time></trkpt><trkpt lat="47.39466979558497" lon="6.910242265539745"><ele>547.0</ele><time>2026-04-06T10:14:38.003Z</time></trkpt><trkpt lat="47.39473929125753" lon="6.910198208888524"><ele>547.0</ele><time>2026-04-06T10:14:44.003Z</time></trkpt><trkpt lat="47.39480250404676" lon="6.910185829283154"><ele>547.0</ele><time>2026-04-06T10:14:50.003Z</time></trkpt><trkpt lat="47.394865798858646" lon="6.9101706859884855"><ele>547.0</ele><time>2026-04-06T10:14:55.002Z</time></trkpt><trkpt lat="47.39493344071891" lon="6.910128757229702"><ele>547.0</ele><time>2026-04-06T10:15:07.001Z</time></trkpt><trkpt lat="47.39499629203729" lon="6.91011937717032"><ele>546.8571428571429</ele><time>2026-04-06T10:15:14Z</time></trkpt><trkpt lat="47.39506005648638" lon="6.910086475946284"><ele>546.7142857142857</ele><time>2026-04-06T10:15:24Z</time></trkpt><trkpt lat="47.39512276467309" lon="6.910056237653097"><ele>546.5714285714286</ele><time>2026-04-06T10:15:28Z</time></trkpt><trkpt lat="47.395192371977444" lon="6.910024219913809"><ele>546.4285714285714</ele><time>2026-04-06T10:15:34Z</time></trkpt><trkpt lat="47.39525799222286" lon="6.910010740282479"><ele>546.2857142857142</ele><time>2026-04-06T10:15:41Z</time></trkpt><trkpt lat="47.39532032173417" lon="6.909986087218934"><ele>546.1428571428571</ele><time>2026-04-06T10:15:55Z</time></trkpt><trkpt lat="47.395373444207614" lon="6.90993603079458"><ele>546.0</ele><time>2026-04-06T10:16:00Z</time></trkpt><trkpt lat="47.39542784110043" lon="6.909874048698849"><ele>544.3333333333334</ele><time>2026-04-06T10:16:08Z</time></trkpt><trkpt lat="47.39551620143756" lon="6.9098215800562945"><ele>542.6666666666666</ele><time>2026-04-06T10:16:34Z</time></trkpt><trkpt lat="47.39564688893875" lon="6.909779054096534"><ele>541.0</ele><time>2026-04-06T10:17:22.001Z</time></trkpt><trkpt lat="47.39571752324354" lon="6.90976318574497"><ele>539.3333333333333</ele><time>2026-04-06T10:17:54.001Z</time></trkpt><trkpt lat="47.395779168929344" lon="6.909737391186435"><ele>537.6666666666666</ele><time>2026-04-06T10:18:28.001Z</time></trkpt><trkpt lat="47.39583384157385" lon="6.90968014472824"><ele>536.0</ele><time>2026-04-06T10:18:56.002Z</time></trkpt><trkpt lat="47.395901419865226" lon="6.909541300387157"><ele>536.0</ele><time>2026-04-06T10:20:49.003Z</time></trkpt><trkpt lat="47.395958324160645" lon="6.9094357661063395"><ele>536.0</ele><time>2026-04-06T10:21:11.003Z</time></trkpt><trkpt lat="47.396007094935015" lon="6.90936934215194"><ele>536.0</ele><time>2026-04-06T10:21:21.003Z</time></trkpt><trkpt lat="47.396022047763495" lon="6.909258012458827"><ele>536.0</ele><time>2026-04-06T10:21:34.003Z</time></trkpt><trkpt lat="47.396066143831696" lon="6.909185199978879"><ele>536.0</ele><time>2026-04-06T10:21:40.003Z</time></trkpt><trkpt lat="47.39612691827815" lon="6.909217369526822"><ele>536.0</ele><time>2026-04-06T10:22:34Z</time></trkpt><trkpt lat="47.396182049178556" lon="6.909304474945856"><ele>536.0</ele><time>2026-04-06T10:23:15.001Z</time></trkpt><trkpt lat="47.396204176900106" lon="6.909391581276554"><ele>536.0</ele><time>2026-04-06T10:23:24.001Z</time></trkpt><trkpt lat="47.39619457453068" lon="6.909487278540856"><ele>536.0</ele><time>2026-04-06T10:23:30.001Z</time></trkpt><trkpt lat="47.39620655802381" lon="6.9095811335417805"><ele>536.0</ele><time>2026-04-06T10:23:36.001Z</time></trkpt><trkpt lat="47.396205738492625" lon="6.909679897879299"><ele>536.0</ele><time>2026-04-06T10:23:43.001Z</time></trkpt><trkpt lat="47.39621598684254" lon="6.909780919304838"><ele>536.0</ele><time>2026-04-06T10:23:52.001Z</time></trkpt><trkpt lat="47.39623938946633" lon="6.9098718711368425"><ele>536.0</ele><time>2026-04-06T10:23:57.001Z</time></trkpt><trkpt lat="47.39628416773373" lon="6.909943001657906"><ele>536.0</ele><time>2026-04-06T10:24:09.001Z</time></trkpt><trkpt lat="47.3963148128711" lon="6.91003877098379"><ele>535.7142857142858</ele><time>2026-04-06T10:24:15.001Z</time></trkpt><trkpt lat="47.396365679129154" lon="6.91009444311424"><ele>535.4285714285714</ele><time>2026-04-06T10:24:22.001Z</time></trkpt><trkpt lat="47.396395923376865" lon="6.9101768776420425"><ele>535.1428571428571</ele><time>2026-04-06T10:24:33.001Z</time></trkpt><trkpt lat="47.39641773617724" lon="6.910264435932164"><ele>534.8571428571429</ele><time>2026-04-06T10:24:46.001Z</time></trkpt><trkpt lat="47.39640936503985" lon="6.91036240898178"><ele>534.5714285714286</ele><time>2026-04-06T10:24:52.001Z</time></trkpt><trkpt lat="47.39638959436916" lon="6.910463696140783"><ele>534.2857142857143</ele><time>2026-04-06T10:25:00.002Z</time></trkpt><trkpt lat="47.396418234687125" lon="6.910551496553492"><ele>534.0</ele><time>2026-04-06T10:25:06.002Z</time></trkpt><trkpt lat="47.39644414770273" lon="6.910639070697496"><ele>534.0000000000001</ele><time>2026-04-06T10:25:24.002Z</time></trkpt><trkpt lat="47.396462594726216" lon="6.91074656209333"><ele>534.0</ele><time>2026-04-06T10:25:30.002Z</time></trkpt><trkpt lat="47.396496226264226" lon="6.910848427871173"><ele>534.0</ele><time>2026-04-06T10:25:43.002Z</time></trkpt><trkpt lat="47.396489299598464" lon="6.9109456795973125"><ele>534.0</ele><time>2026-04-06T10:25:46.002Z</time></trkpt><trkpt lat="47.396478198310135" lon="6.911046949755797"><ele>534.0</ele><time>2026-04-06T10:25:49.002Z</time></trkpt><trkpt lat="47.39647458429947" lon="6.911141046415847"><ele>534.0000000000001</ele><time>2026-04-06T10:25:55.002Z</time></trkpt><trkpt lat="47.396475844715845" lon="6.911236300411014"><ele>534.0</ele><time>2026-04-06T10:25:59.002Z</time></trkpt><trkpt lat="47.396480922585766" lon="6.911365454932987"><ele>534.5714285714287</ele><time>2026-04-06T10:26:10.002Z</time></trkpt><trkpt lat="47.39648643207317" lon="6.911468293595569"><ele>535.1428571428571</ele><time>2026-04-06T10:26:15.002Z</time></trkpt><trkpt lat="47.39650650206528" lon="6.911568504547899"><ele>535.7142857142858</ele><time>2026-04-06T10:26:40.002Z</time></trkpt><trkpt lat="47.396516808950366" lon="6.911674036733844"><ele>536.2857142857143</ele><time>2026-04-06T10:26:43.003Z</time></trkpt><trkpt lat="47.39652712835912" lon="6.911779200644987"><ele>536.8571428571429</ele><time>2026-04-06T10:26:48.003Z</time></trkpt><trkpt lat="47.39654265941" lon="6.911876273501035"><ele>537.4285714285714</ele><time>2026-04-06T10:26:54.003Z</time></trkpt><trkpt lat="47.396561753779935" lon="6.9119710411477975"><ele>538.0</ele><time>2026-04-06T10:27:09.003Z</time></trkpt><trkpt lat="47.396560762951566" lon="6.912068863477896"><ele>538.7142857142858</ele><time>2026-04-06T10:27:17.003Z</time></trkpt><trkpt lat="47.396587822333565" lon="6.912164689398297"><ele>539.4285714285714</ele><time>2026-04-06T10:27:26.003Z</time></trkpt><trkpt lat="47.396600968691885" lon="6.912266141295401"><ele>540.1428571428571</ele><time>2026-04-06T10:27:33.003Z</time></trkpt><trkpt lat="47.396643878173016" lon="6.912350477043417"><ele>540.8571428571429</ele><time>2026-04-06T10:27:39.003Z</time></trkpt><trkpt lat="47.3966480010326" lon="6.912443383384601"><ele>541.5714285714286</ele><time>2026-04-06T10:27:46.003Z</time></trkpt><trkpt lat="47.39666173925221" lon="6.912552902577007"><ele>542.2857142857143</ele><time>2026-04-06T10:27:58.003Z</time></trkpt><trkpt lat="47.39668882534395" lon="6.912641405684455"><ele>543.0</ele><time>2026-04-06T10:28:06.003Z</time></trkpt><trkpt lat="47.3967216015742" lon="6.91272197005233"><ele>544.5</ele><time>2026-04-06T10:28:14.003Z</time></trkpt><trkpt lat="47.39675246636056" lon="6.9128211910437"><ele>546.0</ele><time>2026-04-06T10:28:22.003Z</time></trkpt><trkpt lat="47.396776022922815" lon="6.912974991006375"><ele>547.5</ele><time>2026-04-06T10:29:11.002Z</time></trkpt><trkpt lat="47.39681239206348" lon="6.913064351234274"><ele>549.0</ele><time>2026-04-06T10:29:22.001Z</time></trkpt><trkpt lat="47.396857024905664" lon="6.913147610072333"><ele>550.5</ele><time>2026-04-06T10:29:28.001Z</time></trkpt><trkpt lat="47.396907557393575" lon="6.913213472611392"><ele>552.0</ele><time>2026-04-06T10:29:34Z</time></trkpt><trkpt lat="47.39695035220105" lon="6.913304076056789"><ele>553.0</ele><time>2026-04-06T10:29:39Z</time></trkpt><trkpt lat="47.39696190520997" lon="6.913411108633263"><ele>554.0</ele><time>2026-04-06T10:29:46Z</time></trkpt><trkpt lat="47.39698262555334" lon="6.913506428792134"><ele>555.0</ele><time>2026-04-06T10:29:56Z</time></trkpt><trkpt lat="47.39700396033643" lon="6.913601010136345"><ele>556.0</ele><time>2026-04-06T10:30:04Z</time></trkpt><trkpt lat="47.39700834869695" lon="6.913711528468696"><ele>557.0</ele><time>2026-04-06T10:30:12.001Z</time></trkpt><trkpt lat="47.39698102336879" lon="6.913817008434533"><ele>558.0</ele><time>2026-04-06T10:30:23.001Z</time></trkpt><trkpt lat="47.396979554406535" lon="6.913921978206877"><ele>559.0</ele><time>2026-04-06T10:30:29.001Z</time></trkpt><trkpt lat="47.396977426112684" lon="6.914018351821884"><ele>559.0</ele><time>2026-04-06T10:30:34.001Z</time></trkpt><trkpt lat="47.396975704522035" lon="6.914118755332135"><ele>559.0</ele><time>2026-04-06T10:30:39.001Z</time></trkpt><trkpt lat="47.3969719342209" lon="6.914218455529134"><ele>559.0</ele><time>2026-04-06T10:30:45.001Z</time></trkpt><trkpt lat="47.39697626848298" lon="6.9143213311541745"><ele>559.0</ele><time>2026-04-06T10:30:59.001Z</time></trkpt><trkpt lat="47.39698684994136" lon="6.9144302940529645"><ele>559.0</ele><time>2026-04-06T10:31:10.001Z</time></trkpt><trkpt lat="47.39699991207673" lon="6.9145557189031885"><ele>559.0</ele><time>2026-04-06T10:31:31.001Z</time></trkpt><trkpt lat="47.39699385979967" lon="6.914653294219222"><ele>559.0</ele><time>2026-04-06T10:31:42.002Z</time></trkpt><trkpt lat="47.39701143671533" lon="6.914745123614655"><ele>559.2857142857143</ele><time>2026-04-06T10:31:54.002Z</time></trkpt><trkpt lat="47.39701458082889" lon="6.914845246908102"><ele>559.5714285714287</ele><time>2026-04-06T10:31:59.002Z</time></trkpt><trkpt lat="47.39702813864019" lon="6.914957633124979"><ele>559.8571428571429</ele><time>2026-04-06T10:32:05.002Z</time></trkpt><trkpt lat="47.39706271504752" lon="6.915051667701448"><ele>560.1428571428571</ele><time>2026-04-06T10:32:17.002Z</time></trkpt><trkpt lat="47.39707219958009" lon="6.915151984149877"><ele>560.4285714285713</ele><time>2026-04-06T10:32:23.002Z</time></trkpt><trkpt lat="47.39707423814633" lon="6.915257070025396"><ele>560.7142857142857</ele><time>2026-04-06T10:32:29.002Z</time></trkpt><trkpt lat="47.397079302603295" lon="6.9153570730410685"><ele>561.0</ele><time>2026-04-06T10:32:35.002Z</time></trkpt><trkpt lat="47.39711892926466" lon="6.915529127717209"><ele>560.8571428571429</ele><time>2026-04-06T10:33:25.003Z</time></trkpt><trkpt lat="47.39711236214103" lon="6.91543399584328"><ele>560.7142857142857</ele><time>2026-04-06T10:33:53.003Z</time></trkpt><trkpt lat="47.39718615194441" lon="6.91545973213466"><ele>560.5714285714286</ele><time>2026-04-06T10:34:58.003Z</time></trkpt><trkpt lat="47.397260427766305" lon="6.9154788974045225"><ele>560.4285714285714</ele><time>2026-04-06T10:35:06.003Z</time></trkpt><trkpt lat="47.39733065392171" lon="6.915480969550136"><ele>560.2857142857142</ele><time>2026-04-06T10:35:14.003Z</time></trkpt><trkpt lat="47.39741337789309" lon="6.915480062381614"><ele>560.1428571428571</ele><time>2026-04-06T10:35:20.003Z</time></trkpt><trkpt lat="47.397476586888516" lon="6.915518443945951"><ele>560.0</ele><time>2026-04-06T10:35:27.003Z</time></trkpt><trkpt lat="47.39754397569256" lon="6.915493896269678"><ele>560.0</ele><time>2026-04-06T10:35:32.003Z</time></trkpt><trkpt lat="47.39760908776136" lon="6.915494112981633"><ele>560.0</ele><time>2026-04-06T10:35:44.003Z</time></trkpt><trkpt lat="47.397673457101135" lon="6.915514575947384"><ele>560.0</ele><time>2026-04-06T10:35:53.004Z</time></trkpt><trkpt lat="47.3977593453034" lon="6.915524581241776"><ele>560.0</ele><time>2026-04-06T10:36:04.004Z</time></trkpt><trkpt lat="47.39785765771182" lon="6.915508326422513"><ele>560.0</ele><time>2026-04-06T10:36:33Z</time></trkpt><trkpt lat="47.397923136511395" lon="6.91551471109128"><ele>560.0</ele><time>2026-04-06T10:36:41Z</time></trkpt><trkpt lat="47.39799020925398" lon="6.915528169010125"><ele>560.0</ele><time>2026-04-06T10:36:51Z</time></trkpt><trkpt lat="47.39805414256982" lon="6.915509590825045"><ele>561.6666666666666</ele><time>2026-04-06T10:36:58Z</time></trkpt><trkpt lat="47.398131438234984" lon="6.915501091168244"><ele>563.3333333333333</ele><time>2026-04-06T10:37:19Z</time></trkpt><trkpt lat="47.398183480844196" lon="6.915557349437919"><ele>565.0</ele><time>2026-04-06T10:37:27Z</time></trkpt><trkpt lat="47.39826555159009" lon="6.915545215045244"><ele>566.6666666666666</ele><time>2026-04-06T10:37:36Z</time></trkpt><trkpt lat="47.39832132084401" lon="6.9155906865042756"><ele>568.3333333333334</ele><time>2026-04-06T10:37:43Z</time></trkpt><trkpt lat="47.39840666511981" lon="6.915557326940223"><ele>570.0</ele><time>2026-04-06T10:37:50.001Z</time></trkpt><trkpt lat="47.39847619609049" lon="6.915501143942514"><ele>570.0</ele><time>2026-04-06T10:38:06.001Z</time></trkpt><trkpt lat="47.39854631715283" lon="6.915525546972942"><ele>570.0</ele><time>2026-04-06T10:38:15.001Z</time></trkpt><trkpt lat="47.39861722118236" lon="6.915520680717499"><ele>570.0</ele><time>2026-04-06T10:38:21.001Z</time></trkpt><trkpt lat="47.3986834824459" lon="6.915512494596043"><ele>570.0</ele><time>2026-04-06T10:38:27.001Z</time></trkpt><trkpt lat="47.39875283263043" lon="6.915504890645998"><ele>570.0</ele><time>2026-04-06T10:38:36.001Z</time></trkpt><trkpt lat="47.398821982963916" lon="6.915510867663907"><ele>570.0</ele><time>2026-04-06T10:38:43.001Z</time></trkpt><trkpt lat="47.39892554881908" lon="6.915496254437765"><ele>570.5714285714286</ele><time>2026-04-06T10:38:59.001Z</time></trkpt><trkpt lat="47.39898490148124" lon="6.915451390455531"><ele>571.1428571428571</ele><time>2026-04-06T10:39:04.001Z</time></trkpt><trkpt lat="47.399031204983714" lon="6.915519878171454"><ele>571.7142857142858</ele><time>2026-04-06T10:39:40.002Z</time></trkpt><trkpt lat="47.399129348170014" lon="6.915479319767324"><ele>572.2857142857142</ele><time>2026-04-06T10:40:25.002Z</time></trkpt><trkpt lat="47.39917763391442" lon="6.915557051026383"><ele>572.8571428571429</ele><time>2026-04-06T10:40:35.002Z</time></trkpt><trkpt lat="47.39922962157839" lon="6.915637997896877"><ele>573.4285714285714</ele><time>2026-04-06T10:40:41.002Z</time></trkpt><trkpt lat="47.39928385854165" lon="6.915693530822556"><ele>574.0</ele><time>2026-04-06T10:40:46.002Z</time></trkpt><trkpt lat="47.39933177238623" lon="6.915755104467585"><ele>574.0</ele><time>2026-04-06T10:40:51.002Z</time></trkpt><trkpt lat="47.399392966121596" lon="6.915827308658789"><ele>574.0</ele><time>2026-04-06T10:40:57.003Z</time></trkpt><trkpt lat="47.39945346500104" lon="6.915872327664984"><ele>574.0</ele><time>2026-04-06T10:41:06.003Z</time></trkpt><trkpt lat="47.39952131936042" lon="6.91589535934793"><ele>574.0</ele><time>2026-04-06T10:41:14.003Z</time></trkpt><trkpt lat="47.399577726754714" lon="6.915946113858995"><ele>574.0</ele><time>2026-04-06T10:41:20.003Z</time></trkpt><trkpt lat="47.399627245880616" lon="6.9160149230171895"><ele>574.0</ele><time>2026-04-06T10:41:27.003Z</time></trkpt><trkpt lat="47.39966676764556" lon="6.9160999660867235"><ele>574.0</ele><time>2026-04-06T10:41:35.003Z</time></trkpt><trkpt lat="47.39972678909206" lon="6.9161312462660165"><ele>574.0</ele><time>2026-04-06T10:41:44.003Z</time></trkpt><trkpt lat="47.399782270314084" lon="6.916192805455887"><ele>574.0</ele><time>2026-04-06T10:41:55.003Z</time></trkpt><trkpt lat="47.39987100509818" lon="6.91613768465706"><ele>574.0</ele><time>2026-04-06T10:42:48.004Z</time></trkpt><trkpt lat="47.39982357057239" lon="6.91607463381605"><ele>574.0</ele><time>2026-04-06T10:43:10.004Z</time></trkpt><trkpt lat="47.399766777393076" lon="6.9160133319853445"><ele>574.0</ele><time>2026-04-06T10:43:19.002Z</time></trkpt><trkpt lat="47.39970660219776" lon="6.915957845538232"><ele>574.0</ele><time>2026-04-06T10:43:25.002Z</time></trkpt><trkpt lat="47.399645660784586" lon="6.915915027494435"><ele>574.0</ele><time>2026-04-06T10:43:32.001Z</time></trkpt><trkpt lat="47.399573919184434" lon="6.915885145603792"><ele>574.0</ele><time>2026-04-06T10:43:37.001Z</time></trkpt><trkpt lat="47.39951221794935" lon="6.915839103658145"><ele>574.0</ele><time>2026-04-06T10:43:41.001Z</time></trkpt><trkpt lat="47.39945781316818" lon="6.915791669854353"><ele>574.0</ele><time>2026-04-06T10:43:47Z</time></trkpt><trkpt lat="47.39939338996795" lon="6.915756464164768"><ele>574.0</ele><time>2026-04-06T10:43:52Z</time></trkpt><trkpt lat="47.39932878767012" lon="6.915708394325066"><ele>574.0</ele><time>2026-04-06T10:43:58Z</time></trkpt><trkpt lat="47.39927347632329" lon="6.91565650438662"><ele>574.0</ele><time>2026-04-06T10:44:06Z</time></trkpt><trkpt lat="47.39921030698446" lon="6.915605453294868"><ele>574.0</ele><time>2026-04-06T10:44:14Z</time></trkpt><trkpt lat="47.3991393793114" lon="6.915584538870131"><ele>574.0</ele><time>2026-04-06T10:44:19Z</time></trkpt><trkpt lat="47.3991065588515" lon="6.915502186508702"><ele>574.0</ele><time>2026-04-06T10:44:35.001Z</time></trkpt><trkpt lat="47.39910365431314" lon="6.915393702345451"><ele>574.0</ele><time>2026-04-06T10:44:41.001Z</time></trkpt><trkpt lat="47.39911900758122" lon="6.9153005043148825"><ele>574.0</ele><time>2026-04-06T10:44:49.001Z</time></trkpt><trkpt lat="47.399140106697" lon="6.91521209615221"><ele>574.0</ele><time>2026-04-06T10:44:53.001Z</time></trkpt><trkpt lat="47.39917261167592" lon="6.915124752282844"><ele>574.0</ele><time>2026-04-06T10:44:59.001Z</time></trkpt><trkpt lat="47.39920100985808" lon="6.91502866046242"><ele>574.0</ele><time>2026-04-06T10:45:04.001Z</time></trkpt><trkpt lat="47.399209010546386" lon="6.9149305069678"><ele>563.0</ele><time>2026-04-06T10:45:09.001Z</time></trkpt><trkpt lat="47.39924256706199" lon="6.914823666725321"><ele>563.0</ele><time>2026-04-06T10:45:14.001Z</time></trkpt><trkpt lat="47.39928446169377" lon="6.914747616579165"><ele>563.0</ele><time>2026-04-06T10:45:19.001Z</time></trkpt><trkpt lat="47.39934122716496" lon="6.914682260926753"><ele>563.0</ele><time>2026-04-06T10:45:25.001Z</time></trkpt><trkpt lat="47.39940430254783" lon="6.914676639834561"><ele>563.0</ele><time>2026-04-06T10:45:32.001Z</time></trkpt><trkpt lat="47.399362696619285" lon="6.914748476560228"><ele>563.0</ele><time>2026-04-06T10:45:48.001Z</time></trkpt></trkseg><trkseg><trkpt lat="47.39942197959726" lon="6.914755405891246"><ele>563.0</ele><time>2026-04-06T11:04:08.003Z</time></trkpt><trkpt lat="47.39938738700852" lon="6.914861913522151"><ele>563.0</ele><time>2026-04-06T11:04:15.003Z</time></trkpt><trkpt lat="47.39933602238224" lon="6.914916130017693"><ele>563.0</ele><time>2026-04-06T11:04:21.003Z</time></trkpt><trkpt lat="47.39929264307589" lon="6.915000488793625"><ele>563.0</ele><time>2026-04-06T11:04:29.003Z</time></trkpt><trkpt lat="47.39923646512979" lon="6.915061622334079"><ele>563.0</ele><time>2026-04-06T11:04:33.002Z</time></trkpt><trkpt lat="47.39917729472251" lon="6.915124444747029"><ele>563.0</ele><time>2026-04-06T11:04:37.002Z</time></trkpt><trkpt lat="47.399127522100116" lon="6.915190255859513"><ele>563.0</ele><time>2026-04-06T11:04:41.001Z</time></trkpt><trkpt lat="47.399095878806456" lon="6.9152851590512565"><ele>564.5714285714286</ele><time>2026-04-06T11:04:45.001Z</time></trkpt><trkpt lat="47.3990719482493" lon="6.91538220714182"><ele>566.1428571428571</ele><time>2026-04-06T11:04:51.001Z</time></trkpt><trkpt lat="47.39907169653871" lon="6.915481912726139"><ele>567.7142857142858</ele><time>2026-04-06T11:04:57Z</time></trkpt><trkpt lat="47.399083965947426" lon="6.915574587137439"><ele>569.2857142857142</ele><time>2026-04-06T11:05:04Z</time></trkpt><trkpt lat="47.39913037349904" lon="6.915644043640214"><ele>570.8571428571429</ele><time>2026-04-06T11:05:14Z</time></trkpt><trkpt lat="47.399170974201645" lon="6.915725418440703"><ele>572.4285714285714</ele><time>2026-04-06T11:05:23Z</time></trkpt><trkpt lat="47.39922418529502" lon="6.915793928553684"><ele>574.0</ele><time>2026-04-06T11:05:34Z</time></trkpt><trkpt lat="47.39928828209955" lon="6.915852378736907"><ele>574.3333333333334</ele><time>2026-04-06T11:05:44Z</time></trkpt><trkpt lat="47.39933779811917" lon="6.915910272314032"><ele>574.6666666666667</ele><time>2026-04-06T11:05:51Z</time></trkpt><trkpt lat="47.399408202957304" lon="6.915932107913522"><ele>575.0</ele><time>2026-04-06T11:06:06Z</time></trkpt><trkpt lat="47.39948230865848" lon="6.915940374905451"><ele>575.3333333333334</ele><time>2026-04-06T11:06:21Z</time></trkpt><trkpt lat="47.39965175031485" lon="6.915962245912292"><ele>575.6666666666666</ele><time>2026-04-06T11:07:09.001Z</time></trkpt><trkpt lat="47.39968114221186" lon="6.9160481719049445"><ele>576.0</ele><time>2026-04-06T11:07:33.001Z</time></trkpt><trkpt lat="47.39974177801236" lon="6.916119102530338"><ele>576.0000000000001</ele><time>2026-04-06T11:07:50.001Z</time></trkpt><trkpt lat="47.39978797914323" lon="6.9161969299638475"><ele>576.0</ele><time>2026-04-06T11:08:04.001Z</time></trkpt><trkpt lat="47.39984644134264" lon="6.9162654881161405"><ele>576.0</ele><time>2026-04-06T11:08:16.002Z</time></trkpt><trkpt lat="47.399905310758335" lon="6.916318906304695"><ele>576.0</ele><time>2026-04-06T11:08:25.002Z</time></trkpt><trkpt lat="47.39996288657183" lon="6.916369881946364"><ele>576.0</ele><time>2026-04-06T11:08:31.002Z</time></trkpt><trkpt lat="47.400019880132696" lon="6.916439402167063"><ele>576.0000000000001</ele><time>2026-04-06T11:08:38.002Z</time></trkpt><trkpt lat="47.400070295575624" lon="6.9165044301995895"><ele>576.0</ele><time>2026-04-06T11:08:45.002Z</time></trkpt><trkpt lat="47.4001303157608" lon="6.916565388934615"><ele>576.0000000000001</ele><time>2026-04-06T11:08:52.002Z</time></trkpt><trkpt lat="47.400188718678194" lon="6.916609050496605"><ele>576.0</ele><time>2026-04-06T11:08:57.002Z</time></trkpt><trkpt lat="47.400235121895115" lon="6.9166775362841415"><ele>576.0</ele><time>2026-04-06T11:09:04.002Z</time></trkpt><trkpt lat="47.40028936194317" lon="6.916742550181768"><ele>576.0</ele><time>2026-04-06T11:09:12.002Z</time></trkpt><trkpt lat="47.40034431125043" lon="6.916788650789632"><ele>576.0</ele><time>2026-04-06T11:09:19.002Z</time></trkpt><trkpt lat="47.40040363768814" lon="6.916853977725701"><ele>576.0000000000001</ele><time>2026-04-06T11:09:27.002Z</time></trkpt><trkpt lat="47.40047196819467" lon="6.91688407660151"><ele>576.0</ele><time>2026-04-06T11:09:39.002Z</time></trkpt><trkpt lat="47.40054319909973" lon="6.916899547129723"><ele>576.2857142857143</ele><time>2026-04-06T11:09:46.002Z</time></trkpt><trkpt lat="47.40062103342265" lon="6.9169110259255975"><ele>576.5714285714286</ele><time>2026-04-06T11:09:54.002Z</time></trkpt><trkpt lat="47.40069499461761" lon="6.916930596635359"><ele>576.8571428571429</ele><time>2026-04-06T11:10:01.003Z</time></trkpt><trkpt lat="47.400761362810705" lon="6.916962807087147"><ele>577.1428571428571</ele><time>2026-04-06T11:10:07.003Z</time></trkpt><trkpt lat="47.40082923890978" lon="6.916944349550377"><ele>577.4285714285714</ele><time>2026-04-06T11:10:12.003Z</time></trkpt><trkpt lat="47.400893841791365" lon="6.916960036913554"><ele>577.7142857142858</ele><time>2026-04-06T11:10:18.003Z</time></trkpt><trkpt lat="47.40095686715255" lon="6.916969544249693"><ele>578.0</ele><time>2026-04-06T11:10:24.003Z</time></trkpt><trkpt lat="47.40102271376066" lon="6.916974047542266"><ele>578.0</ele><time>2026-04-06T11:10:30.003Z</time></trkpt><trkpt lat="47.40109545790206" lon="6.916985325003613"><ele>578.0</ele><time>2026-04-06T11:10:36.003Z</time></trkpt><trkpt lat="47.40116419231245" lon="6.917017295228421"><ele>578.0</ele><time>2026-04-06T11:10:42.003Z</time></trkpt><trkpt lat="47.40122602790643" lon="6.917046121209312"><ele>578.0</ele><time>2026-04-06T11:10:49.003Z</time></trkpt><trkpt lat="47.40129360638657" lon="6.917062804970704"><ele>578.0</ele><time>2026-04-06T11:10:57.003Z</time></trkpt><trkpt lat="47.401356263100745" lon="6.917086239768156"><ele>578.0</ele><time>2026-04-06T11:11:03.003Z</time></trkpt><trkpt lat="47.40142173363961" lon="6.917080228348647"><ele>578.0</ele><time>2026-04-06T11:11:09.003Z</time></trkpt><trkpt lat="47.40148761466093" lon="6.9170970985471625"><ele>578.2857142857143</ele><time>2026-04-06T11:11:15.003Z</time></trkpt><trkpt lat="47.40155596313939" lon="6.917104448545236"><ele>578.5714285714286</ele><time>2026-04-06T11:11:21.003Z</time></trkpt><trkpt lat="47.40162499245717" lon="6.917143711690906"><ele>578.8571428571429</ele><time>2026-04-06T11:11:29.003Z</time></trkpt><trkpt lat="47.40168486716993" lon="6.917109756932026"><ele>579.1428571428571</ele><time>2026-04-06T11:11:40.002Z</time></trkpt><trkpt lat="47.40175742202668" lon="6.91712486010811"><ele>579.4285714285714</ele><time>2026-04-06T11:11:47.001Z</time></trkpt><trkpt lat="47.401821319548915" lon="6.917152292868951"><ele>579.7142857142858</ele><time>2026-04-06T11:11:55.001Z</time></trkpt><trkpt lat="47.4018859967653" lon="6.9171732834933"><ele>580.0</ele><time>2026-04-06T11:12:03.001Z</time></trkpt><trkpt lat="47.40194684152157" lon="6.917209852047377"><ele>580.0</ele><time>2026-04-06T11:12:10.001Z</time></trkpt><trkpt lat="47.40201094630752" lon="6.917258983601762"><ele>580.0</ele><time>2026-04-06T11:12:18.001Z</time></trkpt><trkpt lat="47.40207558107495" lon="6.917293867000379"><ele>580.0</ele><time>2026-04-06T11:12:23.001Z</time></trkpt><trkpt lat="47.40213767555429" lon="6.917277396536807"><ele>580.0</ele><time>2026-04-06T11:12:28.001Z</time></trkpt><trkpt lat="47.40220120080449" lon="6.9172779428817295"><ele>580.0</ele><time>2026-04-06T11:12:35.001Z</time></trkpt><trkpt lat="47.40226903491617" lon="6.917258427342377"><ele>580.0</ele><time>2026-04-06T11:12:44.001Z</time></trkpt><trkpt lat="47.40232338631741" lon="6.917307682401251"><ele>580.0</ele><time>2026-04-06T11:13:10.001Z</time></trkpt><trkpt lat="47.402419611608124" lon="6.917351853804314"><ele>578.5</ele><time>2026-04-06T11:13:28.001Z</time></trkpt><trkpt lat="47.4024849630936" lon="6.917381527752166"><ele>577.0</ele><time>2026-04-06T11:13:37.001Z</time></trkpt><trkpt lat="47.402542360035135" lon="6.917437823555526"><ele>575.5</ele><time>2026-04-06T11:13:44.001Z</time></trkpt><trkpt lat="47.402603295604486" lon="6.917480743565695"><ele>574.0</ele><time>2026-04-06T11:13:53.001Z</time></trkpt><trkpt lat="47.402702616964014" lon="6.9175360911190475"><ele>572.5</ele><time>2026-04-06T11:14:06.002Z</time></trkpt><trkpt lat="47.40277240743331" lon="6.917569755198247"><ele>571.0</ele><time>2026-04-06T11:14:25.002Z</time></trkpt><trkpt lat="47.4028632004993" lon="6.917574590369645"><ele>571.0</ele><time>2026-04-06T11:14:32.002Z</time></trkpt><trkpt lat="47.40292570069978" lon="6.917588310508494"><ele>571.0</ele><time>2026-04-06T11:14:37.002Z</time></trkpt><trkpt lat="47.40302583249" lon="6.917611044305031"><ele>571.0</ele><time>2026-04-06T11:14:49.001Z</time></trkpt><trkpt lat="47.40309541664778" lon="6.917641242264084"><ele>571.0</ele><time>2026-04-06T11:14:53.001Z</time></trkpt><trkpt lat="47.40316272262139" lon="6.917687067350201"><ele>571.0</ele><time>2026-04-06T11:14:58.001Z</time></trkpt><trkpt lat="47.4032319636553" lon="6.91771420360247"><ele>571.0</ele><time>2026-04-06T11:15:03.001Z</time></trkpt><trkpt lat="47.40329618696528" lon="6.917689331562836"><ele>571.0</ele><time>2026-04-06T11:15:07.001Z</time></trkpt><trkpt lat="47.403413255641965" lon="6.91757454235704"><ele>567.3333333333334</ele><time>2026-04-06T11:16:01.002Z</time></trkpt><trkpt lat="47.403419540234346" lon="6.917476969163193"><ele>563.6666666666667</ele><time>2026-04-06T11:16:10.002Z</time></trkpt><trkpt lat="47.40341632590259" lon="6.917376910729818"><ele>560.0</ele><time>2026-04-06T11:16:14.002Z</time></trkpt><trkpt lat="47.40335604921925" lon="6.917321372919626"><ele>556.3333333333334</ele><time>2026-04-06T11:16:31.002Z</time></trkpt><trkpt lat="47.403296199357726" lon="6.917128508749238"><ele>552.6666666666666</ele><time>2026-04-06T11:16:59.003Z</time></trkpt><trkpt lat="47.40327229913167" lon="6.917034232314531"><ele>549.0</ele><time>2026-04-06T11:17:18.003Z</time></trkpt><trkpt lat="47.40324889276563" lon="6.916941632257524"><ele>549.0</ele><time>2026-04-06T11:17:28.003Z</time></trkpt><trkpt lat="47.403222277761195" lon="6.916854602488655"><ele>549.0</ele><time>2026-04-06T11:18:09.003Z</time></trkpt><trkpt lat="47.403182160715616" lon="6.916769607832956"><ele>549.0</ele><time>2026-04-06T11:18:25.004Z</time></trkpt><trkpt lat="47.40315575022832" lon="6.916677945671616"><ele>549.0</ele><time>2026-04-06T11:18:37.004Z</time></trkpt><trkpt lat="47.40313718069827" lon="6.916589008180053"><ele>549.0</ele><time>2026-04-06T11:18:53.002Z</time></trkpt><trkpt lat="47.403137987884" lon="6.916489333540463"><ele>549.0</ele><time>2026-04-06T11:19:01.001Z</time></trkpt><trkpt lat="47.403113792982" lon="6.9163971963535555"><ele>549.0</ele><time>2026-04-06T11:19:15Z</time></trkpt><trkpt lat="47.403097056264194" lon="6.9162975881828475"><ele>548.1428571428571</ele><time>2026-04-06T11:19:23Z</time></trkpt><trkpt lat="47.40307540029708" lon="6.916190291166821"><ele>547.2857142857143</ele><time>2026-04-06T11:19:33Z</time></trkpt><trkpt lat="47.40307396811417" lon="6.916084602510279"><ele>546.4285714285714</ele><time>2026-04-06T11:19:57Z</time></trkpt><trkpt lat="47.40309165315484" lon="6.915991753154342"><ele>545.5714285714286</ele><time>2026-04-06T11:20:11.001Z</time></trkpt><trkpt lat="47.403089578502694" lon="6.915892436202801"><ele>544.7142857142857</ele><time>2026-04-06T11:20:29.001Z</time></trkpt><trkpt lat="47.40304448862331" lon="6.915819370128029"><ele>543.8571428571429</ele><time>2026-04-06T11:20:49.001Z</time></trkpt><trkpt lat="47.4030063056073" lon="6.915726259340382"><ele>543.0</ele><time>2026-04-06T11:20:56.001Z</time></trkpt><trkpt lat="47.402983202620646" lon="6.915638055086204"><ele>543.0</ele><time>2026-04-06T11:21:03.001Z</time></trkpt><trkpt lat="47.40295875644453" lon="6.915548832875651"><ele>543.0</ele><time>2026-04-06T11:21:10.001Z</time></trkpt><trkpt lat="47.40293490977075" lon="6.915461032326746"><ele>543.0</ele><time>2026-04-06T11:21:19.001Z</time></trkpt><trkpt lat="47.402913728108416" lon="6.915373430607603"><ele>543.0</ele><time>2026-04-06T11:21:26.001Z</time></trkpt><trkpt lat="47.402858803631304" lon="6.915327966937754"><ele>543.0</ele><time>2026-04-06T11:21:39.002Z</time></trkpt><trkpt lat="47.4028720918554" lon="6.915211403715461"><ele>543.0</ele><time>2026-04-06T11:21:58.002Z</time></trkpt><trkpt lat="47.40286789939888" lon="6.9151180640528125"><ele>543.0</ele><time>2026-04-06T11:22:05.002Z</time></trkpt><trkpt lat="47.40285218494539" lon="6.915014644454176"><ele>540.5714285714286</ele><time>2026-04-06T11:22:13.002Z</time></trkpt><trkpt lat="47.40281183616282" lon="6.914936641722172"><ele>538.1428571428571</ele><time>2026-04-06T11:22:35.002Z</time></trkpt><trkpt lat="47.40276144363408" lon="6.914879159829109"><ele>535.7142857142857</ele><time>2026-04-06T11:22:46.002Z</time></trkpt><trkpt lat="47.40270065857526" lon="6.914814262031054"><ele>533.2857142857142</ele><time>2026-04-06T11:22:56.002Z</time></trkpt><trkpt lat="47.402718609843106" lon="6.91469765253795"><ele>530.8571428571428</ele><time>2026-04-06T11:23:14.003Z</time></trkpt><trkpt lat="47.40274069778819" lon="6.914581816564377"><ele>528.4285714285714</ele><time>2026-04-06T11:23:30.003Z</time></trkpt><trkpt lat="47.40273339481463" lon="6.914477349387649"><ele>526.0</ele><time>2026-04-06T11:23:38.003Z</time></trkpt><trkpt lat="47.40275685655356" lon="6.914387697733284"><ele>526.0</ele><time>2026-04-06T11:23:46.003Z</time></trkpt><trkpt lat="47.40278624691997" lon="6.914302031125606"><ele>526.0</ele><time>2026-04-06T11:23:51.003Z</time></trkpt><trkpt lat="47.40280610023926" lon="6.914191538292276"><ele>526.0</ele><time>2026-04-06T11:23:59.003Z</time></trkpt><trkpt lat="47.40278141335199" lon="6.9141011547874145"><ele>526.0</ele><time>2026-04-06T11:24:06.003Z</time></trkpt><trkpt lat="47.40278338868021" lon="6.914003055727797"><ele>526.0</ele><time>2026-04-06T11:24:15.003Z</time></trkpt><trkpt lat="47.40279562201111" lon="6.913911184756626"><ele>526.0</ele><time>2026-04-06T11:24:22.003Z</time></trkpt><trkpt lat="47.402782064102944" lon="6.91381773782071"><ele>526.0</ele><time>2026-04-06T11:24:44.004Z</time></trkpt><trkpt lat="47.40273674251307" lon="6.913730131432473"><ele>524.2857142857142</ele><time>2026-04-06T11:24:56.004Z</time></trkpt><trkpt lat="47.40273908807257" lon="6.913633698512998"><ele>522.5714285714286</ele><time>2026-04-06T11:25:04.004Z</time></trkpt><trkpt lat="47.402711185225215" lon="6.913530134146444"><ele>520.8571428571429</ele><time>2026-04-06T11:25:22.004Z</time></trkpt><trkpt lat="47.40266412833462" lon="6.913442795293075"><ele>519.1428571428571</ele><time>2026-04-06T11:25:29.004Z</time></trkpt><trkpt lat="47.40266738032626" lon="6.913335166939815"><ele>517.4285714285714</ele><time>2026-04-06T11:25:42.004Z</time></trkpt><trkpt lat="47.402666705721394" lon="6.9132386194725886"><ele>515.7142857142857</ele><time>2026-04-06T11:25:56.002Z</time></trkpt><trkpt lat="47.402626210593304" lon="6.9131672132705795"><ele>514.0</ele><time>2026-04-06T11:26:06.001Z</time></trkpt><trkpt lat="47.40259910856315" lon="6.9130712315948895"><ele>512.3333333333334</ele><time>2026-04-06T11:26:16.001Z</time></trkpt><trkpt lat="47.40262016814707" lon="6.912969129645869"><ele>510.6666666666667</ele><time>2026-04-06T11:26:26.001Z</time></trkpt><trkpt lat="47.40258766879732" lon="6.912879095458546"><ele>509.0</ele><time>2026-04-06T11:26:46.001Z</time></trkpt><trkpt lat="47.40256605863548" lon="6.912791241409056"><ele>507.33333333333337</ele><time>2026-04-06T11:26:56.001Z</time></trkpt><trkpt lat="47.40256397105312" lon="6.9126979808824105"><ele>505.6666666666667</ele><time>2026-04-06T11:27:10.001Z</time></trkpt><trkpt lat="47.40252638596393" lon="6.912576883388527"><ele>504.0</ele><time>2026-04-06T11:27:33.001Z</time></trkpt><trkpt lat="47.402500188949595" lon="6.912358306972672"><ele>502.1666666666667</ele><time>2026-04-06T11:28:38.002Z</time></trkpt><trkpt lat="47.40250280196042" lon="6.912264379092978"><ele>500.33333333333337</ele><time>2026-04-06T11:28:54.002Z</time></trkpt><trkpt lat="47.40246978506904" lon="6.912181019561543"><ele>498.5</ele><time>2026-04-06T11:29:14.002Z</time></trkpt><trkpt lat="47.40248227533798" lon="6.912087318707631"><ele>496.6666666666667</ele><time>2026-04-06T11:29:31.002Z</time></trkpt><trkpt lat="47.402464130982935" lon="6.911969192755117"><ele>494.83333333333337</ele><time>2026-04-06T11:29:46.003Z</time></trkpt><trkpt lat="47.402478664990404" lon="6.911878072969346"><ele>493.0</ele><time>2026-04-06T11:29:52.003Z</time></trkpt><trkpt lat="47.40251390270961" lon="6.911714943281626"><ele>491.42857142857144</ele><time>2026-04-06T11:30:10.003Z</time></trkpt><trkpt lat="47.40252546778144" lon="6.911620320064482"><ele>489.8571428571429</ele><time>2026-04-06T11:30:25.003Z</time></trkpt><trkpt lat="47.40253498117259" lon="6.911519738003735"><ele>488.28571428571433</ele><time>2026-04-06T11:30:31.003Z</time></trkpt><trkpt lat="47.40253407077536" lon="6.911416677383533"><ele>486.7142857142857</ele><time>2026-04-06T11:30:39.003Z</time></trkpt><trkpt lat="47.402559045209756" lon="6.9113311665826895"><ele>485.1428571428572</ele><time>2026-04-06T11:30:52.003Z</time></trkpt><trkpt lat="47.40256527617086" lon="6.911233868277787"><ele>483.5714285714286</ele><time>2026-04-06T11:31:00.003Z</time></trkpt><trkpt lat="47.402578648757554" lon="6.911138767313089"><ele>482.0</ele><time>2026-04-06T11:31:06.003Z</time></trkpt><trkpt lat="47.40259699518447" lon="6.911039427374805"><ele>482.0</ele><time>2026-04-06T11:31:14.004Z</time></trkpt><trkpt lat="47.402659134741235" lon="6.910995906370935"><ele>482.00000000000006</ele><time>2026-04-06T11:31:26.004Z</time></trkpt><trkpt lat="47.40271958058297" lon="6.91096261827045"><ele>482.0</ele><time>2026-04-06T11:31:32.004Z</time></trkpt><trkpt lat="47.40277616177345" lon="6.9109028485192745"><ele>482.0</ele><time>2026-04-06T11:31:43.004Z</time></trkpt><trkpt lat="47.402841643310296" lon="6.910855966355474"><ele>482.00000000000006</ele><time>2026-04-06T11:31:52.004Z</time></trkpt><trkpt lat="47.40287080645234" lon="6.910767175820566"><ele>482.0</ele><time>2026-04-06T11:31:59.004Z</time></trkpt><trkpt lat="47.40292351823517" lon="6.910713980603462"><ele>482.0</ele><time>2026-04-06T11:32:03.004Z</time></trkpt><trkpt lat="47.40293176850686" lon="6.9106047734201885"><ele>482.14285714285717</ele><time>2026-04-06T11:32:25.004Z</time></trkpt><trkpt lat="47.40297194420992" lon="6.910512830347283"><ele>482.28571428571433</ele><time>2026-04-06T11:32:34.005Z</time></trkpt><trkpt lat="47.40301608639953" lon="6.91044295067089"><ele>482.42857142857144</ele><time>2026-04-06T11:32:42.005Z</time></trkpt><trkpt lat="47.40307348059479" lon="6.910388789191038"><ele>482.57142857142856</ele><time>2026-04-06T11:32:49.005Z</time></trkpt><trkpt lat="47.4031229220503" lon="6.9103217115996305"><ele>482.7142857142857</ele><time>2026-04-06T11:32:56.004Z</time></trkpt><trkpt lat="47.40318099910343" lon="6.910279697681816"><ele>482.8571428571429</ele><time>2026-04-06T11:33:01.003Z</time></trkpt><trkpt lat="47.403238911657375" lon="6.910214436574553"><ele>483.0</ele><time>2026-04-06T11:33:08.002Z</time></trkpt><trkpt lat="47.40326403375671" lon="6.9101182043304235"><ele>478.8333333333333</ele><time>2026-04-06T11:33:25.001Z</time></trkpt><trkpt lat="47.40329316343081" lon="6.910029152254834"><ele>474.66666666666663</ele><time>2026-04-06T11:33:30.001Z</time></trkpt><trkpt lat="47.40331257349767" lon="6.90991426837682"><ele>470.5</ele><time>2026-04-06T11:33:36.001Z</time></trkpt><trkpt lat="47.40330238162858" lon="6.909797048803"><ele>466.3333333333333</ele><time>2026-04-06T11:33:45.001Z</time></trkpt><trkpt lat="47.40335030359108" lon="6.909726602807734"><ele>462.16666666666663</ele><time>2026-04-06T11:33:51.001Z</time></trkpt><trkpt lat="47.40339782141432" lon="6.909637884892304"><ele>458.0</ele><time>2026-04-06T11:33:58.001Z</time></trkpt><trkpt lat="47.403450052912405" lon="6.909532311397786"><ele>458.0</ele><time>2026-04-06T11:34:08.001Z</time></trkpt><trkpt lat="47.40349826206295" lon="6.909461141279659"><ele>458.0</ele><time>2026-04-06T11:34:13.001Z</time></trkpt><trkpt lat="47.40355050313112" lon="6.909408074227334"><ele>458.0</ele><time>2026-04-06T11:34:20.001Z</time></trkpt><trkpt lat="47.403595062955546" lon="6.909328071259733"><ele>458.0</ele><time>2026-04-06T11:34:27.001Z</time></trkpt><trkpt lat="47.40364208547032" lon="6.909256908821203"><ele>458.0</ele><time>2026-04-06T11:34:34.001Z</time></trkpt><trkpt lat="47.40369363321449" lon="6.909193601059384"><ele>458.0</ele><time>2026-04-06T11:34:46.001Z</time></trkpt><trkpt lat="47.403697703036464" lon="6.909097293491851"><ele>458.0</ele><time>2026-04-06T11:35:08.001Z</time></trkpt><trkpt lat="47.4036259253855" lon="6.90912515335723"><ele>455.16666666666663</ele><time>2026-04-06T11:35:21.001Z</time></trkpt><trkpt lat="47.403560748099416" lon="6.9090879386827595"><ele>452.3333333333333</ele><time>2026-04-06T11:35:30.001Z</time></trkpt><trkpt lat="47.40348321117164" lon="6.909044403259984"><ele>449.5</ele><time>2026-04-06T11:35:34.001Z</time></trkpt><trkpt lat="47.40342129839676" lon="6.908968067366239"><ele>446.66666666666663</ele><time>2026-04-06T11:35:37.001Z</time></trkpt><trkpt lat="47.40336687597998" lon="6.9088610613529085"><ele>443.8333333333333</ele><time>2026-04-06T11:35:41.001Z</time></trkpt><trkpt lat="47.40329964728958" lon="6.908806025766514"><ele>441.0</ele><time>2026-04-06T11:35:44.001Z</time></trkpt><trkpt lat="47.40326508000745" lon="6.9087154102549535"><ele>441.0</ele><time>2026-04-06T11:35:51.001Z</time></trkpt><trkpt lat="47.40321361532897" lon="6.908608842258075"><ele>441.0</ele><time>2026-04-06T11:35:55.001Z</time></trkpt><trkpt lat="47.403148320318294" lon="6.908553761070156"><ele>441.0</ele><time>2026-04-06T11:35:59.001Z</time></trkpt><trkpt lat="47.40309109078354" lon="6.908480019673721"><ele>441.0</ele><time>2026-04-06T11:36:05.001Z</time></trkpt><trkpt lat="47.40302641225772" lon="6.908470409489554"><ele>441.0</ele><time>2026-04-06T11:36:14.002Z</time></trkpt><trkpt lat="47.40299222914917" lon="6.90837391772891"><ele>441.0</ele><time>2026-04-06T11:36:48.002Z</time></trkpt><trkpt lat="47.402940567974255" lon="6.908303642564297"><ele>441.0</ele><time>2026-04-06T11:36:55.002Z</time></trkpt><trkpt lat="47.40288895974886" lon="6.908232035762715"><ele>442.5</ele><time>2026-04-06T11:37:03.002Z</time></trkpt><trkpt lat="47.40282058390048" lon="6.908201848422305"><ele>444.0</ele><time>2026-04-06T11:37:07.002Z</time></trkpt><trkpt lat="47.40276099925531" lon="6.908152936397861"><ele>445.5</ele><time>2026-04-06T11:37:16.002Z</time></trkpt><trkpt lat="47.402726719163276" lon="6.908061064328993"><ele>447.0</ele><time>2026-04-06T11:37:31.002Z</time></trkpt><trkpt lat="47.40271093970372" lon="6.9079687234646165"><ele>448.5</ele><time>2026-04-06T11:37:38.002Z</time></trkpt><trkpt lat="47.40266985937659" lon="6.907824096296059"><ele>450.0</ele><time>2026-04-06T11:37:57.003Z</time></trkpt><trkpt lat="47.4026294568746" lon="6.907734298091147"><ele>450.00000000000006</ele><time>2026-04-06T11:38:03.003Z</time></trkpt><trkpt lat="47.40260743840252" lon="6.907636619312464"><ele>450.0</ele><time>2026-04-06T11:38:10.003Z</time></trkpt><trkpt lat="47.40257037902984" lon="6.907547986950128"><ele>450.00000000000006</ele><time>2026-04-06T11:38:18.003Z</time></trkpt><trkpt lat="47.40251690059572" lon="6.9074688195303375"><ele>450.00000000000006</ele><time>2026-04-06T11:38:24.003Z</time></trkpt><trkpt lat="47.40247020070698" lon="6.907399475133307"><ele>450.0</ele><time>2026-04-06T11:38:31.003Z</time></trkpt><trkpt lat="47.402431616042065" lon="6.907310080001014"><ele>450.00000000000006</ele><time>2026-04-06T11:38:39.003Z</time></trkpt><trkpt lat="47.40237974735734" lon="6.907222146315338"><ele>450.00000000000006</ele><time>2026-04-06T11:38:51.002Z</time></trkpt><trkpt lat="47.402348019799476" lon="6.90713267741568"><ele>447.28571428571433</ele><time>2026-04-06T11:38:59.001Z</time></trkpt><trkpt lat="47.40229634353421" lon="6.907042026893904"><ele>444.57142857142856</ele><time>2026-04-06T11:39:07.001Z</time></trkpt><trkpt lat="47.40227241493791" lon="6.906949371751767"><ele>441.8571428571429</ele><time>2026-04-06T11:39:12.001Z</time></trkpt><trkpt lat="47.402226182880796" lon="6.906882168995509"><ele>439.14285714285717</ele><time>2026-04-06T11:39:20Z</time></trkpt><trkpt lat="47.40222062064506" lon="6.906781828923794"><ele>436.42857142857144</ele><time>2026-04-06T11:39:26Z</time></trkpt><trkpt lat="47.40221663087988" lon="6.9066838664033"><ele>433.7142857142857</ele><time>2026-04-06T11:39:32Z</time></trkpt><trkpt lat="47.40220296741885" lon="6.906590855383366"><ele>431.0</ele><time>2026-04-06T11:39:39Z</time></trkpt><trkpt lat="47.40218840269009" lon="6.90648610106761"><ele>429.7142857142857</ele><time>2026-04-06T11:39:46Z</time></trkpt><trkpt lat="47.402178991337905" lon="6.9063835755400085"><ele>428.4285714285714</ele><time>2026-04-06T11:39:53Z</time></trkpt><trkpt lat="47.402133616675265" lon="6.906306949898763"><ele>427.1428571428571</ele><time>2026-04-06T11:39:58.001Z</time></trkpt><trkpt lat="47.40211430212357" lon="6.906217237516005"><ele>425.8571428571429</ele><time>2026-04-06T11:40:04.001Z</time></trkpt><trkpt lat="47.402075425655525" lon="6.906126175790919"><ele>424.57142857142856</ele><time>2026-04-06T11:40:09Z</time></trkpt><trkpt lat="47.4020676632177" lon="6.90602726764815"><ele>423.2857142857143</ele><time>2026-04-06T11:40:15Z</time></trkpt><trkpt lat="47.40205103048651" lon="6.905931790373251"><ele>422.0</ele><time>2026-04-06T11:40:22Z</time></trkpt><trkpt lat="47.40204388559056" lon="6.905822114592502"><ele>426.57142857142856</ele><time>2026-04-06T11:40:34Z</time></trkpt><trkpt lat="47.40202392333618" lon="6.905720602548994"><ele>431.14285714285717</ele><time>2026-04-06T11:40:40Z</time></trkpt><trkpt lat="47.40202870711273" lon="6.905622210963453"><ele>435.7142857142857</ele><time>2026-04-06T11:40:46Z</time></trkpt><trkpt lat="47.40203088484475" lon="6.90552389533761"><ele>440.28571428571433</ele><time>2026-04-06T11:40:53Z</time></trkpt><trkpt lat="47.40203233185509" lon="6.905424192701683"><ele>444.8571428571429</ele><time>2026-04-06T11:41:01Z</time></trkpt><trkpt lat="47.402033477200476" lon="6.905315713267772"><ele>449.42857142857144</ele><time>2026-04-06T11:41:07Z</time></trkpt><trkpt lat="47.40203365438385" lon="6.9052098135485425"><ele>454.0</ele><time>2026-04-06T11:41:16Z</time></trkpt><trkpt lat="47.402044274486336" lon="6.90511176268341"><ele>453.8571428571429</ele><time>2026-04-06T11:41:20Z</time></trkpt><trkpt lat="47.402055430828995" lon="6.9050186998036995"><ele>453.7142857142858</ele><time>2026-04-06T11:41:26.001Z</time></trkpt><trkpt lat="47.40204229792774" lon="6.904926402674128"><ele>453.57142857142856</ele><time>2026-04-06T11:41:32.001Z</time></trkpt><trkpt lat="47.40204433930827" lon="6.904826359959681"><ele>453.42857142857144</ele><time>2026-04-06T11:41:37.001Z</time></trkpt><trkpt lat="47.40202677480034" lon="6.9047325381423486"><ele>453.2857142857143</ele><time>2026-04-06T11:41:45.001Z</time></trkpt><trkpt lat="47.40200604233283" lon="6.904639165908857"><ele>453.1428571428571</ele><time>2026-04-06T11:41:54.001Z</time></trkpt><trkpt lat="47.40200270016813" lon="6.9045449362263875"><ele>452.99999999999994</ele><time>2026-04-06T11:42:01.001Z</time></trkpt><trkpt lat="47.401966908485925" lon="6.904461009578369"><ele>452.99999999999994</ele><time>2026-04-06T11:42:14.001Z</time></trkpt><trkpt lat="47.401946521912635" lon="6.904360957222453"><ele>453.0</ele><time>2026-04-06T11:42:34.001Z</time></trkpt><trkpt lat="47.401934899602914" lon="6.904261219863613"><ele>452.99999999999994</ele><time>2026-04-06T11:42:41.001Z</time></trkpt><trkpt lat="47.401919017698376" lon="6.904163685010522"><ele>452.99999999999994</ele><time>2026-04-06T11:42:50.001Z</time></trkpt><trkpt lat="47.401876928656776" lon="6.904075629371232"><ele>453.0</ele><time>2026-04-06T11:42:56.002Z</time></trkpt><trkpt lat="47.40184543562267" lon="6.903992456421045"><ele>452.99999999999994</ele><time>2026-04-06T11:43:02.002Z</time></trkpt><trkpt lat="47.40180628073382" lon="6.903902728867194"><ele>452.99999999999994</ele><time>2026-04-06T11:43:20.002Z</time></trkpt><trkpt lat="47.401799354750935" lon="6.903805547452459"><ele>452.8571428571428</ele><time>2026-04-06T11:43:29.002Z</time></trkpt><trkpt lat="47.40181512146542" lon="6.9037126537499915"><ele>452.71428571428567</ele><time>2026-04-06T11:43:43.002Z</time></trkpt><trkpt lat="47.40184266760113" lon="6.903615638019589"><ele>452.57142857142856</ele><time>2026-04-06T11:43:53.002Z</time></trkpt><trkpt lat="47.40180263082117" lon="6.903542010468935"><ele>452.4285714285714</ele><time>2026-04-06T11:44:02.002Z</time></trkpt><trkpt lat="47.40175934185159" lon="6.903464330300713"><ele>452.2857142857142</ele><time>2026-04-06T11:44:12.002Z</time></trkpt><trkpt lat="47.40177143004857" lon="6.903371077227996"><ele>452.14285714285717</ele><time>2026-04-06T11:44:24.003Z</time></trkpt><trkpt lat="47.40177753796816" lon="6.903276796429775"><ele>452.0</ele><time>2026-04-06T11:44:33.003Z</time></trkpt><trkpt lat="47.40180519613163" lon="6.90318695348464"><ele>451.7142857142857</ele><time>2026-04-06T11:44:42.003Z</time></trkpt><trkpt lat="47.40179483188637" lon="6.903087673563437"><ele>451.42857142857144</ele><time>2026-04-06T11:44:56.003Z</time></trkpt><trkpt lat="47.4017770629557" lon="6.902989302576283"><ele>451.14285714285717</ele><time>2026-04-06T11:45:03.003Z</time></trkpt><trkpt lat="47.4017792676315" lon="6.902861056661548"><ele>450.8571428571429</ele><time>2026-04-06T11:45:12.003Z</time></trkpt><trkpt lat="47.40178965395093" lon="6.902750487724669"><ele>450.57142857142856</ele><time>2026-04-06T11:45:16.003Z</time></trkpt><trkpt lat="47.40173643303182" lon="6.902676057286484"><ele>450.28571428571433</ele><time>2026-04-06T11:45:21.003Z</time></trkpt><trkpt lat="47.4016946997474" lon="6.902589629915905"><ele>450.00000000000006</ele><time>2026-04-06T11:45:27.003Z</time></trkpt><trkpt lat="47.40167002421252" lon="6.902492511817348"><ele>448.8333333333333</ele><time>2026-04-06T11:45:34.003Z</time></trkpt><trkpt lat="47.40163074327841" lon="6.902408222075929"><ele>447.66666666666663</ele><time>2026-04-06T11:45:40.003Z</time></trkpt><trkpt lat="47.401585877902804" lon="6.902319862705274"><ele>446.5</ele><time>2026-04-06T11:45:44.003Z</time></trkpt><trkpt lat="47.40154840110708" lon="6.902233204659599"><ele>445.3333333333333</ele><time>2026-04-06T11:45:48.003Z</time></trkpt><trkpt lat="47.401504883721785" lon="6.902165978682716"><ele>444.16666666666663</ele><time>2026-04-06T11:45:52.004Z</time></trkpt><trkpt lat="47.40146062719256" lon="6.902009872058382"><ele>443.0</ele><time>2026-04-06T11:46:53.004Z</time></trkpt><trkpt lat="47.401520863544434" lon="6.901945335369528"><ele>443.0</ele><time>2026-04-06T11:46:59.004Z</time></trkpt><trkpt lat="47.4015463561509" lon="6.901838577044161"><ele>443.0</ele><time>2026-04-06T11:47:11.003Z</time></trkpt><trkpt lat="47.401529153833046" lon="6.901743202768794"><ele>443.0</ele><time>2026-04-06T11:47:20.002Z</time></trkpt><trkpt lat="47.40153546046783" lon="6.901641116504157"><ele>443.0</ele><time>2026-04-06T11:47:26.001Z</time></trkpt><trkpt lat="47.40155844579193" lon="6.901550646662544"><ele>443.0</ele><time>2026-04-06T11:47:30.001Z</time></trkpt><trkpt lat="47.40155622785088" lon="6.901451674494103"><ele>443.0</ele><time>2026-04-06T11:47:38.001Z</time></trkpt><trkpt lat="47.40155009245154" lon="6.90134698681582"><ele>443.0</ele><time>2026-04-06T11:47:45.001Z</time></trkpt><trkpt lat="47.40155284248527" lon="6.90124783525329"><ele>441.8571428571429</ele><time>2026-04-06T11:47:51.001Z</time></trkpt><trkpt lat="47.40151412411668" lon="6.901169537225873"><ele>440.7142857142857</ele><time>2026-04-06T11:48:00.001Z</time></trkpt><trkpt lat="47.401548529993924" lon="6.901065945725477"><ele>439.57142857142856</ele><time>2026-04-06T11:48:06.001Z</time></trkpt><trkpt lat="47.401572293990256" lon="6.900978795094329"><ele>438.42857142857144</ele><time>2026-04-06T11:48:22.001Z</time></trkpt><trkpt lat="47.401559094481236" lon="6.900867835367761"><ele>437.2857142857143</ele><time>2026-04-06T11:48:29.001Z</time></trkpt><trkpt lat="47.40155345913635" lon="6.900774512679689"><ele>436.14285714285717</ele><time>2026-04-06T11:48:32.001Z</time></trkpt><trkpt lat="47.40153553339116" lon="6.900665262459567"><ele>435.0</ele><time>2026-04-06T11:48:40.001Z</time></trkpt><trkpt lat="47.40152873541465" lon="6.900568622617461"><ele>434.28571428571433</ele><time>2026-04-06T11:48:48.001Z</time></trkpt><trkpt lat="47.401520279884615" lon="6.900461101630794"><ele>433.57142857142856</ele><time>2026-04-06T11:48:57.001Z</time></trkpt><trkpt lat="47.40151564131598" lon="6.900364751087751"><ele>432.8571428571429</ele><time>2026-04-06T11:49:03.001Z</time></trkpt><trkpt lat="47.401508631846355" lon="6.900250953125407"><ele>432.14285714285717</ele><time>2026-04-06T11:49:08.001Z</time></trkpt><trkpt lat="47.40150323247591" lon="6.900154118611279"><ele>431.42857142857144</ele><time>2026-04-06T11:49:13.001Z</time></trkpt><trkpt lat="47.40149870540426" lon="6.900022316258239"><ele>430.7142857142857</ele><time>2026-04-06T11:49:35.002Z</time></trkpt><trkpt lat="47.40151811586526" lon="6.899927533320803"><ele>430.0</ele><time>2026-04-06T11:49:42.002Z</time></trkpt><trkpt lat="47.40153690207665" lon="6.899833590178646"><ele>430.57142857142856</ele><time>2026-04-06T11:49:47.002Z</time></trkpt><trkpt lat="47.401492394941805" lon="6.8997627318756205"><ele>431.14285714285717</ele><time>2026-04-06T11:50:03.002Z</time></trkpt><trkpt lat="47.40145496217425" lon="6.89967427886758"><ele>431.7142857142857</ele><time>2026-04-06T11:50:15.002Z</time></trkpt><trkpt lat="47.40139733211954" lon="6.89961843150603"><ele>432.2857142857143</ele><time>2026-04-06T11:50:23.002Z</time></trkpt><trkpt lat="47.40134106864586" lon="6.899562756368359"><ele>432.8571428571429</ele><time>2026-04-06T11:50:33.002Z</time></trkpt><trkpt lat="47.401289880943075" lon="6.8995016166918415"><ele>433.42857142857144</ele><time>2026-04-06T11:50:41.002Z</time></trkpt><trkpt lat="47.4012480122564" lon="6.899411253351004"><ele>434.0</ele><time>2026-04-06T11:50:46.002Z</time></trkpt><trkpt lat="47.40118649640447" lon="6.899343639462301"><ele>434.0</ele><time>2026-04-06T11:50:49.002Z</time></trkpt><trkpt lat="47.4011311457444" lon="6.899297582435334"><ele>434.0</ele><time>2026-04-06T11:50:54.003Z</time></trkpt><trkpt lat="47.401083289737784" lon="6.899203055893395"><ele>425.0</ele><time>2026-04-06T11:51:00.003Z</time></trkpt><trkpt lat="47.40099949805345" lon="6.8991620533165845"><ele>425.0</ele><time>2026-04-06T11:51:04.003Z</time></trkpt><trkpt lat="47.400938729578826" lon="6.8991145298531515"><ele>425.0</ele><time>2026-04-06T11:51:32.003Z</time></trkpt><trkpt lat="47.40089595124799" lon="6.899035924085866"><ele>425.0</ele><time>2026-04-06T11:51:56.003Z</time></trkpt><trkpt lat="47.4008825935029" lon="6.898944837540223"><ele>425.0</ele><time>2026-04-06T11:52:04.003Z</time></trkpt></trkseg><trkseg><trkpt lat="47.40289550426609" lon="6.890360856890849"><ele>407.00000000000006</ele><time>2026-04-06T12:15:18.003Z</time></trkpt><trkpt lat="47.40283163182161" lon="6.890307614905068"><ele>407.0</ele><time>2026-04-06T12:18:39.002Z</time></trkpt><trkpt lat="47.402769991451365" lon="6.890276207025313"><ele>407.0</ele><time>2026-04-06T12:18:45.002Z</time></trkpt><trkpt lat="47.40271006340938" lon="6.890211486059408"><ele>407.0</ele><time>2026-04-06T12:18:52.002Z</time></trkpt><trkpt lat="47.402644636420625" lon="6.890183981081427"><ele>407.0</ele><time>2026-04-06T12:18:57.002Z</time></trkpt><trkpt lat="47.40257557860743" lon="6.8901521502846865"><ele>407.00000000000006</ele><time>2026-04-06T12:19:05.002Z</time></trkpt><trkpt lat="47.40252119836778" lon="6.890072732329693"><ele>407.0</ele><time>2026-04-06T12:19:11.002Z</time></trkpt><trkpt lat="47.40246022575364" lon="6.890026040375177"><ele>405.8571428571429</ele><time>2026-04-06T12:19:16.002Z</time></trkpt><trkpt lat="47.402401116911605" lon="6.889968550630566"><ele>404.7142857142857</ele><time>2026-04-06T12:19:21.002Z</time></trkpt><trkpt lat="47.402337131275445" lon="6.889908575760523"><ele>403.57142857142856</ele><time>2026-04-06T12:19:28.002Z</time></trkpt><trkpt lat="47.4022849372867" lon="6.8898496679994885"><ele>402.42857142857144</ele><time>2026-04-06T12:19:32.002Z</time></trkpt><trkpt lat="47.40222817178412" lon="6.889809163518052"><ele>401.2857142857143</ele><time>2026-04-06T12:19:38.002Z</time></trkpt><trkpt lat="47.40216028922876" lon="6.889760637935767"><ele>400.14285714285717</ele><time>2026-04-06T12:19:44.002Z</time></trkpt><trkpt lat="47.402102937042805" lon="6.889697582522633"><ele>399.0</ele><time>2026-04-06T12:19:49.002Z</time></trkpt><trkpt lat="47.40203807418618" lon="6.889652156019607"><ele>401.2857142857143</ele><time>2026-04-06T12:19:56.002Z</time></trkpt><trkpt lat="47.401973034941484" lon="6.889622104961166"><ele>403.57142857142856</ele><time>2026-04-06T12:20:02.002Z</time></trkpt><trkpt lat="47.40191643805099" lon="6.889574354195639"><ele>405.8571428571429</ele><time>2026-04-06T12:20:08.002Z</time></trkpt><trkpt lat="47.4018501759529" lon="6.889549032682554"><ele>408.1428571428571</ele><time>2026-04-06T12:20:14.002Z</time></trkpt><trkpt lat="47.40178885881118" lon="6.8895030559853705"><ele>410.42857142857144</ele><time>2026-04-06T12:20:20.002Z</time></trkpt><trkpt lat="47.40172599912964" lon="6.88948983072085"><ele>412.7142857142857</ele><time>2026-04-06T12:20:26.002Z</time></trkpt><trkpt lat="47.40167279824638" lon="6.889430625857375"><ele>415.0</ele><time>2026-04-06T12:20:31.002Z</time></trkpt><trkpt lat="47.40161514544903" lon="6.889390035239175"><ele>415.0</ele><time>2026-04-06T12:20:38.002Z</time></trkpt><trkpt lat="47.40155706814319" lon="6.889334593723581"><ele>415.0</ele><time>2026-04-06T12:20:44.002Z</time></trkpt><trkpt lat="47.40149831822273" lon="6.88929659222041"><ele>415.0</ele><time>2026-04-06T12:20:50.002Z</time></trkpt><trkpt lat="47.4014394381887" lon="6.889255599814345"><ele>415.0</ele><time>2026-04-06T12:20:55.002Z</time></trkpt><trkpt lat="47.40139059731156" lon="6.88919008230137"><ele>415.0</ele><time>2026-04-06T12:21:01.002Z</time></trkpt><trkpt lat="47.40133406719043" lon="6.8891252266830145"><ele>415.0</ele><time>2026-04-06T12:21:06.002Z</time></trkpt><trkpt lat="47.40126580254131" lon="6.889090944647074"><ele>415.0</ele><time>2026-04-06T12:21:12.002Z</time></trkpt><trkpt lat="47.401210974127174" lon="6.889042698527555"><ele>416.2857142857143</ele><time>2026-04-06T12:21:18.002Z</time></trkpt><trkpt lat="47.401158970385815" lon="6.888962038729824"><ele>417.57142857142856</ele><time>2026-04-06T12:21:25.002Z</time></trkpt><trkpt lat="47.40111163826614" lon="6.888880078650371"><ele>418.8571428571429</ele><time>2026-04-06T12:21:31.002Z</time></trkpt><trkpt lat="47.40105976599871" lon="6.8888263593930485"><ele>420.1428571428571</ele><time>2026-04-06T12:21:36.002Z</time></trkpt><trkpt lat="47.401005414858325" lon="6.888768657107067"><ele>421.4285714285714</ele><time>2026-04-06T12:21:42.002Z</time></trkpt><trkpt lat="47.40095141709062" lon="6.8887074695583514"><ele>422.7142857142857</ele><time>2026-04-06T12:21:48.003Z</time></trkpt><trkpt lat="47.40090156858182" lon="6.888641337170946"><ele>424.0</ele><time>2026-04-06T12:21:54.001Z</time></trkpt><trkpt lat="47.40084225310149" lon="6.88860395455863"><ele>424.0</ele><time>2026-04-06T12:21:59.001Z</time></trkpt><trkpt lat="47.400799851001004" lon="6.8885316964321"><ele>424.0</ele><time>2026-04-06T12:22:06Z</time></trkpt><trkpt lat="47.40075398243583" lon="6.888461387572363"><ele>424.0</ele><time>2026-04-06T12:22:12Z</time></trkpt><trkpt lat="47.40069449907315" lon="6.888425919679726"><ele>424.0</ele><time>2026-04-06T12:22:19Z</time></trkpt><trkpt lat="47.40065113765235" lon="6.888352230423425"><ele>424.0</ele><time>2026-04-06T12:22:27Z</time></trkpt><trkpt lat="47.400613083928675" lon="6.888267783653661"><ele>424.0</ele><time>2026-04-06T12:22:34Z</time></trkpt><trkpt lat="47.40055792786562" lon="6.888195106523966"><ele>424.0</ele><time>2026-04-06T12:22:40Z</time></trkpt><trkpt lat="47.40049759827389" lon="6.888150321752276"><ele>426.0</ele><time>2026-04-06T12:22:49Z</time></trkpt><trkpt lat="47.40044654498773" lon="6.888078475643353"><ele>428.0</ele><time>2026-04-06T12:22:54Z</time></trkpt><trkpt lat="47.40040392032872" lon="6.888007747822086"><ele>430.0</ele><time>2026-04-06T12:23:00Z</time></trkpt><trkpt lat="47.400350299262726" lon="6.887947036156013"><ele>432.0</ele><time>2026-04-06T12:23:09Z</time></trkpt><trkpt lat="47.40029479095828" lon="6.887876178997501"><ele>434.0</ele><time>2026-04-06T12:23:16Z</time></trkpt><trkpt lat="47.400233366208994" lon="6.8878264946862995"><ele>436.0</ele><time>2026-04-06T12:23:21Z</time></trkpt><trkpt lat="47.400187781226556" lon="6.887733995533212"><ele>438.0</ele><time>2026-04-06T12:23:27Z</time></trkpt><trkpt lat="47.400140223586504" lon="6.887660154836826"><ele>435.14285714285717</ele><time>2026-04-06T12:23:32Z</time></trkpt><trkpt lat="47.40010294652977" lon="6.887579708145463"><ele>432.2857142857143</ele><time>2026-04-06T12:23:39Z</time></trkpt><trkpt lat="47.40005943683231" lon="6.887485215128741"><ele>429.42857142857144</ele><time>2026-04-06T12:23:46.001Z</time></trkpt><trkpt lat="47.40002054138567" lon="6.887391424764942"><ele>426.57142857142856</ele><time>2026-04-06T12:23:51.001Z</time></trkpt><trkpt lat="47.39999940091832" lon="6.887303137834397"><ele>423.71428571428567</ele><time>2026-04-06T12:23:57.001Z</time></trkpt><trkpt lat="47.39996848328906" lon="6.8872205788777"><ele>420.85714285714283</ele><time>2026-04-06T12:24:01.001Z</time></trkpt><trkpt lat="47.399916926217124" lon="6.8871437368382535"><ele>418.0</ele><time>2026-04-06T12:24:07.001Z</time></trkpt><trkpt lat="47.39988021552248" lon="6.887056390978833"><ele>418.0</ele><time>2026-04-06T12:24:14.001Z</time></trkpt><trkpt lat="47.399829367574554" lon="6.886995883523813"><ele>418.0</ele><time>2026-04-06T12:24:19.001Z</time></trkpt><trkpt lat="47.39979058982602" lon="6.886909313491513"><ele>418.0</ele><time>2026-04-06T12:24:25.001Z</time></trkpt><trkpt lat="47.399753058423265" lon="6.886828915208745"><ele>418.0</ele><time>2026-04-06T12:24:30.001Z</time></trkpt><trkpt lat="47.39970409791879" lon="6.886738293288118"><ele>418.0</ele><time>2026-04-06T12:24:35.001Z</time></trkpt><trkpt lat="47.39966016126359" lon="6.88666793637206"><ele>418.0</ele><time>2026-04-06T12:24:40.001Z</time></trkpt><trkpt lat="47.39960779899169" lon="6.886596149611399"><ele>418.0</ele><time>2026-04-06T12:24:46.001Z</time></trkpt><trkpt lat="47.399561600278965" lon="6.8865127600336695"><ele>420.85714285714283</ele><time>2026-04-06T12:24:53.001Z</time></trkpt><trkpt lat="47.39952293460142" lon="6.886432741594509"><ele>423.71428571428567</ele><time>2026-04-06T12:25:00.001Z</time></trkpt><trkpt lat="47.39947890438168" lon="6.886354195022916"><ele>426.57142857142856</ele><time>2026-04-06T12:25:07.001Z</time></trkpt><trkpt lat="47.39943583678267" lon="6.886260126116463"><ele>429.42857142857144</ele><time>2026-04-06T12:25:15.001Z</time></trkpt><trkpt lat="47.39938122084773" lon="6.886187900881863"><ele>432.2857142857143</ele><time>2026-04-06T12:25:20.002Z</time></trkpt><trkpt lat="47.39933990269788" lon="6.88610705377758"><ele>435.14285714285717</ele><time>2026-04-06T12:25:26.002Z</time></trkpt><trkpt lat="47.399301051024146" lon="6.886024645373524"><ele>438.0</ele><time>2026-04-06T12:25:31.002Z</time></trkpt><trkpt lat="47.39926197529793" lon="6.885930967445151"><ele>435.8571428571429</ele><time>2026-04-06T12:25:36.002Z</time></trkpt><trkpt lat="47.39921884579657" lon="6.885860414439088"><ele>433.71428571428567</ele><time>2026-04-06T12:25:41.002Z</time></trkpt><trkpt lat="47.399180945143236" lon="6.885757726951248"><ele>431.57142857142856</ele><time>2026-04-06T12:25:48.002Z</time></trkpt><trkpt lat="47.399147201489846" lon="6.885666740501911"><ele>429.42857142857144</ele><time>2026-04-06T12:25:54.002Z</time></trkpt><trkpt lat="47.39910874282951" lon="6.885589015609446"><ele>427.28571428571433</ele><time>2026-04-06T12:25:58.002Z</time></trkpt><trkpt lat="47.39906757957" lon="6.88550456060404"><ele>425.1428571428571</ele><time>2026-04-06T12:26:04.002Z</time></trkpt><trkpt lat="47.39901286956963" lon="6.88544257293574"><ele>423.0</ele><time>2026-04-06T12:26:11.002Z</time></trkpt><trkpt lat="47.398962796406096" lon="6.885361667004159"><ele>423.0</ele><time>2026-04-06T12:26:18.002Z</time></trkpt><trkpt lat="47.39892582913525" lon="6.885280634168106"><ele>423.0</ele><time>2026-04-06T12:26:24.002Z</time></trkpt><trkpt lat="47.39888069971974" lon="6.885215538804941"><ele>423.0</ele><time>2026-04-06T12:26:30.002Z</time></trkpt><trkpt lat="47.39882468986659" lon="6.885151008797919"><ele>423.0</ele><time>2026-04-06T12:26:35.002Z</time></trkpt><trkpt lat="47.39877056981154" lon="6.885084125478833"><ele>423.0</ele><time>2026-04-06T12:26:41.002Z</time></trkpt><trkpt lat="47.398729208256334" lon="6.885005724898209"><ele>423.0</ele><time>2026-04-06T12:26:47.002Z</time></trkpt><trkpt lat="47.39869347317802" lon="6.884911708279993"><ele>423.0</ele><time>2026-04-06T12:26:53.003Z</time></trkpt><trkpt lat="47.398656966687675" lon="6.884806298905481"><ele>422.57142857142856</ele><time>2026-04-06T12:26:59.003Z</time></trkpt><trkpt lat="47.39861670483928" lon="6.884726342216687"><ele>422.14285714285717</ele><time>2026-04-06T12:27:04.003Z</time></trkpt><trkpt lat="47.3985889411879" lon="6.88464064628385"><ele>421.7142857142857</ele><time>2026-04-06T12:27:09.003Z</time></trkpt><trkpt lat="47.398537702879445" lon="6.88456301414696"><ele>421.2857142857143</ele><time>2026-04-06T12:27:14.003Z</time></trkpt><trkpt lat="47.398494705945815" lon="6.884474680262112"><ele>420.8571428571429</ele><time>2026-04-06T12:27:20.003Z</time></trkpt><trkpt lat="47.398447635123944" lon="6.884403793345056"><ele>420.42857142857144</ele><time>2026-04-06T12:27:25.003Z</time></trkpt><trkpt lat="47.39842265747917" lon="6.884316435272847"><ele>420.0</ele><time>2026-04-06T12:27:31.003Z</time></trkpt><trkpt lat="47.3983863491668" lon="6.884234872518873"><ele>420.0</ele><time>2026-04-06T12:27:36.003Z</time></trkpt><trkpt lat="47.398344899533974" lon="6.884155259490795"><ele>420.0</ele><time>2026-04-06T12:27:42.003Z</time></trkpt><trkpt lat="47.39828824878642" lon="6.884088766290994"><ele>420.0</ele><time>2026-04-06T12:27:47.003Z</time></trkpt><trkpt lat="47.39826612231509" lon="6.8839963085569"><ele>420.0</ele><time>2026-04-06T12:27:53.003Z</time></trkpt><trkpt lat="47.398227550485906" lon="6.883915001121551"><ele>420.0</ele><time>2026-04-06T12:27:59.003Z</time></trkpt><trkpt lat="47.39818268927603" lon="6.883836444704209"><ele>420.0</ele><time>2026-04-06T12:28:05.003Z</time></trkpt><trkpt lat="47.39813674045802" lon="6.883740460960101"><ele>420.0</ele><time>2026-04-06T12:28:12.003Z</time></trkpt><trkpt lat="47.39808629949228" lon="6.883673121575595"><ele>420.0</ele><time>2026-04-06T12:28:18.003Z</time></trkpt><trkpt lat="47.39805939238257" lon="6.883582976939471"><ele>420.0</ele><time>2026-04-06T12:28:24.004Z</time></trkpt><trkpt lat="47.39801727146516" lon="6.883508915391971"><ele>420.0</ele><time>2026-04-06T12:28:29.004Z</time></trkpt><trkpt lat="47.39798658938154" lon="6.883413097997469"><ele>420.0</ele><time>2026-04-06T12:28:35.004Z</time></trkpt><trkpt lat="47.39794540009178" lon="6.883341391908808"><ele>420.0</ele><time>2026-04-06T12:28:43.004Z</time></trkpt><trkpt lat="47.39790280118274" lon="6.883264660133044"><ele>420.0</ele><time>2026-04-06T12:28:48.004Z</time></trkpt><trkpt lat="47.39786261675081" lon="6.883179818851124"><ele>420.0</ele><time>2026-04-06T12:28:54.004Z</time></trkpt><trkpt lat="47.397839203463256" lon="6.883090490867435"><ele>420.14285714285717</ele><time>2026-04-06T12:28:59.003Z</time></trkpt><trkpt lat="47.3978088369492" lon="6.883008717376815"><ele>420.2857142857143</ele><time>2026-04-06T12:29:03.002Z</time></trkpt><trkpt lat="47.3977700244818" lon="6.882935099560941"><ele>420.42857142857144</ele><time>2026-04-06T12:29:08.002Z</time></trkpt><trkpt lat="47.39772369156279" lon="6.8828671330406825"><ele>420.57142857142856</ele><time>2026-04-06T12:29:13.001Z</time></trkpt><trkpt lat="47.39768183372193" lon="6.882779327898903"><ele>420.7142857142857</ele><time>2026-04-06T12:29:18.001Z</time></trkpt><trkpt lat="47.397628117604974" lon="6.882713300295267"><ele>420.8571428571429</ele><time>2026-04-06T12:29:22.001Z</time></trkpt><trkpt lat="47.397592503958016" lon="6.882631304730941"><ele>421.0</ele><time>2026-04-06T12:29:26Z</time></trkpt><trkpt lat="47.39756899298804" lon="6.882537847439525"><ele>421.00000000000006</ele><time>2026-04-06T12:29:32Z</time></trkpt><trkpt lat="47.39752545187038" lon="6.88247002168703"><ele>421.0</ele><time>2026-04-06T12:29:38Z</time></trkpt><trkpt lat="47.397483448862516" lon="6.882378609551874"><ele>421.0</ele><time>2026-04-06T12:29:46Z</time></trkpt><trkpt lat="47.39744247894545" lon="6.882289488703753"><ele>421.0</ele><time>2026-04-06T12:29:52Z</time></trkpt><trkpt lat="47.39740111487467" lon="6.882216063281087"><ele>421.0</ele><time>2026-04-06T12:29:58Z</time></trkpt><trkpt lat="47.39735791764199" lon="6.882128769333839"><ele>421.00000000000006</ele><time>2026-04-06T12:30:04Z</time></trkpt><trkpt lat="47.39732476649983" lon="6.882043073238271"><ele>421.0</ele><time>2026-04-06T12:30:10Z</time></trkpt><trkpt lat="47.397287601821105" lon="6.881948758580307"><ele>421.00000000000006</ele><time>2026-04-06T12:30:16Z</time></trkpt><trkpt lat="47.397256957922956" lon="6.881862212470734"><ele>421.0</ele><time>2026-04-06T12:30:22.001Z</time></trkpt><trkpt lat="47.39720378215161" lon="6.881792116786086"><ele>421.0</ele><time>2026-04-06T12:30:29.001Z</time></trkpt><trkpt lat="47.397164738557095" lon="6.881712920892354"><ele>421.0</ele><time>2026-04-06T12:30:36.001Z</time></trkpt><trkpt lat="47.39714588603088" lon="6.88161706610003"><ele>421.0</ele><time>2026-04-06T12:30:44.001Z</time></trkpt><trkpt lat="47.39712694323589" lon="6.881517629601183"><ele>421.00000000000006</ele><time>2026-04-06T12:30:50.001Z</time></trkpt><trkpt lat="47.39707472387244" lon="6.881437944102847"><ele>421.0</ele><time>2026-04-06T12:30:56.001Z</time></trkpt><trkpt lat="47.397029421284856" lon="6.881365977540081"><ele>421.00000000000006</ele><time>2026-04-06T12:31:00.001Z</time></trkpt><trkpt lat="47.39697992453475" lon="6.881287123718068"><ele>421.0</ele><time>2026-04-06T12:31:07.001Z</time></trkpt><trkpt lat="47.39695877035955" lon="6.881190494867116"><ele>421.0</ele><time>2026-04-06T12:31:12.001Z</time></trkpt><trkpt lat="47.39691808875851" lon="6.8810925698588"><ele>421.0</ele><time>2026-04-06T12:31:18.001Z</time></trkpt><trkpt lat="47.39687758193084" lon="6.881010734628162"><ele>421.0</ele><time>2026-04-06T12:31:24.001Z</time></trkpt><trkpt lat="47.3968565660749" lon="6.880920432204484"><ele>421.00000000000006</ele><time>2026-04-06T12:31:30.001Z</time></trkpt><trkpt lat="47.39683905500539" lon="6.880812503494282"><ele>421.0</ele><time>2026-04-06T12:31:36.001Z</time></trkpt><trkpt lat="47.39681047067979" lon="6.8807251748297285"><ele>419.42857142857144</ele><time>2026-04-06T12:31:42.001Z</time></trkpt><trkpt lat="47.396772025752796" lon="6.880628477849174"><ele>417.8571428571429</ele><time>2026-04-06T12:31:49.002Z</time></trkpt><trkpt lat="47.39674854371973" lon="6.880537526388114"><ele>416.28571428571433</ele><time>2026-04-06T12:31:54.002Z</time></trkpt><trkpt lat="47.39672819414696" lon="6.880431848845202"><ele>414.7142857142857</ele><time>2026-04-06T12:32:00.002Z</time></trkpt><trkpt lat="47.39674077793611" lon="6.880328786524408"><ele>413.1428571428571</ele><time>2026-04-06T12:32:05.002Z</time></trkpt><trkpt lat="47.39670913138834" lon="6.8802366189753705"><ele>411.5714285714286</ele><time>2026-04-06T12:32:11.002Z</time></trkpt><trkpt lat="47.396666734369106" lon="6.880153588561582"><ele>410.0</ele><time>2026-04-06T12:32:16.002Z</time></trkpt><trkpt lat="47.39665052715467" lon="6.880063216828137"><ele>410.0</ele><time>2026-04-06T12:32:22.002Z</time></trkpt><trkpt lat="47.396606200481756" lon="6.879987293582834"><ele>410.0</ele><time>2026-04-06T12:33:29.003Z</time></trkpt><trkpt lat="47.39654042959276" lon="6.879993698050534"><ele>410.0</ele><time>2026-04-06T12:33:39.003Z</time></trkpt><trkpt lat="47.39648932950692" lon="6.87993040779504"><ele>410.0</ele><time>2026-04-06T12:33:46.003Z</time></trkpt><trkpt lat="47.39642219316364" lon="6.879888035688878"><ele>410.0</ele><time>2026-04-06T12:33:52.003Z</time></trkpt><trkpt lat="47.39636613795185" lon="6.879845331868881"><ele>410.0</ele><time>2026-04-06T12:33:57.003Z</time></trkpt><trkpt lat="47.396320542807885" lon="6.879775491686763"><ele>410.0</ele><time>2026-04-06T12:34:05.003Z</time></trkpt><trkpt lat="47.396268858151686" lon="6.87970762359505"><ele>412.14285714285717</ele><time>2026-04-06T12:34:12.003Z</time></trkpt><trkpt lat="47.396216346900374" lon="6.879648071583247"><ele>414.2857142857143</ele><time>2026-04-06T12:34:17.003Z</time></trkpt><trkpt lat="47.39615037014253" lon="6.879603660144531"><ele>416.42857142857144</ele><time>2026-04-06T12:34:23.003Z</time></trkpt><trkpt lat="47.396097075443734" lon="6.879543931846317"><ele>418.57142857142856</ele><time>2026-04-06T12:34:30.003Z</time></trkpt><trkpt lat="47.39605862426071" lon="6.879463285639891"><ele>420.71428571428567</ele><time>2026-04-06T12:34:36.004Z</time></trkpt><trkpt lat="47.39601839254247" lon="6.879390964505673"><ele>422.85714285714283</ele><time>2026-04-06T12:34:43.004Z</time></trkpt><trkpt lat="47.395983485406326" lon="6.879308235225468"><ele>425.0</ele><time>2026-04-06T12:34:49.004Z</time></trkpt><trkpt lat="47.39594092486608" lon="6.879222088666058"><ele>425.49999999999994</ele><time>2026-04-06T12:34:57.004Z</time></trkpt><trkpt lat="47.39592718922792" lon="6.879131023423842"><ele>426.0</ele><time>2026-04-06T12:35:22.004Z</time></trkpt><trkpt lat="47.39589279586695" lon="6.879043348069818"><ele>426.5</ele><time>2026-04-06T12:35:29.004Z</time></trkpt><trkpt lat="47.39586399949046" lon="6.878947413648266"><ele>427.0</ele><time>2026-04-06T12:35:38.004Z</time></trkpt><trkpt lat="47.39583176227949" lon="6.878842779322131"><ele>427.49999999999994</ele><time>2026-04-06T12:35:44.004Z</time></trkpt><trkpt lat="47.39579839299331" lon="6.878686468999291"><ele>428.0</ele><time>2026-04-06T12:36:26.001Z</time></trkpt><trkpt lat="47.39574355835602" lon="6.878571331924578"><ele>428.00000000000006</ele><time>2026-04-06T12:36:41.001Z</time></trkpt><trkpt lat="47.395689090622845" lon="6.878514875236143"><ele>428.0</ele><time>2026-04-06T12:36:46.001Z</time></trkpt><trkpt lat="47.39562757824334" lon="6.878461349982257"><ele>428.0</ele><time>2026-04-06T12:36:51.001Z</time></trkpt><trkpt lat="47.39558452435342" lon="6.878381185876279"><ele>428.0</ele><time>2026-04-06T12:37:03.001Z</time></trkpt><trkpt lat="47.39554300504225" lon="6.878296523941644"><ele>428.0</ele><time>2026-04-06T12:37:10.001Z</time></trkpt><trkpt lat="47.39551040291302" lon="6.878211530377898"><ele>428.00000000000006</ele><time>2026-04-06T12:37:25.001Z</time></trkpt><trkpt lat="47.395463308692655" lon="6.878146327204176"><ele>428.0</ele><time>2026-04-06T12:37:34.001Z</time></trkpt><trkpt lat="47.395413282900684" lon="6.878065765664314"><ele>433.66666666666663</ele><time>2026-04-06T12:37:40.001Z</time></trkpt><trkpt lat="47.39536805919659" lon="6.87799683446598"><ele>439.3333333333333</ele><time>2026-04-06T12:37:46.001Z</time></trkpt><trkpt lat="47.395314516270815" lon="6.877932773847338"><ele>445.0</ele><time>2026-04-06T12:37:52.001Z</time></trkpt><trkpt lat="47.39525310028106" lon="6.8778927115535256"><ele>450.66666666666663</ele><time>2026-04-06T12:38:00.001Z</time></trkpt><trkpt lat="47.395166373054096" lon="6.877792179443085"><ele>456.3333333333333</ele><time>2026-04-06T12:38:31.002Z</time></trkpt><trkpt lat="47.39510689762787" lon="6.877744186276548"><ele>462.0</ele><time>2026-04-06T12:38:39.002Z</time></trkpt><trkpt lat="47.39499441608576" lon="6.877641944507067"><ele>462.0</ele><time>2026-04-06T12:39:24.002Z</time></trkpt><trkpt lat="47.394934586825485" lon="6.877611961591349"><ele>462.0</ele><time>2026-04-06T12:39:34.002Z</time></trkpt><trkpt lat="47.39488946846305" lon="6.877538081244105"><ele>462.0</ele><time>2026-04-06T12:39:43.003Z</time></trkpt><trkpt lat="47.39482736967575" lon="6.8775023692768595"><ele>462.0</ele><time>2026-04-06T12:39:49.003Z</time></trkpt><trkpt lat="47.394771037967466" lon="6.877458129753988"><ele>462.0</ele><time>2026-04-06T12:39:54.003Z</time></trkpt><trkpt lat="47.394714655850166" lon="6.8774090888047255"><ele>462.0</ele><time>2026-04-06T12:39:59.003Z</time></trkpt><trkpt lat="47.394657901876" lon="6.877360144440244"><ele>462.0</ele><time>2026-04-06T12:40:04.003Z</time></trkpt><trkpt lat="47.39461930784271" lon="6.877279754901247"><ele>463.2857142857143</ele><time>2026-04-06T12:40:15.003Z</time></trkpt><trkpt lat="47.39462721945699" lon="6.877181544256211"><ele>464.57142857142856</ele><time>2026-04-06T12:40:21.003Z</time></trkpt><trkpt lat="47.394635540177845" lon="6.87708452649837"><ele>465.8571428571429</ele><time>2026-04-06T12:40:33.002Z</time></trkpt><trkpt lat="47.39461623366086" lon="6.876979585687244"><ele>467.14285714285717</ele><time>2026-04-06T12:40:43.002Z</time></trkpt><trkpt lat="47.39459565169307" lon="6.87688540672416"><ele>468.42857142857144</ele><time>2026-04-06T12:40:50.002Z</time></trkpt><trkpt lat="47.394556169778404" lon="6.876788674068155"><ele>469.7142857142858</ele><time>2026-04-06T12:41:01.002Z</time></trkpt><trkpt lat="47.39451492290902" lon="6.876715386044473"><ele>471.00000000000006</ele><time>2026-04-06T12:41:15.003Z</time></trkpt><trkpt lat="47.39448914054787" lon="6.876623648341703"><ele>471.0</ele><time>2026-04-06T12:41:25.003Z</time></trkpt><trkpt lat="47.39445537687856" lon="6.87654222407208"><ele>471.0</ele><time>2026-04-06T12:41:30.003Z</time></trkpt><trkpt lat="47.39443093459464" lon="6.876444758841576"><ele>471.0</ele><time>2026-04-06T12:41:38.003Z</time></trkpt><trkpt lat="47.39438918812913" lon="6.87634860986668"><ele>471.0</ele><time>2026-04-06T12:41:46.003Z</time></trkpt><trkpt lat="47.39435995435228" lon="6.876255876854968"><ele>471.0</ele><time>2026-04-06T12:41:51.003Z</time></trkpt><trkpt lat="47.39430927207502" lon="6.876169499996956"><ele>471.0</ele><time>2026-04-06T12:42:00.003Z</time></trkpt><trkpt lat="47.3943102916968" lon="6.875976007141388"><ele>469.0</ele><time>2026-04-06T12:43:13.003Z</time></trkpt><trkpt lat="47.39420311534857" lon="6.87582991830531"><ele>467.0</ele><time>2026-04-06T12:48:09.001Z</time></trkpt><trkpt lat="47.39415142133861" lon="6.875765460467073"><ele>465.0</ele><time>2026-04-06T12:48:13.998Z</time></trkpt><trkpt lat="47.39409520874809" lon="6.875711137465699"><ele>463.0</ele><time>2026-04-06T12:48:21.994Z</time></trkpt><trkpt lat="47.394041258512694" lon="6.875643248914721"><ele>461.0</ele><time>2026-04-06T12:48:27.993Z</time></trkpt><trkpt lat="47.39400325893877" lon="6.875560648876318"><ele>459.0</ele><time>2026-04-06T12:48:33.992Z</time></trkpt><trkpt lat="47.39395132599173" lon="6.8754994278110715"><ele>459.0</ele><time>2026-04-06T12:49:39.99Z</time></trkpt><trkpt lat="47.393914049695915" lon="6.8754076322011555"><ele>459.0</ele><time>2026-04-06T12:49:44.99Z</time></trkpt><trkpt lat="47.3938685246968" lon="6.875321715656371"><ele>459.0</ele><time>2026-04-06T12:49:51.99Z</time></trkpt><trkpt lat="47.393846706153695" lon="6.875232418473138"><ele>459.0</ele><time>2026-04-06T12:49:56.99Z</time></trkpt><trkpt lat="47.3938025279852" lon="6.875154506664052"><ele>459.0</ele><time>2026-04-06T12:50:02.99Z</time></trkpt><trkpt lat="47.393749337596454" lon="6.875082307038757"><ele>459.0</ele><time>2026-04-06T12:50:15.991Z</time></trkpt><trkpt lat="47.393718147637685" lon="6.874980034422308"><ele>459.0</ele><time>2026-04-06T12:50:21.991Z</time></trkpt><trkpt lat="47.39368575654421" lon="6.87489549229639"><ele>461.1666666666667</ele><time>2026-04-06T12:50:26.991Z</time></trkpt><trkpt lat="47.393639311121696" lon="6.874817405438302"><ele>463.33333333333337</ele><time>2026-04-06T12:50:30.991Z</time></trkpt><trkpt lat="47.39360068240483" lon="6.874725378170815"><ele>465.5</ele><time>2026-04-06T12:50:39.991Z</time></trkpt><trkpt lat="47.3935300855512" lon="6.874611967166134"><ele>467.6666666666667</ele><time>2026-04-06T12:51:08.991Z</time></trkpt><trkpt lat="47.393496701923006" lon="6.8745257970188085"><ele>469.83333333333337</ele><time>2026-04-06T12:51:13.99Z</time></trkpt><trkpt lat="47.39344475195804" lon="6.8744552237291865"><ele>472.0</ele><time>2026-04-06T12:51:22.99Z</time></trkpt><trkpt lat="47.39340800538848" lon="6.874373386156098"><ele>472.0</ele><time>2026-04-06T12:51:27.99Z</time></trkpt><trkpt lat="47.39339991943581" lon="6.87428052962103"><ele>472.0</ele><time>2026-04-06T12:51:34.99Z</time></trkpt><trkpt lat="47.39335460729756" lon="6.874210587048857"><ele>472.0</ele><time>2026-04-06T12:51:38.99Z</time></trkpt><trkpt lat="47.393299017274884" lon="6.874148867962893"><ele>472.0</ele><time>2026-04-06T12:51:43.99Z</time></trkpt><trkpt lat="47.39324898998648" lon="6.874071916784873"><ele>472.0</ele><time>2026-04-06T12:51:50.991Z</time></trkpt><trkpt lat="47.39320689184605" lon="6.873979874973452"><ele>472.0</ele><time>2026-04-06T12:51:56.991Z</time></trkpt><trkpt lat="47.393164839208055" lon="6.873905347576255"><ele>472.0</ele><time>2026-04-06T12:52:02.991Z</time></trkpt><trkpt lat="47.393115697274204" lon="6.873832070190022"><ele>472.1428571428571</ele><time>2026-04-06T12:52:10.991Z</time></trkpt><trkpt lat="47.393076527035454" lon="6.873754598634021"><ele>472.28571428571433</ele><time>2026-04-06T12:52:17.991Z</time></trkpt><trkpt lat="47.393045820007465" lon="6.873655082879859"><ele>472.42857142857144</ele><time>2026-04-06T12:52:21.991Z</time></trkpt><trkpt lat="47.393005581811416" lon="6.873569387520279"><ele>472.57142857142856</ele><time>2026-04-06T12:52:27.991Z</time></trkpt><trkpt lat="47.39295293697569" lon="6.873507141432824"><ele>472.71428571428567</ele><time>2026-04-06T12:52:33.991Z</time></trkpt><trkpt lat="47.39288513918266" lon="6.873454587456013"><ele>472.8571428571429</ele><time>2026-04-06T12:52:41.991Z</time></trkpt><trkpt lat="47.39283103576501" lon="6.873401300941134"><ele>473.0</ele><time>2026-04-06T12:52:49.991Z</time></trkpt><trkpt lat="47.39279971909756" lon="6.873317814530244"><ele>473.0</ele><time>2026-04-06T12:52:56.991Z</time></trkpt><trkpt lat="47.39276552499514" lon="6.873214915223279"><ele>473.0</ele><time>2026-04-06T12:53:01.991Z</time></trkpt><trkpt lat="47.39272886301364" lon="6.873134899156686"><ele>473.0</ele><time>2026-04-06T12:53:06.991Z</time></trkpt><trkpt lat="47.392683906881786" lon="6.873063692469224"><ele>473.0</ele><time>2026-04-06T12:53:11.991Z</time></trkpt><trkpt lat="47.39265300399415" lon="6.872960940588103"><ele>473.0</ele><time>2026-04-06T12:53:21.992Z</time></trkpt><trkpt lat="47.39259823705552" lon="6.872892839265581"><ele>473.0</ele><time>2026-04-06T12:53:26.992Z</time></trkpt><trkpt lat="47.39255341726112" lon="6.872823914429585"><ele>473.0</ele><time>2026-04-06T12:53:32.992Z</time></trkpt><trkpt lat="47.39252148257815" lon="6.8727437629959285"><ele>472.99999999999994</ele><time>2026-04-06T12:53:39.992Z</time></trkpt><trkpt lat="47.39246708490437" lon="6.8726741508194555"><ele>473.0</ele><time>2026-04-06T12:53:44.992Z</time></trkpt><trkpt lat="47.39242809330219" lon="6.872589435573623"><ele>473.0</ele><time>2026-04-06T12:53:51.992Z</time></trkpt><trkpt lat="47.39237621287305" lon="6.872514411650715"><ele>473.0</ele><time>2026-04-06T12:53:58.992Z</time></trkpt><trkpt lat="47.39237384820725" lon="6.872372213296055"><ele>472.99999999999994</ele><time>2026-04-06T12:54:25.992Z</time></trkpt><trkpt lat="47.392300620951545" lon="6.872327860789664"><ele>473.0</ele><time>2026-04-06T12:54:34.992Z</time></trkpt><trkpt lat="47.392255273157005" lon="6.872230514830367"><ele>471.8571428571429</ele><time>2026-04-06T12:54:41.992Z</time></trkpt><trkpt lat="47.39220843498354" lon="6.8721484059107745"><ele>470.71428571428567</ele><time>2026-04-06T12:54:56.995Z</time></trkpt><trkpt lat="47.392163536208734" lon="6.8720828630296475"><ele>469.57142857142856</ele><time>2026-04-06T12:55:05.997Z</time></trkpt><trkpt lat="47.39211325083919" lon="6.872004484046546"><ele>468.42857142857144</ele><time>2026-04-06T12:55:11.998Z</time></trkpt><trkpt lat="47.392077811661665" lon="6.8719252365168755"><ele>467.28571428571433</ele><time>2026-04-06T12:55:16.999Z</time></trkpt><trkpt lat="47.392029591390504" lon="6.87184850928469"><ele>466.1428571428571</ele><time>2026-04-06T12:55:22.999Z</time></trkpt><trkpt lat="47.391982106738325" lon="6.871768660046604"><ele>465.0</ele><time>2026-04-06T12:55:30Z</time></trkpt><trkpt lat="47.39193447027748" lon="6.871701143972857"><ele>465.0</ele><time>2026-04-06T12:55:35Z</time></trkpt><trkpt lat="47.39187963215467" lon="6.871630633959289"><ele>465.0</ele><time>2026-04-06T12:55:41Z</time></trkpt><trkpt lat="47.39183233083999" lon="6.871567419996485"><ele>465.0</ele><time>2026-04-06T12:55:47Z</time></trkpt><trkpt lat="47.39178771874854" lon="6.871500761767191"><ele>465.0</ele><time>2026-04-06T12:55:52Z</time></trkpt><trkpt lat="47.39175987627536" lon="6.871416454367887"><ele>465.0</ele><time>2026-04-06T12:55:56Z</time></trkpt><trkpt lat="47.39172011057199" lon="6.871340705132639"><ele>465.0</ele><time>2026-04-06T12:56:01Z</time></trkpt><trkpt lat="47.391655848717114" lon="6.871278954701469"><ele>465.0</ele><time>2026-04-06T12:56:07Z</time></trkpt><trkpt lat="47.39159507870536" lon="6.871190131545728"><ele>465.0</ele><time>2026-04-06T12:56:14.001Z</time></trkpt><trkpt lat="47.39155841478966" lon="6.871101629770708"><ele>465.0</ele><time>2026-04-06T12:56:20.001Z</time></trkpt><trkpt lat="47.391530493824746" lon="6.871004132674141"><ele>465.0</ele><time>2026-04-06T12:56:26.001Z</time></trkpt><trkpt lat="47.39148158223645" lon="6.870927889372606"><ele>465.0</ele><time>2026-04-06T12:56:33.001Z</time></trkpt><trkpt lat="47.39146015824005" lon="6.870839182512097"><ele>465.0</ele><time>2026-04-06T12:56:40.001Z</time></trkpt><trkpt lat="47.391420988093756" lon="6.870745405165989"><ele>465.0</ele><time>2026-04-06T12:56:49.001Z</time></trkpt><trkpt lat="47.391402561387544" lon="6.870642293743464"><ele>465.0</ele><time>2026-04-06T12:56:56.001Z</time></trkpt><trkpt lat="47.3913713560731" lon="6.870553916771683"><ele>465.57142857142856</ele><time>2026-04-06T12:57:01.001Z</time></trkpt><trkpt lat="47.39133823069776" lon="6.870459719866881"><ele>466.14285714285717</ele><time>2026-04-06T12:57:09.001Z</time></trkpt><trkpt lat="47.391314219784626" lon="6.8703679470698935"><ele>466.7142857142857</ele><time>2026-04-06T12:57:14.001Z</time></trkpt><trkpt lat="47.39128563741721" lon="6.870284956534098"><ele>467.2857142857143</ele><time>2026-04-06T12:57:18.001Z</time></trkpt><trkpt lat="47.391250022946046" lon="6.8702062994990065"><ele>467.8571428571429</ele><time>2026-04-06T12:57:26.001Z</time></trkpt><trkpt lat="47.391218316044046" lon="6.870122895244701"><ele>468.42857142857144</ele><time>2026-04-06T12:57:32.001Z</time></trkpt><trkpt lat="47.39118793871141" lon="6.870032794359135"><ele>469.0</ele><time>2026-04-06T12:57:38.001Z</time></trkpt><trkpt lat="47.39116603708235" lon="6.869936759205025"><ele>469.0</ele><time>2026-04-06T12:57:43.002Z</time></trkpt><trkpt lat="47.39114657706722" lon="6.869839537951382"><ele>469.0</ele><time>2026-04-06T12:57:49.002Z</time></trkpt><trkpt lat="47.39113468268153" lon="6.869746929088073"><ele>469.0</ele><time>2026-04-06T12:57:56.002Z</time></trkpt><trkpt lat="47.391101517192965" lon="6.869653561672136"><ele>469.0</ele><time>2026-04-06T12:58:03.002Z</time></trkpt><trkpt lat="47.391073033396786" lon="6.869550174760363"><ele>469.0</ele><time>2026-04-06T12:58:08.002Z</time></trkpt><trkpt lat="47.391056582895594" lon="6.869457360416695"><ele>469.0</ele><time>2026-04-06T12:58:15.002Z</time></trkpt><trkpt lat="47.39104293406292" lon="6.869362189950197"><ele>469.0</ele><time>2026-04-06T12:58:23.002Z</time></trkpt><trkpt lat="47.39100810858152" lon="6.869280256658028"><ele>467.1428571428571</ele><time>2026-04-06T12:58:30.002Z</time></trkpt><trkpt lat="47.390976003472204" lon="6.869182619920396"><ele>465.2857142857143</ele><time>2026-04-06T12:58:41.002Z</time></trkpt><trkpt lat="47.390946925839394" lon="6.86908939533067"><ele>463.42857142857144</ele><time>2026-04-06T12:58:47.002Z</time></trkpt><trkpt lat="47.39094341533641" lon="6.868989062354501"><ele>461.57142857142856</ele><time>2026-04-06T12:58:54.002Z</time></trkpt><trkpt lat="47.39092895829439" lon="6.868885057648644"><ele>459.71428571428567</ele><time>2026-04-06T12:58:59.002Z</time></trkpt><trkpt lat="47.39089349728252" lon="6.868803561574694"><ele>457.85714285714283</ele><time>2026-04-06T12:59:04.002Z</time></trkpt><trkpt lat="47.390872242668586" lon="6.868711935600532"><ele>456.0</ele><time>2026-04-06T12:59:10.002Z</time></trkpt><trkpt lat="47.39085397851518" lon="6.868620773684982"><ele>456.0</ele><time>2026-04-06T12:59:14.002Z</time></trkpt><trkpt lat="47.39083209414699" lon="6.86851576979325"><ele>455.99999999999994</ele><time>2026-04-06T12:59:24.003Z</time></trkpt><trkpt lat="47.39082900479052" lon="6.868414799266017"><ele>456.0</ele><time>2026-04-06T12:59:32.003Z</time></trkpt><trkpt lat="47.39080950096535" lon="6.86832253183298"><ele>456.0</ele><time>2026-04-06T12:59:41.003Z</time></trkpt><trkpt lat="47.39079500735952" lon="6.868219517835448"><ele>455.99999999999994</ele><time>2026-04-06T13:00:03.003Z</time></trkpt><trkpt lat="47.39078010424814" lon="6.868123528903939"><ele>456.0</ele><time>2026-04-06T13:00:07.003Z</time></trkpt><trkpt lat="47.390747613630175" lon="6.868018421245476"><ele>456.0</ele><time>2026-04-06T13:00:13.003Z</time></trkpt><trkpt lat="47.39071213758517" lon="6.867920253093742"><ele>454.57142857142856</ele><time>2026-04-06T13:00:20.003Z</time></trkpt><trkpt lat="47.39068978897745" lon="6.867803424757132"><ele>453.1428571428571</ele><time>2026-04-06T13:00:26.003Z</time></trkpt><trkpt lat="47.39067322858413" lon="6.867695774335858"><ele>451.71428571428567</ele><time>2026-04-06T13:00:31.003Z</time></trkpt><trkpt lat="47.39064473941137" lon="6.867596273941287"><ele>450.2857142857143</ele><time>2026-04-06T13:00:36.003Z</time></trkpt><trkpt lat="47.3906385202814" lon="6.8674969178983165"><ele>448.85714285714283</ele><time>2026-04-06T13:00:43.003Z</time></trkpt><trkpt lat="47.390621106972624" lon="6.867403244596632"><ele>447.42857142857144</ele><time>2026-04-06T13:00:50.003Z</time></trkpt><trkpt lat="47.390619119722466" lon="6.8673055325426064"><ele>446.0</ele><time>2026-04-06T13:00:55.003Z</time></trkpt><trkpt lat="47.39062301035826" lon="6.867203712619418"><ele>444.85714285714283</ele><time>2026-04-06T13:01:17.004Z</time></trkpt><trkpt lat="47.390604580039984" lon="6.867098391303154"><ele>443.71428571428567</ele><time>2026-04-06T13:01:21.004Z</time></trkpt><trkpt lat="47.39058251906404" lon="6.866996559075903"><ele>442.57142857142856</ele><time>2026-04-06T13:01:27.004Z</time></trkpt><trkpt lat="47.390576638456274" lon="6.866903208148034"><ele>441.42857142857144</ele><time>2026-04-06T13:01:31.004Z</time></trkpt><trkpt lat="47.39057164225369" lon="6.866807799085859"><ele>440.2857142857143</ele><time>2026-04-06T13:01:53.004Z</time></trkpt><trkpt lat="47.39055689064693" lon="6.866707206472921"><ele>439.14285714285717</ele><time>2026-04-06T13:01:59.004Z</time></trkpt><trkpt lat="47.3905469170556" lon="6.866594851441821"><ele>438.0</ele><time>2026-04-06T13:02:06.003Z</time></trkpt><trkpt lat="47.39054115555634" lon="6.866501996412472"><ele>437.8571428571429</ele><time>2026-04-06T13:02:10.002Z</time></trkpt><trkpt lat="47.39053019536507" lon="6.866409798735302"><ele>437.71428571428567</ele><time>2026-04-06T13:02:19.001Z</time></trkpt><trkpt lat="47.39053145011956" lon="6.866297178419106"><ele>437.57142857142856</ele><time>2026-04-06T13:02:24.001Z</time></trkpt><trkpt lat="47.39052177659579" lon="6.866203692174659"><ele>437.42857142857144</ele><time>2026-04-06T13:02:29.001Z</time></trkpt><trkpt lat="47.39047144618748" lon="6.866131161281363"><ele>437.28571428571433</ele><time>2026-04-06T13:02:36.001Z</time></trkpt><trkpt lat="47.39044881844851" lon="6.866041413915115"><ele>437.1428571428571</ele><time>2026-04-06T13:02:47Z</time></trkpt><trkpt lat="47.39041480924571" lon="6.865943280321143"><ele>437.0</ele><time>2026-04-06T13:02:57.001Z</time></trkpt><trkpt lat="47.39038273529972" lon="6.865860535548105"><ele>440.57142857142856</ele><time>2026-04-06T13:03:04.001Z</time></trkpt><trkpt lat="47.39035453355474" lon="6.865771485844196"><ele>444.14285714285717</ele><time>2026-04-06T13:03:10.001Z</time></trkpt><trkpt lat="47.39031506332817" lon="6.865674860938828"><ele>447.7142857142857</ele><time>2026-04-06T13:03:17.001Z</time></trkpt><trkpt lat="47.39027345545398" lon="6.865594098719415"><ele>451.2857142857143</ele><time>2026-04-06T13:03:23.001Z</time></trkpt><trkpt lat="47.39023967544619" lon="6.865487376204905"><ele>454.8571428571429</ele><time>2026-04-06T13:03:28.001Z</time></trkpt><trkpt lat="47.39021627512448" lon="6.86538736466734"><ele>458.42857142857144</ele><time>2026-04-06T13:03:46.001Z</time></trkpt><trkpt lat="47.3901954250798" lon="6.865296938095642"><ele>462.0</ele><time>2026-04-06T13:03:52.001Z</time></trkpt><trkpt lat="47.39015039027728" lon="6.865222227043271"><ele>462.0</ele><time>2026-04-06T13:03:58.001Z</time></trkpt><trkpt lat="47.39011892944146" lon="6.865126535284966"><ele>462.0</ele><time>2026-04-06T13:04:05.001Z</time></trkpt><trkpt lat="47.390067313475626" lon="6.865032177596489"><ele>462.0</ele><time>2026-04-06T13:04:12.001Z</time></trkpt><trkpt lat="47.39002973714155" lon="6.864952100802169"><ele>462.0</ele><time>2026-04-06T13:04:18.001Z</time></trkpt><trkpt lat="47.389992203063805" lon="6.8648671097845275"><ele>462.0</ele><time>2026-04-06T13:04:25.001Z</time></trkpt><trkpt lat="47.38995088056802" lon="6.864792644922946"><ele>462.0</ele><time>2026-04-06T13:04:31.001Z</time></trkpt><trkpt lat="47.38991927250996" lon="6.864701388762364"><ele>462.0</ele><time>2026-04-06T13:04:36.001Z</time></trkpt><trkpt lat="47.38986012799015" lon="6.8646283528193655"><ele>461.2857142857143</ele><time>2026-04-06T13:04:44.002Z</time></trkpt><trkpt lat="47.38982460424212" lon="6.864546485238238"><ele>460.57142857142856</ele><time>2026-04-06T13:04:49.002Z</time></trkpt><trkpt lat="47.38979724790801" lon="6.86446263988568"><ele>459.8571428571429</ele><time>2026-04-06T13:04:55.002Z</time></trkpt><trkpt lat="47.38974899050081" lon="6.864393445608181"><ele>459.14285714285717</ele><time>2026-04-06T13:04:59.002Z</time></trkpt><trkpt lat="47.38970710452815" lon="6.8643139520533065"><ele>458.42857142857144</ele><time>2026-04-06T13:05:06.002Z</time></trkpt><trkpt lat="47.38965875789236" lon="6.864246219095187"><ele>457.7142857142858</ele><time>2026-04-06T13:05:12.002Z</time></trkpt><trkpt lat="47.389609975068446" lon="6.864185686668942"><ele>457.00000000000006</ele><time>2026-04-06T13:05:18.002Z</time></trkpt><trkpt lat="47.38955256473386" lon="6.8641278444076415"><ele>457.00000000000006</ele><time>2026-04-06T13:05:24.002Z</time></trkpt><trkpt lat="47.3894935959301" lon="6.864058677520783"><ele>457.0</ele><time>2026-04-06T13:05:31.002Z</time></trkpt><trkpt lat="47.38943544727572" lon="6.864016356751389"><ele>457.00000000000006</ele><time>2026-04-06T13:05:36.002Z</time></trkpt><trkpt lat="47.389380156258184" lon="6.863958024187633"><ele>457.00000000000006</ele><time>2026-04-06T13:05:42.002Z</time></trkpt><trkpt lat="47.38931905831798" lon="6.86389622586603"><ele>457.0</ele><time>2026-04-06T13:05:49.002Z</time></trkpt><trkpt lat="47.38925692884673" lon="6.8638450150763335"><ele>457.00000000000006</ele><time>2026-04-06T13:05:53.002Z</time></trkpt><trkpt lat="47.38919739155864" lon="6.863801566147791"><ele>457.00000000000006</ele><time>2026-04-06T13:06:00.002Z</time></trkpt><trkpt lat="47.38913626082085" lon="6.863769167352496"><ele>457.00000000000006</ele><time>2026-04-06T13:06:06.002Z</time></trkpt><trkpt lat="47.389067960567054" lon="6.863742863519553"><ele>457.0</ele><time>2026-04-06T13:06:13.003Z</time></trkpt><trkpt lat="47.389012479840126" lon="6.863698685713495"><ele>457.00000000000006</ele><time>2026-04-06T13:06:29.003Z</time></trkpt><trkpt lat="47.38895925119409" lon="6.863641882649953"><ele>457.00000000000006</ele><time>2026-04-06T13:06:39.003Z</time></trkpt><trkpt lat="47.388889202864284" lon="6.863598468355734"><ele>457.0</ele><time>2026-04-06T13:06:44.003Z</time></trkpt><trkpt lat="47.38882749926295" lon="6.8635742113778875"><ele>457.00000000000006</ele><time>2026-04-06T13:06:52.003Z</time></trkpt><trkpt lat="47.38876088722536" lon="6.863528850876145"><ele>457.00000000000006</ele><time>2026-04-06T13:06:59.003Z</time></trkpt><trkpt lat="47.38869307322641" lon="6.863514547730987"><ele>456.00000000000006</ele><time>2026-04-06T13:07:05.003Z</time></trkpt><trkpt lat="47.38864001189631" lon="6.863455213550896"><ele>455.0</ele><time>2026-04-06T13:07:15.003Z</time></trkpt><trkpt lat="47.38868948390136" lon="6.863368838730317"><ele>454.00000000000006</ele><time>2026-04-06T13:08:21.004Z</time></trkpt><trkpt lat="47.38876712557195" lon="6.863359450931436"><ele>453.00000000000006</ele><time>2026-04-06T13:08:26.004Z</time></trkpt><trkpt lat="47.38880655361193" lon="6.863280976662356"><ele>452.0</ele><time>2026-04-06T13:08:31.004Z</time></trkpt><trkpt lat="47.38881290594247" lon="6.863169466934274"><ele>451.00000000000006</ele><time>2026-04-06T13:08:44.004Z</time></trkpt><trkpt lat="47.38873547157092" lon="6.863112886992709"><ele>450.00000000000006</ele><time>2026-04-06T13:08:49.004Z</time></trkpt><trkpt lat="47.38866518466983" lon="6.8631269951745875"><ele>450.00000000000006</ele><time>2026-04-06T13:08:53.004Z</time></trkpt><trkpt lat="47.38860162359178" lon="6.863191540039425"><ele>450.0</ele><time>2026-04-06T13:08:57.004Z</time></trkpt><trkpt lat="47.388541526887764" lon="6.863255806140321"><ele>450.00000000000006</ele><time>2026-04-06T13:09:00.004Z</time></trkpt><trkpt lat="47.388471384552886" lon="6.863262370407344"><ele>450.00000000000006</ele><time>2026-04-06T13:09:03.005Z</time></trkpt><trkpt lat="47.388407041778954" lon="6.863297228449055"><ele>450.0</ele><time>2026-04-06T13:09:08.004Z</time></trkpt><trkpt lat="47.388336586976145" lon="6.863294604462184"><ele>450.00000000000006</ele><time>2026-04-06T13:09:13.003Z</time></trkpt><trkpt lat="47.388266659219106" lon="6.863271068244284"><ele>450.00000000000006</ele><time>2026-04-06T13:09:17.002Z</time></trkpt><trkpt lat="47.38820007713232" lon="6.863249716894415"><ele>450.00000000000006</ele><time>2026-04-06T13:09:22.002Z</time></trkpt><trkpt lat="47.38813329237982" lon="6.8632303012265305"><ele>450.0</ele><time>2026-04-06T13:09:29.001Z</time></trkpt><trkpt lat="47.38807979902676" lon="6.863172397378348"><ele>450.00000000000006</ele><time>2026-04-06T13:09:36.001Z</time></trkpt><trkpt lat="47.3880265940244" lon="6.8631212413124745"><ele>450.00000000000006</ele><time>2026-04-06T13:09:42.001Z</time></trkpt><trkpt lat="47.38795966409946" lon="6.863087575766293"><ele>450.0</ele><time>2026-04-06T13:09:49.001Z</time></trkpt><trkpt lat="47.387896840708414" lon="6.863056805829018"><ele>450.00000000000006</ele><time>2026-04-06T13:09:55.001Z</time></trkpt><trkpt lat="47.387837985509385" lon="6.863015130287226"><ele>450.00000000000006</ele><time>2026-04-06T13:10:00.001Z</time></trkpt><trkpt lat="47.387773140138506" lon="6.862997708686593"><ele>452.00000000000006</ele><time>2026-04-06T13:10:06.001Z</time></trkpt><trkpt lat="47.387701632222395" lon="6.863012739755332"><ele>454.0</ele><time>2026-04-06T13:10:15.001Z</time></trkpt><trkpt lat="47.38764034985037" lon="6.862979873950786"><ele>456.00000000000006</ele><time>2026-04-06T13:10:20.001Z</time></trkpt><trkpt lat="47.38757712205016" lon="6.862972127518525"><ele>458.00000000000006</ele><time>2026-04-06T13:10:29.001Z</time></trkpt><trkpt lat="47.387518642642945" lon="6.862916455197331"><ele>460.0</ele><time>2026-04-06T13:10:35.001Z</time></trkpt><trkpt lat="47.38744245132461" lon="6.8628811338873"><ele>462.00000000000006</ele><time>2026-04-06T13:10:40.001Z</time></trkpt><trkpt lat="47.387382506287615" lon="6.86283642906748"><ele>464.00000000000006</ele><time>2026-04-06T13:10:44.001Z</time></trkpt><trkpt lat="47.38730808293324" lon="6.862817678680036"><ele>464.00000000000006</ele><time>2026-04-06T13:10:48.001Z</time></trkpt><trkpt lat="47.387242429266976" lon="6.862830606798406"><ele>464.0</ele><time>2026-04-06T13:10:59.001Z</time></trkpt><trkpt lat="47.38716735948813" lon="6.862798005232235"><ele>464.00000000000006</ele><time>2026-04-06T13:11:10.002Z</time></trkpt><trkpt lat="47.38710714016099" lon="6.862760308162601"><ele>464.00000000000006</ele><time>2026-04-06T13:11:16.002Z</time></trkpt><trkpt lat="47.38702529636429" lon="6.862740787486349"><ele>464.0</ele><time>2026-04-06T13:11:22.002Z</time></trkpt><trkpt lat="47.38696030429677" lon="6.86271517616777"><ele>464.00000000000006</ele><time>2026-04-06T13:11:28.002Z</time></trkpt><trkpt lat="47.38689138387947" lon="6.862691226044168"><ele>464.00000000000006</ele><time>2026-04-06T13:11:32.001Z</time></trkpt><trkpt lat="47.38682233920621" lon="6.862687839938049"><ele>465.57142857142867</ele><time>2026-04-06T13:11:38.001Z</time></trkpt><trkpt lat="47.38675912367258" lon="6.862695191098799"><ele>467.14285714285717</ele><time>2026-04-06T13:11:42.001Z</time></trkpt><trkpt lat="47.38668194599956" lon="6.862684322482288"><ele>468.7142857142858</ele><time>2026-04-06T13:11:48.001Z</time></trkpt><trkpt lat="47.38661002089776" lon="6.862692336826992"><ele>470.28571428571433</ele><time>2026-04-06T13:11:57.001Z</time></trkpt><trkpt lat="47.38654287941139" lon="6.86266563149893"><ele>471.8571428571429</ele><time>2026-04-06T13:12:03.001Z</time></trkpt><trkpt lat="47.386475512335046" lon="6.862639175262474"><ele>473.42857142857144</ele><time>2026-04-06T13:12:09.001Z</time></trkpt><trkpt lat="47.38641287631873" lon="6.862656865751489"><ele>475.0</ele><time>2026-04-06T13:12:16.001Z</time></trkpt><trkpt lat="47.386444023019166" lon="6.862741731337652"><ele>475.0</ele><time>2026-04-06T13:12:26.001Z</time></trkpt><trkpt lat="47.38651038579105" lon="6.86277782064999"><ele>475.00000000000006</ele><time>2026-04-06T13:13:16.002Z</time></trkpt><trkpt lat="47.386433896293646" lon="6.862758387768974"><ele>475.0</ele><time>2026-04-06T13:13:35.002Z</time></trkpt><trkpt lat="47.38638216230199" lon="6.862702585427102"><ele>475.0</ele><time>2026-04-06T13:13:40.002Z</time></trkpt><trkpt lat="47.38631565171507" lon="6.862671139264327"><ele>475.00000000000006</ele><time>2026-04-06T13:13:48.002Z</time></trkpt><trkpt lat="47.386263639414686" lon="6.862617556683616"><ele>475.0</ele><time>2026-04-06T13:13:57.002Z</time></trkpt><trkpt lat="47.38619477394483" lon="6.862573483573551"><ele>475.0</ele><time>2026-04-06T13:14:06.002Z</time></trkpt><trkpt lat="47.38613778128007" lon="6.862526028377198"><ele>473.7142857142857</ele><time>2026-04-06T13:14:12.003Z</time></trkpt><trkpt lat="47.38606610199708" lon="6.862513832546399"><ele>472.42857142857144</ele><time>2026-04-06T13:14:19.003Z</time></trkpt><trkpt lat="47.386002005382494" lon="6.862494371678518"><ele>471.14285714285717</ele><time>2026-04-06T13:14:26.003Z</time></trkpt><trkpt lat="47.385931042004124" lon="6.862438889530417"><ele>469.8571428571429</ele><time>2026-04-06T13:14:32.003Z</time></trkpt><trkpt lat="47.38586998360298" lon="6.862401528486108"><ele>468.57142857142856</ele><time>2026-04-06T13:14:37.003Z</time></trkpt><trkpt lat="47.3858084661688" lon="6.862326754972731"><ele>467.28571428571433</ele><time>2026-04-06T13:14:43.003Z</time></trkpt><trkpt lat="47.38575080125848" lon="6.862283119216977"><ele>466.0</ele><time>2026-04-06T13:14:48.003Z</time></trkpt><trkpt lat="47.38569377920889" lon="6.862217747331272"><ele>466.0</ele><time>2026-04-06T13:14:54.003Z</time></trkpt><trkpt lat="47.38562860710299" lon="6.8622061098103195"><ele>466.0</ele><time>2026-04-06T13:15:03.003Z</time></trkpt><trkpt lat="47.38554560579745" lon="6.862198166114202"><ele>466.0</ele><time>2026-04-06T13:15:10.003Z</time></trkpt><trkpt lat="47.385480830448586" lon="6.862150869566508"><ele>466.0</ele><time>2026-04-06T13:15:15.003Z</time></trkpt><trkpt lat="47.385415530508865" lon="6.86212657866289"><ele>466.0</ele><time>2026-04-06T13:15:20.003Z</time></trkpt><trkpt lat="47.38534881278871" lon="6.862098931162403"><ele>466.0</ele><time>2026-04-06T13:15:25.003Z</time></trkpt><trkpt lat="47.38528495329719" lon="6.862062707393268"><ele>466.0</ele><time>2026-04-06T13:15:30.003Z</time></trkpt><trkpt lat="47.385220590041314" lon="6.8620265346994795"><ele>465.7142857142857</ele><time>2026-04-06T13:15:38.003Z</time></trkpt><trkpt lat="47.38515830608656" lon="6.861961275787262"><ele>465.42857142857144</ele><time>2026-04-06T13:15:44.004Z</time></trkpt><trkpt lat="47.38510063866493" lon="6.861914345917551"><ele>465.14285714285717</ele><time>2026-04-06T13:15:49.004Z</time></trkpt><trkpt lat="47.38504748135664" lon="6.861862403264102"><ele>464.8571428571429</ele><time>2026-04-06T13:15:57.004Z</time></trkpt><trkpt lat="47.384999485492365" lon="6.861790828006417"><ele>464.57142857142856</ele><time>2026-04-06T13:16:02.004Z</time></trkpt><trkpt lat="47.384930933214214" lon="6.861766983151106"><ele>464.28571428571433</ele><time>2026-04-06T13:16:07.004Z</time></trkpt><trkpt lat="47.384870393510774" lon="6.861718113648386"><ele>464.00000000000006</ele><time>2026-04-06T13:16:14.003Z</time></trkpt><trkpt lat="47.38481651194166" lon="6.861656428901924"><ele>464.00000000000006</ele><time>2026-04-06T13:16:20.002Z</time></trkpt><trkpt lat="47.38475295899702" lon="6.8616081014146495"><ele>464.0</ele><time>2026-04-06T13:16:26.001Z</time></trkpt><trkpt lat="47.38469038278062" lon="6.861573002968234"><ele>464.00000000000006</ele><time>2026-04-06T13:16:31.001Z</time></trkpt><trkpt lat="47.38463099354301" lon="6.86151491427523"><ele>464.00000000000006</ele><time>2026-04-06T13:16:38.001Z</time></trkpt><trkpt lat="47.38458276737888" lon="6.861433390900209"><ele>464.0</ele><time>2026-04-06T13:16:47Z</time></trkpt><trkpt lat="47.3845228673061" lon="6.8613639284749945"><ele>464.00000000000006</ele><time>2026-04-06T13:16:53Z</time></trkpt><trkpt lat="47.38445890868366" lon="6.861321874227507"><ele>464.00000000000006</ele><time>2026-04-06T13:16:58Z</time></trkpt><trkpt lat="47.38439996893229" lon="6.861284310576097"><ele>466.57142857142867</ele><time>2026-04-06T13:17:05Z</time></trkpt><trkpt lat="47.384342258025825" lon="6.8612450428470355"><ele>469.14285714285717</ele><time>2026-04-06T13:17:12Z</time></trkpt><trkpt lat="47.38427944594581" lon="6.861203576372674"><ele>471.7142857142858</ele><time>2026-04-06T13:17:18Z</time></trkpt><trkpt lat="47.38420689875164" lon="6.861179568274512"><ele>474.28571428571433</ele><time>2026-04-06T13:17:25Z</time></trkpt><trkpt lat="47.384137474562834" lon="6.861177636855283"><ele>476.8571428571429</ele><time>2026-04-06T13:17:31Z</time></trkpt><trkpt lat="47.38406411100165" lon="6.861141062371779"><ele>479.42857142857144</ele><time>2026-04-06T13:17:36Z</time></trkpt><trkpt lat="47.384002266387526" lon="6.86111873616221"><ele>482.0</ele><time>2026-04-06T13:17:40Z</time></trkpt><trkpt lat="47.38393210944073" lon="6.861090084465334"><ele>482.0</ele><time>2026-04-06T13:17:47.001Z</time></trkpt><trkpt lat="47.38387453972927" lon="6.861035193156636"><ele>482.00000000000006</ele><time>2026-04-06T13:17:54.001Z</time></trkpt><trkpt lat="47.38382309336061" lon="6.860976778502248"><ele>482.0</ele><time>2026-04-06T13:17:59.001Z</time></trkpt><trkpt lat="47.38376571694325" lon="6.860925216202002"><ele>482.0</ele><time>2026-04-06T13:18:08.001Z</time></trkpt><trkpt lat="47.38372163270147" lon="6.860858156060096"><ele>482.00000000000006</ele><time>2026-04-06T13:18:21.001Z</time></trkpt><trkpt lat="47.38366451362413" lon="6.860814918117619"><ele>482.0</ele><time>2026-04-06T13:18:43.001Z</time></trkpt><trkpt lat="47.38369641219158" lon="6.860715863005184"><ele>482.0</ele><time>2026-04-06T13:18:51.001Z</time></trkpt><trkpt lat="47.383733128612334" lon="6.860625425392264"><ele>480.0</ele><time>2026-04-06T13:18:58.001Z</time></trkpt><trkpt lat="47.3837553707375" lon="6.860762436170003"><ele>478.00000000000006</ele><time>2026-04-06T13:21:01.001Z</time></trkpt><trkpt lat="47.38362805791116" lon="6.860867341482758"><ele>476.00000000000006</ele><time>2026-04-06T13:21:36.001Z</time></trkpt><trkpt lat="47.38355447197199" lon="6.8608560245878385"><ele>474.0</ele><time>2026-04-06T13:21:42.001Z</time></trkpt><trkpt lat="47.383483194894154" lon="6.860878249455369"><ele>472.0</ele><time>2026-04-06T13:21:50.002Z</time></trkpt><trkpt lat="47.38341754178018" lon="6.860877500575051"><ele>472.0</ele><time>2026-04-06T13:21:56.002Z</time></trkpt><trkpt lat="47.38335406146862" lon="6.860884993747013"><ele>472.0</ele><time>2026-04-06T13:22:04.002Z</time></trkpt><trkpt lat="47.383323232588666" lon="6.860966355602297"><ele>472.0</ele><time>2026-04-06T13:22:12.002Z</time></trkpt><trkpt lat="47.38327993815281" lon="6.861053580605107"><ele>472.0</ele><time>2026-04-06T13:22:18.002Z</time></trkpt><trkpt lat="47.38322991816588" lon="6.861111245394706"><ele>472.0</ele><time>2026-04-06T13:22:22.002Z</time></trkpt><trkpt lat="47.3831784574532" lon="6.861179741496891"><ele>472.0</ele><time>2026-04-06T13:22:26.002Z</time></trkpt><trkpt lat="47.383124066788206" lon="6.861248892850651"><ele>472.0</ele><time>2026-04-06T13:22:34.002Z</time></trkpt><trkpt lat="47.38305791465901" lon="6.861275222764618"><ele>474.71428571428567</ele><time>2026-04-06T13:22:44.002Z</time></trkpt><trkpt lat="47.38300291106238" lon="6.861326336132969"><ele>477.42857142857144</ele><time>2026-04-06T13:22:53.002Z</time></trkpt><trkpt lat="47.38293885875782" lon="6.861371179593027"><ele>480.1428571428571</ele><time>2026-04-06T13:23:12.002Z</time></trkpt><trkpt lat="47.38289055139831" lon="6.861433485103264"><ele>482.85714285714283</ele><time>2026-04-06T13:23:20.002Z</time></trkpt><trkpt lat="47.38283087549797" lon="6.861474860889005"><ele>485.57142857142856</ele><time>2026-04-06T13:23:28.001Z</time></trkpt><trkpt lat="47.38277373037763" lon="6.86153069948143"><ele>488.2857142857143</ele><time>2026-04-06T13:23:34.001Z</time></trkpt><trkpt lat="47.382725898069886" lon="6.861595535947852"><ele>491.0</ele><time>2026-04-06T13:23:38.001Z</time></trkpt><trkpt lat="47.38266954622943" lon="6.8616446879086865"><ele>491.0</ele><time>2026-04-06T13:23:50Z</time></trkpt><trkpt lat="47.382612818934255" lon="6.861694583373228"><ele>490.99999999999994</ele><time>2026-04-06T13:24:04Z</time></trkpt><trkpt lat="47.38254610914705" lon="6.861734041058556"><ele>491.0</ele><time>2026-04-06T13:24:19.001Z</time></trkpt><trkpt lat="47.38248166273685" lon="6.861808640952402"><ele>491.0</ele><time>2026-04-06T13:24:25.001Z</time></trkpt><trkpt lat="47.38242527756458" lon="6.861891101310808"><ele>490.99999999999994</ele><time>2026-04-06T13:24:30.001Z</time></trkpt><trkpt lat="47.38239207138942" lon="6.861970580040507"><ele>491.0</ele><time>2026-04-06T13:24:33.001Z</time></trkpt><trkpt lat="47.38234496572592" lon="6.862038670180224"><ele>491.0</ele><time>2026-04-06T13:24:37.001Z</time></trkpt><trkpt lat="47.38230812069654" lon="6.862114609321232"><ele>492.85714285714283</ele><time>2026-04-06T13:24:59.001Z</time></trkpt><trkpt lat="47.382283381392156" lon="6.862202199753139"><ele>494.71428571428567</ele><time>2026-04-06T13:25:06.001Z</time></trkpt><trkpt lat="47.38225643049248" lon="6.862306612914005"><ele>496.57142857142856</ele><time>2026-04-06T13:25:12.001Z</time></trkpt><trkpt lat="47.38222192266307" lon="6.86240739289626"><ele>498.42857142857144</ele><time>2026-04-06T13:25:17.001Z</time></trkpt><trkpt lat="47.38220023189987" lon="6.862513356825122"><ele>500.2857142857143</ele><time>2026-04-06T13:25:26.001Z</time></trkpt><trkpt lat="47.38216055686613" lon="6.862594611457242"><ele>502.1428571428571</ele><time>2026-04-06T13:25:34.002Z</time></trkpt><trkpt lat="47.38214193364606" lon="6.862693048529669"><ele>504.0</ele><time>2026-04-06T13:25:40.002Z</time></trkpt><trkpt lat="47.382121861213214" lon="6.862787696451449"><ele>504.7142857142857</ele><time>2026-04-06T13:25:46.002Z</time></trkpt><trkpt lat="47.382123626673675" lon="6.862886548360985"><ele>505.42857142857144</ele><time>2026-04-06T13:25:52.002Z</time></trkpt><trkpt lat="47.382125608706254" lon="6.86298899751338"><ele>506.1428571428571</ele><time>2026-04-06T13:26:01.002Z</time></trkpt><trkpt lat="47.382137822526964" lon="6.863089577310719"><ele>506.85714285714283</ele><time>2026-04-06T13:26:24.002Z</time></trkpt><trkpt lat="47.382155402042045" lon="6.863181905716602"><ele>507.57142857142856</ele><time>2026-04-06T13:26:30.002Z</time></trkpt><trkpt lat="47.382182646449" lon="6.863283257106832"><ele>508.2857142857142</ele><time>2026-04-06T13:26:44.002Z</time></trkpt><trkpt lat="47.382187957255546" lon="6.863393940805177"><ele>508.99999999999994</ele><time>2026-04-06T13:26:49.003Z</time></trkpt><trkpt lat="47.38222670772034" lon="6.863470171789223"><ele>510.5714285714285</ele><time>2026-04-06T13:26:55.003Z</time></trkpt><trkpt lat="47.38223041908608" lon="6.863573544527092"><ele>512.1428571428571</ele><time>2026-04-06T13:27:00.003Z</time></trkpt><trkpt lat="47.382269637747136" lon="6.863648925348687"><ele>513.7142857142858</ele><time>2026-04-06T13:27:09.003Z</time></trkpt><trkpt lat="47.382322914328945" lon="6.863577462353834"><ele>515.2857142857142</ele><time>2026-04-06T13:27:22.003Z</time></trkpt><trkpt lat="47.38240239607346" lon="6.863525725201952"><ele>516.8571428571429</ele><time>2026-04-06T13:27:49.003Z</time></trkpt><trkpt lat="47.382435981121134" lon="6.863604457242958"><ele>518.4285714285714</ele><time>2026-04-06T13:27:57.003Z</time></trkpt><trkpt lat="47.38248054913298" lon="6.8636953457999885"><ele>520.0</ele><time>2026-04-06T13:28:03.004Z</time></trkpt><trkpt lat="47.38252122188176" lon="6.863767298986799"><ele>520.0000000000001</ele><time>2026-04-06T13:28:11.004Z</time></trkpt><trkpt lat="47.382542175030224" lon="6.8638589966794346"><ele>520.0</ele><time>2026-04-06T13:28:21.004Z</time></trkpt><trkpt lat="47.38258547547484" lon="6.863930017355944"><ele>520.0</ele><time>2026-04-06T13:28:33.004Z</time></trkpt><trkpt lat="47.382610089215746" lon="6.864029176682087"><ele>520.0</ele><time>2026-04-06T13:28:42.004Z</time></trkpt><trkpt lat="47.38258833448825" lon="6.864132837322109"><ele>520.0</ele><time>2026-04-06T13:29:00.004Z</time></trkpt><trkpt lat="47.38258259684509" lon="6.864227972664531"><ele>520.0000000000001</ele><time>2026-04-06T13:29:08.004Z</time></trkpt><trkpt lat="47.38263028442644" lon="6.8641083043067095"><ele>520.0</ele><time>2026-04-06T13:29:24.005Z</time></trkpt><trkpt lat="47.38267103904272" lon="6.864185232155254"><ele>520.0000000000001</ele><time>2026-04-06T13:29:33.005Z</time></trkpt><trkpt lat="47.38270442711996" lon="6.864273419514467"><ele>520.0</ele><time>2026-04-06T13:29:41.005Z</time></trkpt><trkpt lat="47.38273383575696" lon="6.8643734006556585"><ele>520.0</ele><time>2026-04-06T13:29:47.005Z</time></trkpt><trkpt lat="47.382749559674075" lon="6.864486424211217"><ele>520.0</ele><time>2026-04-06T13:29:54.005Z</time></trkpt><trkpt lat="47.382738606052975" lon="6.864585333812983"><ele>520.0</ele><time>2026-04-06T13:30:00.005Z</time></trkpt><trkpt lat="47.382764701129325" lon="6.864706704228865"><ele>520.0000000000001</ele><time>2026-04-06T13:30:21.006Z</time></trkpt><trkpt lat="47.382784330131315" lon="6.8647992336764"><ele>520.0</ele><time>2026-04-06T13:30:30.004Z</time></trkpt><trkpt lat="47.3827832591535" lon="6.864912009749168"><ele>521.8571428571429</ele><time>2026-04-06T13:30:40.002Z</time></trkpt><trkpt lat="47.38277358583472" lon="6.865009477506067"><ele>523.7142857142858</ele><time>2026-04-06T13:30:46.002Z</time></trkpt><trkpt lat="47.38276305836026" lon="6.865111624064588"><ele>525.5714285714286</ele><time>2026-04-06T13:30:59.001Z</time></trkpt><trkpt lat="47.382774323030006" lon="6.865212425083348"><ele>527.4285714285714</ele><time>2026-04-06T13:31:05.001Z</time></trkpt><trkpt lat="47.38279398981702" lon="6.86530256401409"><ele>529.2857142857142</ele><time>2026-04-06T13:31:12.001Z</time></trkpt><trkpt lat="47.38279040341654" lon="6.865400360756524"><ele>531.1428571428571</ele><time>2026-04-06T13:31:19.001Z</time></trkpt><trkpt lat="47.382801661377755" lon="6.865502347292652"><ele>533.0</ele><time>2026-04-06T13:31:26.001Z</time></trkpt><trkpt lat="47.38281378626026" lon="6.8656003729429775"><ele>534.4285714285714</ele><time>2026-04-06T13:31:34.001Z</time></trkpt><trkpt lat="47.38283997746024" lon="6.865688645371463"><ele>535.8571428571428</ele><time>2026-04-06T13:31:41.001Z</time></trkpt><trkpt lat="47.382891525349564" lon="6.865758546542343"><ele>537.2857142857142</ele><time>2026-04-06T13:31:55.001Z</time></trkpt><trkpt lat="47.38292423947467" lon="6.865841772645813"><ele>538.7142857142857</ele><time>2026-04-06T13:32:04.001Z</time></trkpt><trkpt lat="47.38297002203812" lon="6.86591586679302"><ele>540.1428571428571</ele><time>2026-04-06T13:32:21.001Z</time></trkpt><trkpt lat="47.38301592556423" lon="6.865984902487981"><ele>541.5714285714286</ele><time>2026-04-06T13:32:30.001Z</time></trkpt><trkpt lat="47.38302617735303" lon="6.866096480162478"><ele>543.0</ele><time>2026-04-06T13:32:39.001Z</time></trkpt><trkpt lat="47.38303702075103" lon="6.866200580250854"><ele>543.5714285714286</ele><time>2026-04-06T13:32:46.001Z</time></trkpt><trkpt lat="47.38305619406629" lon="6.866307022795094"><ele>544.1428571428571</ele><time>2026-04-06T13:32:55.001Z</time></trkpt><trkpt lat="47.38306425419942" lon="6.866407477642248"><ele>544.7142857142857</ele><time>2026-04-06T13:33:02.001Z</time></trkpt><trkpt lat="47.38308759527155" lon="6.86651676642713"><ele>545.2857142857142</ele><time>2026-04-06T13:33:17.002Z</time></trkpt><trkpt lat="47.383104123549934" lon="6.866617602666073"><ele>545.8571428571428</ele><time>2026-04-06T13:33:25.002Z</time></trkpt><trkpt lat="47.383115562638245" lon="6.866715549378457"><ele>546.4285714285714</ele><time>2026-04-06T13:33:32.002Z</time></trkpt><trkpt lat="47.38314776244767" lon="6.866806662937163"><ele>547.0</ele><time>2026-04-06T13:33:38.002Z</time></trkpt><trkpt lat="47.38312822014898" lon="6.866920922170679"><ele>547.2857142857142</ele><time>2026-04-06T13:33:51.002Z</time></trkpt><trkpt lat="47.383155996453105" lon="6.867007269695437"><ele>547.5714285714286</ele><time>2026-04-06T13:33:58.002Z</time></trkpt><trkpt lat="47.38319585109644" lon="6.867084473224913"><ele>547.8571428571429</ele><time>2026-04-06T13:34:05.002Z</time></trkpt><trkpt lat="47.383200827083094" lon="6.867190690061622"><ele>548.1428571428571</ele><time>2026-04-06T13:34:13.002Z</time></trkpt><trkpt lat="47.38322855331441" lon="6.867280822752437"><ele>548.4285714285714</ele><time>2026-04-06T13:34:19.002Z</time></trkpt><trkpt lat="47.38322848755185" lon="6.867379943517691"><ele>548.7142857142857</ele><time>2026-04-06T13:35:07.003Z</time></trkpt><trkpt lat="47.383208194950015" lon="6.867483469644479"><ele>549.0</ele><time>2026-04-06T13:35:15.003Z</time></trkpt><trkpt lat="47.383247874074" lon="6.867559275477986"><ele>549.2857142857142</ele><time>2026-04-06T13:35:25.003Z</time></trkpt><trkpt lat="47.383249487616226" lon="6.867656246322645"><ele>549.5714285714286</ele><time>2026-04-06T13:35:34.003Z</time></trkpt><trkpt lat="47.38326056555375" lon="6.867761037119127"><ele>549.8571428571429</ele><time>2026-04-06T13:35:41.004Z</time></trkpt><trkpt lat="47.38323569512204" lon="6.867851604733429"><ele>550.1428571428571</ele><time>2026-04-06T13:35:53.004Z</time></trkpt><trkpt lat="47.38325361812598" lon="6.867951050140374"><ele>550.4285714285714</ele><time>2026-04-06T13:36:04.004Z</time></trkpt><trkpt lat="47.38330887558615" lon="6.868010896777247"><ele>550.7142857142857</ele><time>2026-04-06T13:36:13.004Z</time></trkpt><trkpt lat="47.383324233863206" lon="6.868106589962165"><ele>551.0</ele><time>2026-04-06T13:36:22.004Z</time></trkpt><trkpt lat="47.38333686331954" lon="6.868202936048018"><ele>550.9999999999999</ele><time>2026-04-06T13:36:29.004Z</time></trkpt><trkpt lat="47.38334966233562" lon="6.868307682706764"><ele>551.0</ele><time>2026-04-06T13:36:39.004Z</time></trkpt><trkpt lat="47.38336960669806" lon="6.86839759843979"><ele>551.0</ele><time>2026-04-06T13:36:44.004Z</time></trkpt><trkpt lat="47.38344030050111" lon="6.868454677936994"><ele>551.0</ele><time>2026-04-06T13:38:22Z</time></trkpt><trkpt lat="47.383380255379066" lon="6.868412088333895"><ele>551.0</ele><time>2026-04-06T13:38:30Z</time></trkpt><trkpt lat="47.38331716518007" lon="6.868407808985566"><ele>550.9999999999999</ele><time>2026-04-06T13:38:36.001Z</time></trkpt><trkpt lat="47.38325153822305" lon="6.868377954722836"><ele>551.0</ele><time>2026-04-06T13:38:42.001Z</time></trkpt><trkpt lat="47.38318189996276" lon="6.868354791960087"><ele>550.9999999999999</ele><time>2026-04-06T13:38:50.001Z</time></trkpt><trkpt lat="47.383109316851574" lon="6.868357461164749"><ele>551.0</ele><time>2026-04-06T13:38:57.001Z</time></trkpt><trkpt lat="47.383041917886665" lon="6.868345217112287"><ele>551.0</ele><time>2026-04-06T13:39:01.001Z</time></trkpt><trkpt lat="47.3829817739838" lon="6.868375171587133"><ele>551.0</ele><time>2026-04-06T13:39:08.001Z</time></trkpt><trkpt lat="47.38291740644286" lon="6.868411927784443"><ele>551.0</ele><time>2026-04-06T13:39:15.001Z</time></trkpt><trkpt lat="47.3828540904797" lon="6.868401679132518"><ele>550.9999999999999</ele><time>2026-04-06T13:39:20.001Z</time></trkpt><trkpt lat="47.38278697941307" lon="6.868434544884877"><ele>551.0</ele><time>2026-04-06T13:39:29.001Z</time></trkpt><trkpt lat="47.38274272865608" lon="6.8685064305342465"><ele>550.8571428571428</ele><time>2026-04-06T13:39:36.001Z</time></trkpt><trkpt lat="47.382695606460196" lon="6.868581869213884"><ele>550.7142857142857</ele><time>2026-04-06T13:40:03.002Z</time></trkpt><trkpt lat="47.38265207243318" lon="6.868510337133472"><ele>550.5714285714286</ele><time>2026-04-06T13:40:10.002Z</time></trkpt><trkpt lat="47.3825891979088" lon="6.868486612388063"><ele>550.4285714285713</ele><time>2026-04-06T13:40:15.002Z</time></trkpt><trkpt lat="47.382520027362084" lon="6.868485100086516"><ele>550.2857142857142</ele><time>2026-04-06T13:40:25.002Z</time></trkpt><trkpt lat="47.3824645193277" lon="6.868543627489413"><ele>550.1428571428571</ele><time>2026-04-06T13:40:36.002Z</time></trkpt><trkpt lat="47.38241016712645" lon="6.868597714015953"><ele>550.0</ele><time>2026-04-06T13:40:42.002Z</time></trkpt><trkpt lat="47.38235551560852" lon="6.868644238093958"><ele>550.0</ele><time>2026-04-06T13:40:49.002Z</time></trkpt><trkpt lat="47.382302078605406" lon="6.868701867565064"><ele>550.0</ele><time>2026-04-06T13:40:57.002Z</time></trkpt><trkpt lat="47.382238683078505" lon="6.868713755452085"><ele>550.0</ele><time>2026-04-06T13:41:01.002Z</time></trkpt><trkpt lat="47.38217516244395" lon="6.868737227206841"><ele>550.0</ele><time>2026-04-06T13:41:08.002Z</time></trkpt><trkpt lat="47.38210521840388" lon="6.868731438623676"><ele>550.0</ele><time>2026-04-06T13:41:18.003Z</time></trkpt><trkpt lat="47.38203569033104" lon="6.86876843135497"><ele>550.0</ele><time>2026-04-06T13:41:26.003Z</time></trkpt><trkpt lat="47.38197632083451" lon="6.868806700862994"><ele>550.0</ele><time>2026-04-06T13:41:31.003Z</time></trkpt><trkpt lat="47.38190417776269" lon="6.868794307627757"><ele>551.4285714285714</ele><time>2026-04-06T13:41:39.003Z</time></trkpt><trkpt lat="47.3818381356871" lon="6.868779272510863"><ele>552.8571428571429</ele><time>2026-04-06T13:41:49.003Z</time></trkpt><trkpt lat="47.38176922891161" lon="6.868785763111655"><ele>554.2857142857142</ele><time>2026-04-06T13:41:58.003Z</time></trkpt><trkpt lat="47.381700433122546" lon="6.868828620081897"><ele>555.7142857142858</ele><time>2026-04-06T13:42:21.003Z</time></trkpt><trkpt lat="47.38168811137218" lon="6.868932915543114"><ele>557.1428571428571</ele><time>2026-04-06T13:42:29.003Z</time></trkpt><trkpt lat="47.38165324704917" lon="6.869029957120885"><ele>558.5714285714286</ele><time>2026-04-06T13:42:37.004Z</time></trkpt><trkpt lat="47.38162702827276" lon="6.86913823512148"><ele>560.0</ele><time>2026-04-06T13:42:46.004Z</time></trkpt><trkpt lat="47.38162438743983" lon="6.869233145829012"><ele>560.4285714285714</ele><time>2026-04-06T13:42:56.004Z</time></trkpt><trkpt lat="47.3816364275112" lon="6.869335630528119"><ele>560.8571428571429</ele><time>2026-04-06T13:43:20.004Z</time></trkpt><trkpt lat="47.381660947955226" lon="6.869428782924231"><ele>561.2857142857142</ele><time>2026-04-06T13:43:28.004Z</time></trkpt><trkpt lat="47.381667676635104" lon="6.869523843206947"><ele>561.7142857142858</ele><time>2026-04-06T13:43:37.004Z</time></trkpt><trkpt lat="47.38167401945015" lon="6.869629137688824"><ele>562.1428571428571</ele><time>2026-04-06T13:43:50.005Z</time></trkpt><trkpt lat="47.38170103450155" lon="6.869742889662557"><ele>562.5714285714286</ele><time>2026-04-06T13:44:17.005Z</time></trkpt><trkpt lat="47.381691016884794" lon="6.86984511364421"><ele>563.0</ele><time>2026-04-06T13:44:23.005Z</time></trkpt><trkpt lat="47.381676826046444" lon="6.869949099861673"><ele>563.0</ele><time>2026-04-06T13:44:30.005Z</time></trkpt><trkpt lat="47.38167143332954" lon="6.870058359213782"><ele>563.0</ele><time>2026-04-06T13:44:36.005Z</time></trkpt><trkpt lat="47.381690021331764" lon="6.870147684082882"><ele>563.0</ele><time>2026-04-06T13:44:43.003Z</time></trkpt><trkpt lat="47.381683407230646" lon="6.8702542690729524"><ele>563.0</ele><time>2026-04-06T13:44:51.002Z</time></trkpt><trkpt lat="47.3816847858671" lon="6.87035563154598"><ele>563.0</ele><time>2026-04-06T13:45:21.001Z</time></trkpt><trkpt lat="47.38167535985332" lon="6.870459945537687"><ele>563.0</ele><time>2026-04-06T13:45:37.001Z</time></trkpt><trkpt lat="47.38167137003467" lon="6.8705711348281095"><ele>563.0</ele><time>2026-04-06T13:45:48.001Z</time></trkpt><trkpt lat="47.381660752022356" lon="6.870665636758611"><ele>563.2857142857142</ele><time>2026-04-06T13:45:55.001Z</time></trkpt><trkpt lat="47.38166890181423" lon="6.8707823338458835"><ele>563.5714285714286</ele><time>2026-04-06T13:46:01.001Z</time></trkpt><trkpt lat="47.381690484529656" lon="6.870881172515494"><ele>563.8571428571429</ele><time>2026-04-06T13:46:10.001Z</time></trkpt><trkpt lat="47.38169121501177" lon="6.8709774620333155"><ele>564.1428571428571</ele><time>2026-04-06T13:46:17.001Z</time></trkpt><trkpt lat="47.38170778802581" lon="6.871077200132249"><ele>564.4285714285714</ele><time>2026-04-06T13:46:24.001Z</time></trkpt><trkpt lat="47.381711828572605" lon="6.871173348967781"><ele>564.7142857142857</ele><time>2026-04-06T13:46:31.001Z</time></trkpt><trkpt lat="47.381725158165295" lon="6.871280798054016"><ele>565.0</ele><time>2026-04-06T13:46:38.001Z</time></trkpt><trkpt lat="47.381724706091255" lon="6.87138507859759"><ele>565.2857142857142</ele><time>2026-04-06T13:46:44.001Z</time></trkpt><trkpt lat="47.38172884636336" lon="6.871482712167552"><ele>565.5714285714286</ele><time>2026-04-06T13:46:58.002Z</time></trkpt><trkpt lat="47.38171553942319" lon="6.87157853599487"><ele>565.8571428571429</ele><time>2026-04-06T13:47:07.002Z</time></trkpt><trkpt lat="47.381744831089755" lon="6.871673030504527"><ele>566.1428571428571</ele><time>2026-04-06T13:47:30.002Z</time></trkpt><trkpt lat="47.38175029610016" lon="6.871774734346111"><ele>566.4285714285714</ele><time>2026-04-06T13:47:38.002Z</time></trkpt><trkpt lat="47.38175098643045" lon="6.871882712730634"><ele>566.7142857142857</ele><time>2026-04-06T13:47:46.002Z</time></trkpt><trkpt lat="47.381764395124996" lon="6.871976934445517"><ele>567.0</ele><time>2026-04-06T13:47:53.002Z</time></trkpt><trkpt lat="47.38178546307979" lon="6.8720750879846095"><ele>568.0</ele><time>2026-04-06T13:48:00.002Z</time></trkpt><trkpt lat="47.38177159479556" lon="6.872168310329721"><ele>569.0</ele><time>2026-04-06T13:48:21.003Z</time></trkpt><trkpt lat="47.38176385665227" lon="6.872275729200085"><ele>570.0</ele><time>2026-04-06T13:48:28.003Z</time></trkpt><trkpt lat="47.38176049876993" lon="6.87237960690425"><ele>571.0</ele><time>2026-04-06T13:48:34.003Z</time></trkpt><trkpt lat="47.381773550455314" lon="6.872475775802789"><ele>572.0</ele><time>2026-04-06T13:48:49.003Z</time></trkpt><trkpt lat="47.381780200112814" lon="6.872569281359019"><ele>573.0</ele><time>2026-04-06T13:48:59.003Z</time></trkpt><trkpt lat="47.38177470612692" lon="6.872666478765643"><ele>574.0</ele><time>2026-04-06T13:49:05.003Z</time></trkpt><trkpt lat="47.381771686688" lon="6.87277327977419"><ele>575.1428571428571</ele><time>2026-04-06T13:49:11.003Z</time></trkpt><trkpt lat="47.381789005054266" lon="6.872866953138445"><ele>576.2857142857142</ele><time>2026-04-06T13:49:19.003Z</time></trkpt><trkpt lat="47.38180138987183" lon="6.872966306084015"><ele>577.4285714285714</ele><time>2026-04-06T13:49:30.003Z</time></trkpt><trkpt lat="47.381780405068994" lon="6.873066638284577"><ele>578.5714285714286</ele><time>2026-04-06T13:49:36.004Z</time></trkpt><trkpt lat="47.381784193230686" lon="6.87316622663245"><ele>579.7142857142857</ele><time>2026-04-06T13:49:42.004Z</time></trkpt><trkpt lat="47.38179454588099" lon="6.873263334399075"><ele>580.8571428571429</ele><time>2026-04-06T13:49:50.004Z</time></trkpt><trkpt lat="47.381845972320825" lon="6.873326560474452"><ele>582.0</ele><time>2026-04-06T13:49:58.004Z</time></trkpt><trkpt lat="47.38190449319748" lon="6.8733715879180695"><ele>582.0</ele><time>2026-04-06T13:50:04.004Z</time></trkpt><trkpt lat="47.381928355611436" lon="6.873460422112795"><ele>590.0</ele><time>2026-04-06T13:50:10.004Z</time></trkpt><trkpt lat="47.38190684196499" lon="6.873552072481369"><ele>590.0</ele><time>2026-04-06T13:50:16.004Z</time></trkpt><trkpt lat="47.38189109342091" lon="6.873657951287934"><ele>590.0</ele><time>2026-04-06T13:50:23.004Z</time></trkpt><trkpt lat="47.38186776046787" lon="6.873750953113151"><ele>590.0</ele><time>2026-04-06T13:50:30.004Z</time></trkpt><trkpt lat="47.38185932177342" lon="6.873844045554763"><ele>590.0</ele><time>2026-04-06T13:51:52.003Z</time></trkpt></trkseg><trkseg><trkpt lat="47.38183473179214" lon="6.873817441600167"><ele>590.0000000000001</ele><time>2026-04-06T14:04:32.007Z</time></trkpt><trkpt lat="47.381763370957636" lon="6.873856381088142"><ele>590.0</ele><time>2026-04-06T14:04:42.007Z</time></trkpt><trkpt lat="47.38169900287158" lon="6.873840057950872"><ele>590.0</ele><time>2026-04-06T14:04:50.007Z</time></trkpt><trkpt lat="47.38163565904283" lon="6.873845773341082"><ele>590.0</ele><time>2026-04-06T14:04:58.007Z</time></trkpt><trkpt lat="47.38157372946335" lon="6.8738662874905145"><ele>590.0</ele><time>2026-04-06T14:05:06.007Z</time></trkpt><trkpt lat="47.38151036879792" lon="6.873867289014964"><ele>590.0000000000001</ele><time>2026-04-06T14:05:10.007Z</time></trkpt><trkpt lat="47.38143320631082" lon="6.873885593619949"><ele>590.0</ele><time>2026-04-06T14:05:15.007Z</time></trkpt><trkpt lat="47.381366975686554" lon="6.873945926858315"><ele>590.7142857142858</ele><time>2026-04-06T14:05:20.007Z</time></trkpt><trkpt lat="47.38131056476014" lon="6.874012118589619"><ele>591.4285714285714</ele><time>2026-04-06T14:05:26.007Z</time></trkpt><trkpt lat="47.38125142842365" lon="6.874051761107081"><ele>592.1428571428571</ele><time>2026-04-06T14:05:34.008Z</time></trkpt><trkpt lat="47.38118312412" lon="6.874084762643332"><ele>592.8571428571429</ele><time>2026-04-06T14:05:40.008Z</time></trkpt><trkpt lat="47.381120673573115" lon="6.8741061543966335"><ele>593.5714285714286</ele><time>2026-04-06T14:05:48.008Z</time></trkpt><trkpt lat="47.381047555064896" lon="6.874143257045227"><ele>594.2857142857143</ele><time>2026-04-06T14:06:09.008Z</time></trkpt><trkpt lat="47.38097937191925" lon="6.874161932949775"><ele>595.0</ele><time>2026-04-06T14:06:20.008Z</time></trkpt><trkpt lat="47.380910608767536" lon="6.87417036238408"><ele>595.0</ele><time>2026-04-06T14:06:25.008Z</time></trkpt><trkpt lat="47.38083635701689" lon="6.8741750785949485"><ele>595.0</ele><time>2026-04-06T14:06:30.008Z</time></trkpt><trkpt lat="47.380769188891314" lon="6.87417130212666"><ele>595.0</ele><time>2026-04-06T14:06:35.008Z</time></trkpt><trkpt lat="47.38069820798818" lon="6.874187202553973"><ele>595.0</ele><time>2026-04-06T14:06:43.008Z</time></trkpt><trkpt lat="47.380634679533614" lon="6.874200241596108"><ele>595.0</ele><time>2026-04-06T14:06:51.008Z</time></trkpt><trkpt lat="47.380569630031985" lon="6.8742106340985165"><ele>595.0</ele><time>2026-04-06T14:07:00.008Z</time></trkpt><trkpt lat="47.380501125886745" lon="6.874240510415531"><ele>595.0</ele><time>2026-04-06T14:07:07.008Z</time></trkpt><trkpt lat="47.38043668890679" lon="6.8742844265807515"><ele>597.2857142857143</ele><time>2026-04-06T14:07:15.009Z</time></trkpt><trkpt lat="47.38037379550135" lon="6.8742888282406485"><ele>599.5714285714286</ele><time>2026-04-06T14:07:21.009Z</time></trkpt><trkpt lat="47.38030906033005" lon="6.874311891290979"><ele>601.8571428571429</ele><time>2026-04-06T14:08:16.009Z</time></trkpt><trkpt lat="47.380245039969616" lon="6.8743407034549575"><ele>604.1428571428571</ele><time>2026-04-06T14:08:25.009Z</time></trkpt><trkpt lat="47.38018539278637" lon="6.874386173629559"><ele>606.4285714285714</ele><time>2026-04-06T14:08:32.009Z</time></trkpt><trkpt lat="47.38012083463588" lon="6.8743721378717915"><ele>608.7142857142858</ele><time>2026-04-06T14:08:47.01Z</time></trkpt><trkpt lat="47.38006414292046" lon="6.874321968148322"><ele>611.0</ele><time>2026-04-06T14:08:55.01Z</time></trkpt><trkpt lat="47.37999305234858" lon="6.874322284479231"><ele>611.0000000000001</ele><time>2026-04-06T14:09:01.01Z</time></trkpt><trkpt lat="47.37991916396343" lon="6.874326895048731"><ele>611.0</ele><time>2026-04-06T14:09:06.01Z</time></trkpt><trkpt lat="47.3798490242612" lon="6.874315701112057"><ele>611.0</ele><time>2026-04-06T14:09:14.01Z</time></trkpt><trkpt lat="47.37978408867204" lon="6.874313615265597"><ele>611.0</ele><time>2026-04-06T14:09:29.01Z</time></trkpt><trkpt lat="47.37972116649417" lon="6.8742888120354175"><ele>611.0</ele><time>2026-04-06T14:09:36.01Z</time></trkpt><trkpt lat="47.37965605789459" lon="6.874273873857493"><ele>611.0000000000001</ele><time>2026-04-06T14:09:45.01Z</time></trkpt><trkpt lat="47.3795827391661" lon="6.874250615223117"><ele>611.0</ele><time>2026-04-06T14:09:54.01Z</time></trkpt><trkpt lat="47.379522828359136" lon="6.874280341688924"><ele>611.8571428571429</ele><time>2026-04-06T14:10:00.01Z</time></trkpt><trkpt lat="47.379458181317446" lon="6.874254285685932"><ele>612.7142857142858</ele><time>2026-04-06T14:10:09.01Z</time></trkpt><trkpt lat="47.37940137961733" lon="6.874209894597769"><ele>613.5714285714287</ele><time>2026-04-06T14:10:20.011Z</time></trkpt><trkpt lat="47.37933657753632" lon="6.874179157734508"><ele>614.4285714285714</ele><time>2026-04-06T14:10:26.011Z</time></trkpt><trkpt lat="47.379266598608936" lon="6.874163998245711"><ele>615.2857142857142</ele><time>2026-04-06T14:10:35.011Z</time></trkpt><trkpt lat="47.37920402165218" lon="6.874126821670736"><ele>616.1428571428572</ele><time>2026-04-06T14:10:39.011Z</time></trkpt><trkpt lat="47.37913999055796" lon="6.874080948939625"><ele>617.0</ele><time>2026-04-06T14:10:45.011Z</time></trkpt><trkpt lat="47.37907299383752" lon="6.874070026665724"><ele>617.0</ele><time>2026-04-06T14:10:51.011Z</time></trkpt><trkpt lat="47.379015553659194" lon="6.874027859860378"><ele>617.0</ele><time>2026-04-06T14:10:58.011Z</time></trkpt><trkpt lat="47.378949264924266" lon="6.874018255313713"><ele>617.0</ele><time>2026-04-06T14:11:06.011Z</time></trkpt><trkpt lat="47.37888314509109" lon="6.874003409482956"><ele>617.0</ele><time>2026-04-06T14:11:15.011Z</time></trkpt><trkpt lat="47.37881676330222" lon="6.873972075042014"><ele>617.0</ele><time>2026-04-06T14:11:22.011Z</time></trkpt><trkpt lat="47.37875296451761" lon="6.873961061255941"><ele>617.0</ele><time>2026-04-06T14:11:26.011Z</time></trkpt><trkpt lat="47.378689425683305" lon="6.873958994410453"><ele>617.0</ele><time>2026-04-06T14:11:32.011Z</time></trkpt><trkpt lat="47.378620451644714" lon="6.873955645957401"><ele>617.7142857142858</ele><time>2026-04-06T14:11:39.009Z</time></trkpt><trkpt lat="47.378554852817416" lon="6.873946693324064"><ele>618.4285714285713</ele><time>2026-04-06T14:11:46.006Z</time></trkpt><trkpt lat="47.37849190867968" lon="6.873904395583309"><ele>619.1428571428571</ele><time>2026-04-06T14:11:56.003Z</time></trkpt><trkpt lat="47.378432963998776" lon="6.873863817335702"><ele>619.8571428571429</ele><time>2026-04-06T14:12:03.002Z</time></trkpt><trkpt lat="47.3783635226141" lon="6.873836768510183"><ele>620.5714285714287</ele><time>2026-04-06T14:12:09.001Z</time></trkpt><trkpt lat="47.378299534231324" lon="6.873788728985938"><ele>621.2857142857142</ele><time>2026-04-06T14:12:16.001Z</time></trkpt><trkpt lat="47.37823975146763" lon="6.873749210354375"><ele>622.0</ele><time>2026-04-06T14:12:21Z</time></trkpt><trkpt lat="47.37817378941456" lon="6.873739223705749"><ele>622.0</ele><time>2026-04-06T14:12:27Z</time></trkpt><trkpt lat="47.378097966862896" lon="6.873770686402008"><ele>622.0</ele><time>2026-04-06T14:12:40Z</time></trkpt><trkpt lat="47.3780335448436" lon="6.8737477405114875"><ele>622.0</ele><time>2026-04-06T14:12:47Z</time></trkpt><trkpt lat="47.37796868899788" lon="6.873749972536059"><ele>622.0</ele><time>2026-04-06T14:12:54Z</time></trkpt><trkpt lat="47.3779074368378" lon="6.873708524595632"><ele>622.0</ele><time>2026-04-06T14:13:00Z</time></trkpt><trkpt lat="47.37783780017158" lon="6.873713603689071"><ele>622.0</ele><time>2026-04-06T14:13:06Z</time></trkpt><trkpt lat="47.37776871668751" lon="6.873745450416541"><ele>622.0</ele><time>2026-04-06T14:13:12Z</time></trkpt><trkpt lat="47.37770077118703" lon="6.873770005070908"><ele>622.4285714285714</ele><time>2026-04-06T14:13:18Z</time></trkpt><trkpt lat="47.37762900479883" lon="6.873805475759573"><ele>622.8571428571429</ele><time>2026-04-06T14:13:24Z</time></trkpt><trkpt lat="47.37756714571509" lon="6.873834597919416"><ele>623.2857142857143</ele><time>2026-04-06T14:13:30Z</time></trkpt><trkpt lat="47.377498606500716" lon="6.8738529518983436"><ele>623.7142857142858</ele><time>2026-04-06T14:13:36.001Z</time></trkpt><trkpt lat="47.37742983842175" lon="6.873847287388375"><ele>624.1428571428571</ele><time>2026-04-06T14:13:42.001Z</time></trkpt><trkpt lat="47.37736330116875" lon="6.873833200694323"><ele>624.5714285714287</ele><time>2026-04-06T14:13:49.001Z</time></trkpt><trkpt lat="47.37729020760511" lon="6.873826733184425"><ele>625.0</ele><time>2026-04-06T14:13:57.001Z</time></trkpt><trkpt lat="47.37722192302911" lon="6.873826608777054"><ele>624.8571428571429</ele><time>2026-04-06T14:14:02.001Z</time></trkpt><trkpt lat="47.37715613203283" lon="6.873853285664967"><ele>624.7142857142858</ele><time>2026-04-06T14:14:08.001Z</time></trkpt><trkpt lat="47.37708024430879" lon="6.873861001092611"><ele>624.5714285714287</ele><time>2026-04-06T14:14:15.001Z</time></trkpt><trkpt lat="47.37701686845556" lon="6.873848895742154"><ele>624.4285714285714</ele><time>2026-04-06T14:14:21.001Z</time></trkpt><trkpt lat="47.37694428499522" lon="6.8738588260850575"><ele>624.2857142857142</ele><time>2026-04-06T14:14:27.001Z</time></trkpt><trkpt lat="47.37687971744572" lon="6.873878816270019"><ele>624.1428571428572</ele><time>2026-04-06T14:14:33.001Z</time></trkpt><trkpt lat="47.37681239965656" lon="6.873869212748714"><ele>624.0</ele><time>2026-04-06T14:14:41.001Z</time></trkpt><trkpt lat="47.376750612048525" lon="6.873850152862361"><ele>624.0</ele><time>2026-04-06T14:14:46.001Z</time></trkpt><trkpt lat="47.376677587763076" lon="6.873876777828869"><ele>624.0</ele><time>2026-04-06T14:14:52.001Z</time></trkpt><trkpt lat="47.37661401852592" lon="6.873881209666525"><ele>624.0</ele><time>2026-04-06T14:14:56.001Z</time></trkpt><trkpt lat="47.376542210322526" lon="6.873908851049941"><ele>624.0</ele><time>2026-04-06T14:15:02.001Z</time></trkpt><trkpt lat="47.37647933352542" lon="6.873887532131772"><ele>624.0</ele><time>2026-04-06T14:15:07.001Z</time></trkpt><trkpt lat="47.376408467979196" lon="6.873875084110907"><ele>624.0</ele><time>2026-04-06T14:15:13.001Z</time></trkpt><trkpt lat="47.37634554135128" lon="6.873865752529157"><ele>624.0</ele><time>2026-04-06T14:15:20.001Z</time></trkpt><trkpt lat="47.376276033575664" lon="6.873884045599574"><ele>623.7142857142858</ele><time>2026-04-06T14:15:27.002Z</time></trkpt><trkpt lat="47.376213670549426" lon="6.873899607047137"><ele>623.4285714285713</ele><time>2026-04-06T14:15:33.002Z</time></trkpt><trkpt lat="47.3761473706012" lon="6.873886109116564"><ele>623.1428571428571</ele><time>2026-04-06T14:15:39.002Z</time></trkpt><trkpt lat="47.37607766148163" lon="6.873896022835447"><ele>622.8571428571429</ele><time>2026-04-06T14:15:45.002Z</time></trkpt><trkpt lat="47.376013982487784" lon="6.873907618529097"><ele>622.5714285714287</ele><time>2026-04-06T14:15:51.002Z</time></trkpt><trkpt lat="47.375941070974235" lon="6.873894139427564"><ele>622.2857142857142</ele><time>2026-04-06T14:15:57.002Z</time></trkpt><trkpt lat="47.37588243915028" lon="6.873933266173416"><ele>622.0</ele><time>2026-04-06T14:16:05.002Z</time></trkpt><trkpt lat="47.37584107750837" lon="6.874003818963233"><ele>622.0</ele><time>2026-04-06T14:16:11.002Z</time></trkpt><trkpt lat="47.37580371755802" lon="6.874091351332678"><ele>622.0</ele><time>2026-04-06T14:16:18.002Z</time></trkpt><trkpt lat="47.37578254821105" lon="6.874204233858124"><ele>622.0</ele><time>2026-04-06T14:16:24.002Z</time></trkpt><trkpt lat="47.375750163954386" lon="6.874292402663804"><ele>622.0</ele><time>2026-04-06T14:16:30.002Z</time></trkpt><trkpt lat="47.37569814058398" lon="6.874354828598615"><ele>622.0</ele><time>2026-04-06T14:16:38.002Z</time></trkpt><trkpt lat="47.37565173173736" lon="6.8742880636891766"><ele>622.0</ele><time>2026-04-06T14:16:49.002Z</time></trkpt><trkpt lat="47.375624188644494" lon="6.8742005475827"><ele>622.0</ele><time>2026-04-06T14:16:57.002Z</time></trkpt><trkpt lat="47.375572048094924" lon="6.874140265483499"><ele>622.0</ele><time>2026-04-06T14:17:03.002Z</time></trkpt><trkpt lat="47.3755055887878" lon="6.874089467277164"><ele>612.0</ele><time>2026-04-06T14:17:09.002Z</time></trkpt><trkpt lat="47.37544504189483" lon="6.8740401096563994"><ele>612.0</ele><time>2026-04-06T14:17:16.003Z</time></trkpt><trkpt lat="47.3753807312533" lon="6.874024099691725"><ele>612.0</ele><time>2026-04-06T14:17:21.003Z</time></trkpt><trkpt lat="47.375316565678524" lon="6.874029404153868"><ele>612.0</ele><time>2026-04-06T14:17:31.003Z</time></trkpt><trkpt lat="47.37524125372962" lon="6.874022404533998"><ele>612.0</ele><time>2026-04-06T14:17:42.001Z</time></trkpt></trkseg></trk></gpx>